Time,TemperatureF,DewpointF,PressureIn,WindDirection,WindDirectionDegrees,WindSpeedMPH,WindSpeedGustMPH,Humidity,HourlyPrecipIn,Conditions,Clouds,dailyrainin,SoftwareType,DateUTC
2013-02-13 00:00:00,40.7,37.4,30.06,WNW,292,1.0,6.0,88,0.00,,---,0.00,VWS V14.01,2013-02-13 06:00:00,
2013-02-13 00:01:00,40.8,37.5,30.05,WNW,289,5.0,11.0,88,0.00,,---,0.00,VWS V14.01,2013-02-13 06:01:00,
2013-02-13 00:02:00,40.8,37.5,30.05,NW,322,1.0,11.0,88,0.00,,---,0.00,VWS V14.01,2013-02-13 06:02:00,
2013-02-13 00:03:00,40.8,37.5,30.05,NW,318,4.0,9.0,88,0.00,,---,0.00,VWS V14.01,2013-02-13 06:03:00,
2013-02-13 00:04:00,40.7,37.4,30.06,NW,317,2.0,9.0,88,0.00,,---,0.00,VWS V14.01,2013-02-13 06:04:00,
2013-02-13 00:05:00,40.7,37.4,30.05,WNW,290,3.0,9.0,88,0.00,,---,0.00,VWS V14.01,2013-02-13 06:05:00,
2013-02-13 00:06:00,40.7,37.4,30.05,NW,314,2.0,9.0,88,0.00,,---,0.00,VWS V14.01,2013-02-13 06:06:00,
2013-02-13 00:08:00,40.7,37.4,30.06,NW,307,1.0,9.0,88,0.00,,---,0.00,VWS V14.01,2013-02-13 06:08:00,
2013-02-13 00:09:00,40.7,37.4,30.06,NW,307,4.0,9.0,88,0.00,,---,0.00,VWS V14.01,2013-02-13 06:09:00,
2013-02-13 00:10:00,40.7,37.4,30.06,NNW,336,1.0,7.0,88,0.00,,---,0.00,VWS V14.01,2013-02-13 06:10:00,
2013-02-13 00:11:00,40.7,37.4,30.06,WNW,300,1.0,9.0,88,0.00,,---,0.00,VWS V14.01,2013-02-13 06:11:00,
2013-02-13 00:12:00,40.7,37.4,30.05,NW,311,3.0,9.0,88,0.00,,---,0.00,VWS V14.01,2013-02-13 06:12:00,
2013-02-13 00:13:00,40.7,37.4,30.05,WNW,300,0.0,7.0,88,0.00,,---,0.00,VWS V14.01,2013-02-13 06:13:00,
2013-02-13 00:14:00,40.7,37.4,30.06,NW,307,0.0,7.0,88,0.00,,---,0.00,VWS V14.01,2013-02-13 06:14:00,
2013-02-13 00:15:00,40.7,37.4,30.06,NW,323,3.0,10.0,88,0.00,,---,0.00,VWS V14.01,2013-02-13 06:15:00,
2013-02-13 00:16:00,40.7,37.4,30.06,NW,325,2.0,6.0,88,0.00,,---,0.00,VWS V14.01,2013-02-13 06:16:00,
2013-02-13 00:17:00,40.7,37.4,30.06,NW,310,3.0,6.0,88,0.00,,---,0.00,VWS V14.01,2013-02-13 06:17:00,
2013-02-13 00:19:00,40.7,37.4,30.05,NNW,327,1.0,10.0,88,0.00,,---,0.00,VWS V14.01,2013-02-13 06:19:00,
2013-02-13 00:20:00,40.7,37.4,30.06,NW,315,5.0,6.0,88,0.00,,---,0.00,VWS V14.01,2013-02-13 06:20:00,
2013-02-13 00:21:00,40.7,37.4,30.05,NW,318,0.0,10.0,88,0.00,,---,0.00,VWS V14.01,2013-02-13 06:21:00,
2013-02-13 00:22:00,40.7,37.4,30.06,NW,317,0.0,10.0,88,0.00,,---,0.00,VWS V14.01,2013-02-13 06:22:00,
2013-02-13 00:23:00,40.7,37.4,30.06,NW,319,2.0,9.0,88,0.00,,---,0.00,VWS V14.01,2013-02-13 06:23:00,
2013-02-13 00:24:00,40.7,37.4,30.05,NW,319,0.0,6.0,88,0.00,,---,0.00,VWS V14.01,2013-02-13 06:24:00,
2013-02-13 00:25:00,40.7,37.4,30.06,NNW,333,3.0,7.0,88,0.00,,---,0.00,VWS V14.01,2013-02-13 06:25:00,
2013-02-13 00:26:00,40.7,37.4,30.06,NW,315,2.0,7.0,88,0.00,,---,0.00,VWS V14.01,2013-02-13 06:26:00,
2013-02-13 00:27:00,40.7,37.4,30.06,NW,315,0.0,7.0,88,0.00,,---,0.00,VWS V14.01,2013-02-13 06:27:00,
2013-02-13 00:28:00,40.7,37.4,30.06,NW,307,4.0,7.0,88,0.00,,---,0.00,VWS V14.01,2013-02-13 06:28:00,
2013-02-13 00:29:00,40.7,37.4,30.06,NW,320,2.0,7.0,88,0.00,,---,0.00,VWS V14.01,2013-02-13 06:29:00,
2013-02-13 00:30:00,40.7,37.4,30.06,NW,310,3.0,7.0,88,0.00,,---,0.00,VWS V14.01,2013-02-13 06:30:00,
2013-02-13 00:31:00,40.7,37.4,30.06,North,5,2.0,6.0,88,0.00,,---,0.00,VWS V14.01,2013-02-13 06:31:00,
2013-02-13 00:32:00,40.7,37.4,30.06,NNW,339,6.0,6.0,88,0.00,,---,0.00,VWS V14.01,2013-02-13 06:32:00,
2013-02-13 00:33:00,40.7,37.4,30.06,NW,320,1.0,6.0,88,0.00,,---,0.00,VWS V14.01,2013-02-13 06:33:00,
2013-02-13 00:34:00,40.7,37.4,30.06,WNW,300,2.0,6.0,88,0.00,,---,0.00,VWS V14.01,2013-02-13 06:34:00,
2013-02-13 00:35:00,40.7,37.4,30.06,NW,308,4.0,11.0,88,0.00,,---,0.00,VWS V14.01,2013-02-13 06:35:00,
2013-02-13 00:36:00,40.7,37.4,30.06,WNW,302,5.0,11.0,88,0.00,,---,0.00,VWS V14.01,2013-02-13 06:36:00,
2013-02-13 00:37:00,40.7,37.4,30.06,WNW,302,0.0,11.0,88,0.00,,---,0.00,VWS V14.01,2013-02-13 06:37:00,
2013-02-13 00:38:00,40.7,37.4,30.06,NW,319,6.0,11.0,88,0.00,,---,0.00,VWS V14.01,2013-02-13 06:38:00,
2013-02-13 00:39:00,40.7,37.4,30.06,North,355,4.0,11.0,88,0.00,,---,0.00,VWS V14.01,2013-02-13 06:39:00,
2013-02-13 00:40:00,40.7,37.4,30.06,NW,320,1.0,10.0,88,0.00,,---,0.00,VWS V14.01,2013-02-13 06:40:00,
2013-02-13 00:41:00,40.7,37.4,30.06,NW,316,3.0,10.0,88,0.00,,---,0.00,VWS V14.01,2013-02-13 06:41:00,
2013-02-13 00:42:00,40.7,37.4,30.06,NW,316,0.0,10.0,88,0.00,,---,0.00,VWS V14.01,2013-02-13 06:42:00,
2013-02-13 00:43:00,40.7,37.4,30.06,NW,312,3.0,10.0,88,0.00,,---,0.00,VWS V14.01,2013-02-13 06:43:00,
2013-02-13 00:44:00,40.7,37.4,30.06,NW,313,1.0,10.0,88,0.00,,---,0.00,VWS V14.01,2013-02-13 06:44:00,
2013-02-13 00:45:00,40.7,37.4,30.06,NW,325,0.0,5.0,88,0.00,,---,0.00,VWS V14.01,2013-02-13 06:45:00,
2013-02-13 00:46:00,40.7,37.4,30.06,NW,323,3.0,9.0,88,0.00,,---,0.00,VWS V14.01,2013-02-13 06:46:00,
2013-02-13 00:47:00,40.7,37.4,30.06,NW,322,0.0,9.0,88,0.00,,---,0.00,VWS V14.01,2013-02-13 06:47:00,
2013-02-13 00:48:00,40.7,37.4,30.06,North,355,3.0,5.0,88,0.00,,---,0.00,VWS V14.01,2013-02-13 06:48:00,
2013-02-13 00:49:00,40.7,37.4,30.06,NW,325,0.0,5.0,88,0.00,,---,0.00,VWS V14.01,2013-02-13 06:49:00,
2013-02-13 00:50:00,40.7,37.4,30.07,NNW,333,0.0,10.0,88,0.00,,---,0.00,VWS V14.01,2013-02-13 06:50:00,
2013-02-13 00:51:00,40.7,37.4,30.06,NW,323,5.0,5.0,88,0.00,,---,0.00,VWS V14.01,2013-02-13 06:51:00,
2013-02-13 00:52:00,40.7,37.4,30.06,NW,309,5.0,10.0,88,0.00,,---,0.00,VWS V14.01,2013-02-13 06:52:00,
2013-02-13 00:53:00,40.7,37.4,30.06,NW,323,3.0,10.0,88,0.00,,---,0.00,VWS V14.01,2013-02-13 06:53:00,
2013-02-13 00:54:00,40.7,37.4,30.06,NNW,340,0.0,10.0,88,0.00,,---,0.00,VWS V14.01,2013-02-13 06:54:00,
2013-02-13 00:55:00,40.7,37.4,30.06,WNW,292,1.0,7.0,88,0.00,,---,0.00,VWS V14.01,2013-02-13 06:55:00,
2013-02-13 00:56:00,40.7,37.4,30.06,NNW,333,0.0,10.0,88,0.00,,---,0.00,VWS V14.01,2013-02-13 06:56:00,
2013-02-13 00:57:00,40.7,37.4,30.06,NNW,333,0.0,5.0,88,0.00,,---,0.00,VWS V14.01,2013-02-13 06:57:00,
2013-02-13 00:58:00,40.7,37.4,30.06,WNW,288,7.0,7.0,88,0.00,,---,0.00,VWS V14.01,2013-02-13 06:58:00,
2013-02-13 00:59:00,40.7,37.4,30.06,West,270,3.0,7.0,88,0.00,,---,0.00,VWS V14.01,2013-02-13 06:59:00,
2013-02-13 01:00:00,40.7,37.4,30.07,NW,325,2.0,9.0,88,0.00,,---,0.00,VWS V14.01,2013-02-13 07:00:00,
2013-02-13 01:01:00,40.7,37.4,30.06,WNW,301,0.0,7.0,88,0.00,,---,0.00,VWS V14.01,2013-02-13 07:01:00,
2013-02-13 01:03:00,40.7,37.4,30.07,NW,318,4.0,7.0,88,0.00,,---,0.00,VWS V14.01,2013-02-13 07:03:00,
2013-02-13 01:04:00,40.7,37.4,30.06,NW,322,4.0,8.0,88,0.00,,---,0.00,VWS V14.01,2013-02-13 07:04:00,
2013-02-13 01:05:00,40.6,37.3,30.07,NW,313,3.0,10.0,88,0.00,,---,0.00,VWS V14.01,2013-02-13 07:05:00,
2013-02-13 01:06:00,40.7,37.4,30.06,NW,325,0.0,9.0,88,0.00,,---,0.00,VWS V14.01,2013-02-13 07:06:00,
2013-02-13 01:07:00,40.6,37.3,30.06,WNW,293,1.0,9.0,88,0.00,,---,0.00,VWS V14.01,2013-02-13 07:07:00,
2013-02-13 01:08:00,40.6,37.3,30.06,NW,319,3.0,9.0,88,0.00,,---,0.00,VWS V14.01,2013-02-13 07:08:00,
2013-02-13 01:09:00,40.6,37.3,30.06,NW,315,0.0,9.0,88,0.00,,---,0.00,VWS V14.01,2013-02-13 07:09:00,
2013-02-13 01:10:00,40.6,37.3,30.07,NW,309,6.0,9.0,88,0.00,,---,0.00,VWS V14.01,2013-02-13 07:10:00,
2013-02-13 01:11:00,40.6,37.3,30.07,NW,313,0.0,10.0,88,0.00,,---,0.00,VWS V14.01,2013-02-13 07:11:00,
2013-02-13 01:12:00,40.6,37.3,30.07,NW,313,0.0,10.0,88,0.00,,---,0.00,VWS V14.01,2013-02-13 07:12:00,
2013-02-13 01:13:00,40.6,37.3,30.07,NW,313,1.0,10.0,88,0.00,,---,0.00,VWS V14.01,2013-02-13 07:13:00,
2013-02-13 01:14:00,40.6,37.3,30.07,NW,313,2.0,10.0,88,0.00,,---,0.00,VWS V14.01,2013-02-13 07:14:00,
2013-02-13 01:15:00,40.6,37.3,30.07,NNW,334,2.0,7.0,88,0.00,,---,0.00,VWS V14.01,2013-02-13 07:15:00,
2013-02-13 01:16:00,40.6,37.3,30.06,NNW,328,0.0,9.0,88,0.00,,---,0.00,VWS V14.01,2013-02-13 07:16:00,
2013-02-13 01:17:00,40.6,37.3,30.07,NW,326,4.0,9.0,88,0.00,,---,0.00,VWS V14.01,2013-02-13 07:17:00,
2013-02-13 01:18:00,40.6,37.3,30.07,NNW,333,1.0,9.0,88,0.00,,---,0.00,VWS V14.01,2013-02-13 07:18:00,
2013-02-13 01:19:00,40.6,37.3,30.07,NNW,334,0.0,9.0,88,0.00,,---,0.00,VWS V14.01,2013-02-13 07:19:00,
2013-02-13 01:20:00,40.7,37.4,30.07,West,269,10.0,11.0,88,0.00,,---,0.00,VWS V14.01,2013-02-13 07:20:00,
2013-02-13 01:21:00,40.6,37.3,30.07,WNW,296,0.0,7.0,88,0.00,,---,0.00,VWS V14.01,2013-02-13 07:21:00,
2013-02-13 01:22:00,40.6,37.3,30.07,NNW,336,3.0,7.0,88,0.00,,---,0.00,VWS V14.01,2013-02-13 07:22:00,
2013-02-13 01:23:00,40.6,37.3,30.07,NNW,336,0.0,7.0,88,0.00,,---,0.00,VWS V14.01,2013-02-13 07:23:00,
2013-02-13 01:25:00,40.7,37.4,30.07,WNW,303,0.0,10.0,88,0.00,,---,0.00,VWS V14.01,2013-02-13 07:25:00,
2013-02-13 01:26:00,40.7,37.4,30.07,WNW,300,4.0,11.0,88,0.00,,---,0.00,VWS V14.01,2013-02-13 07:26:00,
2013-02-13 01:27:00,40.7,37.4,30.07,NW,308,5.0,11.0,88,0.00,,---,0.00,VWS V14.01,2013-02-13 07:27:00,
2013-02-13 01:28:00,40.7,37.4,30.07,NW,318,1.0,11.0,88,0.00,,---,0.00,VWS V14.01,2013-02-13 07:28:00,
2013-02-13 01:29:00,40.7,37.4,30.07,NW,313,4.0,11.0,88,0.00,,---,0.00,VWS V14.01,2013-02-13 07:29:00,
2013-02-13 01:30:00,40.7,37.4,30.07,NW,311,0.0,10.0,88,0.00,,---,0.00,VWS V14.01,2013-02-13 07:30:00,
2013-02-13 01:31:00,40.7,37.4,30.07,NNW,331,7.0,10.0,88,0.00,,---,0.00,VWS V14.01,2013-02-13 07:31:00,
2013-02-13 01:32:00,40.7,37.4,30.07,NW,316,2.0,10.0,88,0.00,,---,0.00,VWS V14.01,2013-02-13 07:32:00,
2013-02-13 01:33:00,40.7,37.4,30.07,NW,317,1.0,10.0,88,0.00,,---,0.00,VWS V14.01,2013-02-13 07:33:00,
2013-02-13 01:34:00,40.7,37.4,30.07,NW,315,2.0,10.0,88,0.00,,---,0.00,VWS V14.01,2013-02-13 07:34:00,
2013-02-13 01:35:00,40.6,37.3,30.07,NW,319,0.0,10.0,88,0.00,,---,0.00,VWS V14.01,2013-02-13 07:35:00,
2013-02-13 01:37:00,40.6,37.3,30.07,WNW,286,0.0,10.0,88,0.00,,---,0.00,VWS V14.01,2013-02-13 07:37:00,
2013-02-13 01:38:00,40.7,37.4,30.07,NNW,334,1.0,10.0,88,0.00,,---,0.00,VWS V14.01,2013-02-13 07:38:00,
2013-02-13 01:39:00,40.6,37.3,30.07,NW,325,1.0,10.0,88,0.00,,---,0.00,VWS V14.01,2013-02-13 07:39:00,
2013-02-13 01:40:00,40.7,37.4,30.07,NW,309,0.0,6.0,88,0.00,,---,0.00,VWS V14.01,2013-02-13 07:40:00,
2013-02-13 01:41:00,40.6,37.3,30.07,NW,315,4.0,10.0,88,0.00,,---,0.00,VWS V14.01,2013-02-13 07:41:00,
2013-02-13 01:42:00,40.6,37.3,30.07,NW,313,3.0,10.0,88,0.00,,---,0.00,VWS V14.01,2013-02-13 07:42:00,
2013-02-13 01:43:00,40.6,37.3,30.07,NW,307,3.0,6.0,88,0.00,,---,0.00,VWS V14.01,2013-02-13 07:43:00,
2013-02-13 01:44:00,40.7,37.4,30.07,NW,311,0.0,6.0,88,0.00,,---,0.00,VWS V14.01,2013-02-13 07:44:00,
2013-02-13 01:45:00,40.7,37.4,30.07,NW,321,0.0,6.0,88,0.00,,---,0.00,VWS V14.01,2013-02-13 07:45:00,
2013-02-13 01:46:00,40.7,37.4,30.07,WNW,302,3.0,6.0,88,0.00,,---,0.00,VWS V14.01,2013-02-13 07:46:00,
2013-02-13 01:47:00,40.7,37.4,30.07,West,279,3.0,6.0,88,0.00,,---,0.00,VWS V14.01,2013-02-13 07:47:00,
2013-02-13 01:48:00,40.7,37.4,30.07,NNW,328,0.0,6.0,88,0.00,,---,0.00,VWS V14.01,2013-02-13 07:48:00,
2013-02-13 01:49:00,40.7,37.4,30.07,NW,321,3.0,6.0,88,0.00,,---,0.00,VWS V14.01,2013-02-13 07:49:00,
2013-02-13 01:50:00,40.7,37.4,30.07,NW,316,3.0,6.0,88,0.00,,---,0.00,VWS V14.01,2013-02-13 07:50:00,
2013-02-13 01:51:00,40.7,37.4,30.07,NW,324,6.0,6.0,88,0.00,,---,0.00,VWS V14.01,2013-02-13 07:51:00,
2013-02-13 01:52:00,40.7,37.4,30.07,NW,324,0.0,6.0,88,0.00,,---,0.00,VWS V14.01,2013-02-13 07:52:00,
2013-02-13 01:53:00,40.6,37.3,30.07,NW,313,2.0,6.0,88,0.00,,---,0.00,VWS V14.01,2013-02-13 07:53:00,
2013-02-13 01:54:00,40.7,37.4,30.07,NW,313,0.0,6.0,88,0.00,,---,0.00,VWS V14.01,2013-02-13 07:54:00,
2013-02-13 01:55:00,40.6,37.0,30.07,WNW,302,2.0,9.0,87,0.00,,---,0.00,VWS V14.01,2013-02-13 07:55:00,
2013-02-13 01:56:00,40.7,37.4,30.07,NW,325,2.0,8.0,88,0.00,,---,0.00,VWS V14.01,2013-02-13 07:56:00,
2013-02-13 01:57:00,40.7,37.4,30.07,WNW,297,4.0,8.0,88,0.00,,---,0.00,VWS V14.01,2013-02-13 07:57:00,
2013-02-13 01:58:00,40.6,37.3,30.07,NW,314,2.0,9.0,88,0.00,,---,0.00,VWS V14.01,2013-02-13 07:58:00,
2013-02-13 01:59:00,40.7,37.1,30.07,NW,314,3.0,9.0,87,0.00,,---,0.00,VWS V14.01,2013-02-13 07:59:00,
2013-02-13 02:00:00,40.6,37.0,30.07,NW,320,6.0,10.0,87,0.00,,---,0.00,VWS V14.01,2013-02-13 08:00:00,
2013-02-13 02:01:00,40.6,37.0,30.07,West,275,7.0,9.0,87,0.00,,---,0.00,VWS V14.01,2013-02-13 08:01:00,
2013-02-13 02:02:00,40.6,37.0,30.07,NW,317,0.0,9.0,87,0.00,,---,0.00,VWS V14.01,2013-02-13 08:02:00,
2013-02-13 02:03:00,40.6,37.0,30.07,NW,305,5.0,7.0,87,0.00,,---,0.00,VWS V14.01,2013-02-13 08:03:00,
2013-02-13 02:04:00,40.6,37.0,30.07,NW,306,0.0,7.0,87,0.00,,---,0.00,VWS V14.01,2013-02-13 08:04:00,
2013-02-13 02:05:00,40.6,37.0,30.07,NW,325,2.0,10.0,87,0.00,,---,0.00,VWS V14.01,2013-02-13 08:05:00,
2013-02-13 02:06:00,40.6,37.0,30.07,West,275,3.0,10.0,87,0.00,,---,0.00,VWS V14.01,2013-02-13 08:06:00,
2013-02-13 02:07:00,40.6,37.0,30.07,West,275,1.0,10.0,87,0.00,,---,0.00,VWS V14.01,2013-02-13 08:07:00,
2013-02-13 02:08:00,40.6,37.0,30.07,WNW,293,4.0,10.0,87,0.00,,---,0.00,VWS V14.01,2013-02-13 08:08:00,
2013-02-13 02:09:00,40.6,37.0,30.07,NW,319,2.0,10.0,87,0.00,,---,0.00,VWS V14.01,2013-02-13 08:09:00,
2013-02-13 02:10:00,40.5,36.9,30.07,NW,323,5.0,5.0,87,0.00,,---,0.00,VWS V14.01,2013-02-13 08:10:00,
2013-02-13 02:11:00,40.6,37.0,30.07,WNW,303,2.0,10.0,87,0.00,,---,0.00,VWS V14.01,2013-02-13 08:11:00,
2013-02-13 02:12:00,40.6,37.0,30.07,NW,309,4.0,10.0,87,0.00,,---,0.00,VWS V14.01,2013-02-13 08:12:00,
2013-02-13 02:13:00,40.6,37.0,30.07,NW,309,0.0,10.0,87,0.00,,---,0.00,VWS V14.01,2013-02-13 08:13:00,
2013-02-13 02:14:00,40.6,37.0,30.07,NW,308,0.0,7.0,87,0.00,,---,0.00,VWS V14.01,2013-02-13 08:14:00,
2013-02-13 02:15:00,40.5,36.9,30.07,NW,311,5.0,5.0,87,0.00,,---,0.00,VWS V14.01,2013-02-13 08:15:00,
2013-02-13 02:16:00,40.5,36.9,30.07,WNW,291,5.0,10.0,87,0.00,,---,0.00,VWS V14.01,2013-02-13 08:16:00,
2013-02-13 02:17:00,40.5,36.9,30.07,WNW,302,0.0,10.0,87,0.00,,---,0.00,VWS V14.01,2013-02-13 08:17:00,
2013-02-13 02:18:00,40.5,36.9,30.08,NNW,328,0.0,10.0,87,0.00,,---,0.00,VWS V14.01,2013-02-13 08:18:00,
2013-02-13 02:19:00,40.5,36.9,30.08,WNW,289,6.0,10.0,87,0.00,,---,0.00,VWS V14.01,2013-02-13 08:19:00,
2013-02-13 02:20:00,40.5,36.9,30.07,WNW,291,9.0,10.0,87,0.00,,---,0.00,VWS V14.01,2013-02-13 08:20:00,
2013-02-13 02:21:00,40.5,36.9,30.07,NW,325,1.0,8.0,87,0.00,,---,0.00,VWS V14.01,2013-02-13 08:21:00,
2013-02-13 02:22:00,40.5,36.9,30.07,WNW,287,3.0,9.0,87,0.00,,---,0.00,VWS V14.01,2013-02-13 08:22:00,
2013-02-13 02:23:00,40.5,36.9,30.07,West,261,6.0,9.0,87,0.00,,---,0.00,VWS V14.01,2013-02-13 08:23:00,
2013-02-13 02:24:00,40.5,36.9,30.07,WNW,290,3.0,9.0,87,0.00,,---,0.00,VWS V14.01,2013-02-13 08:24:00,
2013-02-13 02:25:00,40.5,36.9,30.07,NW,325,2.0,8.0,87,0.00,,---,0.00,VWS V14.01,2013-02-13 08:25:00,
2013-02-13 02:26:00,40.5,36.9,30.07,NW,306,2.0,5.0,87,0.00,,---,0.00,VWS V14.01,2013-02-13 08:26:00,
2013-02-13 02:27:00,40.5,36.9,30.07,WNW,301,3.0,6.0,87,0.00,,---,0.00,VWS V14.01,2013-02-13 08:27:00,
2013-02-13 02:29:00,40.5,36.9,30.07,NW,305,3.0,6.0,87,0.00,,---,0.00,VWS V14.01,2013-02-13 08:29:00,
2013-02-13 02:30:00,40.5,36.9,30.07,NW,305,3.0,5.0,87,0.00,,---,0.00,VWS V14.01,2013-02-13 08:30:00,
2013-02-13 02:31:00,40.4,36.8,30.07,West,279,4.0,6.0,87,0.00,,---,0.00,VWS V14.01,2013-02-13 08:31:00,
2013-02-13 02:32:00,40.5,36.9,30.07,NW,306,0.0,5.0,87,0.00,,---,0.00,VWS V14.01,2013-02-13 08:32:00,
2013-02-13 02:33:00,40.4,36.8,30.07,NW,306,0.0,4.0,87,0.00,,---,0.00,VWS V14.01,2013-02-13 08:33:00,
2013-02-13 02:35:00,40.4,36.8,30.08,West,269,6.0,6.0,87,0.00,,---,0.00,VWS V14.01,2013-02-13 08:35:00,
2013-02-13 02:36:00,40.4,36.8,30.07,NW,324,4.0,9.0,87,0.00,,---,0.00,VWS V14.01,2013-02-13 08:36:00,
2013-02-13 02:37:00,40.4,36.8,30.08,West,261,4.0,6.0,87,0.00,,---,0.00,VWS V14.01,2013-02-13 08:37:00,
2013-02-13 02:38:00,40.4,36.8,30.07,WSW,255,6.0,6.0,87,0.00,,---,0.00,VWS V14.01,2013-02-13 08:38:00,
2013-02-13 02:39:00,40.4,36.8,30.07,NW,305,4.0,9.0,87,0.00,,---,0.00,VWS V14.01,2013-02-13 08:39:00,
2013-02-13 02:40:00,40.4,36.8,30.07,WNW,288,3.0,9.0,87,0.00,,---,0.00,VWS V14.01,2013-02-13 08:40:00,
2013-02-13 02:41:00,40.2,36.7,30.07,NW,309,2.0,14.0,87,0.00,,---,0.00,VWS V14.01,2013-02-13 08:41:00,
2013-02-13 02:42:00,40.3,36.8,30.07,NNW,343,11.0,14.0,87,0.00,,---,0.00,VWS V14.01,2013-02-13 08:42:00,
2013-02-13 02:43:00,40.3,36.8,30.07,NW,313,0.0,14.0,87,0.00,,---,0.00,VWS V14.01,2013-02-13 08:43:00,
2013-02-13 02:44:00,40.3,36.8,30.07,NW,313,0.0,14.0,87,0.00,,---,0.00,VWS V14.01,2013-02-13 08:44:00,
2013-02-13 02:45:00,40.2,36.7,30.07,NW,309,2.0,14.0,87,0.00,,---,0.00,VWS V14.01,2013-02-13 08:45:00,
2013-02-13 02:46:00,40.1,36.5,30.07,NW,320,0.0,9.0,87,0.00,,---,0.00,VWS V14.01,2013-02-13 08:46:00,
2013-02-13 02:47:00,40.2,36.7,30.07,NW,323,4.0,11.0,87,0.00,,---,0.00,VWS V14.01,2013-02-13 08:47:00,
2013-02-13 02:48:00,40.2,36.7,30.07,NW,311,3.0,10.0,87,0.00,,---,0.00,VWS V14.01,2013-02-13 08:48:00,
2013-02-13 02:49:00,40.1,36.5,30.07,NW,311,0.0,7.0,87,0.00,,---,0.00,VWS V14.01,2013-02-13 08:49:00,
2013-02-13 02:50:00,40.1,36.5,30.07,NW,320,2.0,9.0,87,0.00,,---,0.00,VWS V14.01,2013-02-13 08:50:00,
2013-02-13 02:51:00,40.0,36.5,30.07,West,278,0.0,8.0,87,0.00,,---,0.00,VWS V14.01,2013-02-13 08:51:00,
2013-02-13 02:53:00,40.1,36.5,30.07,West,267,4.0,9.0,87,0.00,,---,0.00,VWS V14.01,2013-02-13 08:53:00,
2013-02-13 02:54:00,40.1,36.5,30.07,WNW,294,0.0,9.0,87,0.00,,---,0.00,VWS V14.01,2013-02-13 08:54:00,
2013-02-13 02:55:00,40.0,36.5,30.07,West,278,0.0,8.0,87,0.00,,---,0.00,VWS V14.01,2013-02-13 08:55:00,
2013-02-13 02:56:00,40.0,36.5,30.07,NW,325,3.0,11.0,87,0.00,,---,0.00,VWS V14.01,2013-02-13 08:56:00,
2013-02-13 02:57:00,40.0,36.5,30.07,West,278,1.0,8.0,87,0.00,,---,0.00,VWS V14.01,2013-02-13 08:57:00,
2013-02-13 02:58:00,40.0,36.5,30.07,NW,307,2.0,10.0,87,0.00,,---,0.00,VWS V14.01,2013-02-13 08:58:00,
2013-02-13 02:59:00,40.0,36.5,30.07,NW,319,3.0,11.0,87,0.00,,---,0.00,VWS V14.01,2013-02-13 08:59:00,
2013-02-13 03:00:00,40.0,36.5,30.07,NW,324,4.0,11.0,87,0.00,,---,0.00,VWS V14.01,2013-02-13 09:00:00,
2013-02-13 03:01:00,39.9,36.3,30.07,WNW,291,3.0,7.0,87,0.00,,---,0.00,VWS V14.01,2013-02-13 09:01:00,
2013-02-13 03:03:00,40.0,36.5,30.07,NW,306,7.0,11.0,87,0.00,,---,0.00,VWS V14.01,2013-02-13 09:03:00,
2013-02-13 03:04:00,40.0,36.5,30.07,WNW,300,2.0,10.0,87,0.00,,---,0.00,VWS V14.01,2013-02-13 09:04:00,
2013-02-13 03:05:00,39.9,36.3,30.07,WNW,284,5.0,7.0,87,0.00,,---,0.00,VWS V14.01,2013-02-13 09:05:00,
2013-02-13 03:06:00,39.8,36.2,30.07,NW,322,3.0,10.0,87,0.00,,---,0.00,VWS V14.01,2013-02-13 09:06:00,
2013-02-13 03:07:00,39.9,36.3,30.07,WNW,296,4.0,9.0,87,0.00,,---,0.00,VWS V14.01,2013-02-13 09:07:00,
2013-02-13 03:08:00,39.9,36.3,30.07,West,281,2.0,10.0,87,0.00,,---,0.00,VWS V14.01,2013-02-13 09:08:00,
2013-02-13 03:09:00,39.8,36.2,30.07,WNW,296,1.0,10.0,87,0.00,,---,0.00,VWS V14.01,2013-02-13 09:09:00,
2013-02-13 03:10:00,39.8,36.2,30.07,WNW,301,0.0,10.0,87,0.00,,---,0.00,VWS V14.01,2013-02-13 09:10:00,
2013-02-13 03:11:00,39.8,36.2,30.08,NW,304,0.0,6.0,87,0.00,,---,0.00,VWS V14.01,2013-02-13 09:11:00,
2013-02-13 03:12:00,39.8,36.2,30.07,NW,313,4.0,10.0,87,0.00,,---,0.00,VWS V14.01,2013-02-13 09:12:00,
2013-02-13 03:13:00,39.8,36.2,30.08,NW,323,3.0,6.0,87,0.00,,---,0.00,VWS V14.01,2013-02-13 09:13:00,
2013-02-13 03:14:00,39.8,36.2,30.07,NW,307,5.0,6.0,87,0.00,,---,0.00,VWS V14.01,2013-02-13 09:14:00,
2013-02-13 03:15:00,39.8,36.2,30.08,NW,307,4.0,6.0,87,0.00,,---,0.00,VWS V14.01,2013-02-13 09:15:00,
2013-02-13 03:16:00,39.8,36.2,30.08,NW,321,1.0,6.0,87,0.00,,---,0.00,VWS V14.01,2013-02-13 09:16:00,
2013-02-13 03:17:00,39.8,36.2,30.08,WNW,302,0.0,6.0,87,0.00,,---,0.00,VWS V14.01,2013-02-13 09:17:00,
2013-02-13 03:18:00,39.8,36.2,30.08,NNW,332,2.0,6.0,87,0.00,,---,0.00,VWS V14.01,2013-02-13 09:18:00,
2013-02-13 03:19:00,39.8,36.2,30.08,NW,321,0.0,6.0,87,0.00,,---,0.00,VWS V14.01,2013-02-13 09:19:00,
2013-02-13 03:20:00,39.8,36.2,30.08,NW,321,0.0,6.0,87,0.00,,---,0.00,VWS V14.01,2013-02-13 09:20:00,
2013-02-13 03:21:00,39.8,36.2,30.08,NW,315,2.0,12.0,87,0.00,,---,0.00,VWS V14.01,2013-02-13 09:21:00,
2013-02-13 03:22:00,39.8,36.2,30.08,NW,321,0.0,6.0,87,0.00,,---,0.00,VWS V14.01,2013-02-13 09:22:00,
2013-02-13 03:23:00,39.8,36.2,30.08,NW,319,0.0,5.0,87,0.00,,---,0.00,VWS V14.01,2013-02-13 09:23:00,
2013-02-13 03:24:00,39.8,36.2,30.08,WNW,292,4.0,12.0,87,0.00,,---,0.00,VWS V14.01,2013-02-13 09:24:00,
2013-02-13 03:25:00,39.8,36.2,30.08,NNW,330,4.0,12.0,87,0.00,,---,0.00,VWS V14.01,2013-02-13 09:25:00,
2013-02-13 03:26:00,39.8,36.2,30.08,West,276,0.0,11.0,87,0.00,,---,0.00,VWS V14.01,2013-02-13 09:26:00,
2013-02-13 03:27:00,39.8,36.2,30.08,WNW,290,1.0,12.0,87,0.00,,---,0.00,VWS V14.01,2013-02-13 09:27:00,
2013-02-13 03:29:00,39.8,36.2,30.08,WNW,303,2.0,11.0,87,0.00,,---,0.00,VWS V14.01,2013-02-13 09:29:00,
2013-02-13 03:30:00,39.8,36.2,30.08,West,275,2.0,11.0,87,0.00,,---,0.00,VWS V14.01,2013-02-13 09:30:00,
2013-02-13 03:31:00,39.8,36.2,30.08,WNW,303,4.0,6.0,87,0.00,,---,0.00,VWS V14.01,2013-02-13 09:31:00,
2013-02-13 03:32:00,39.7,36.2,30.08,NNW,327,0.0,11.0,87,0.00,,---,0.00,VWS V14.01,2013-02-13 09:32:00,
2013-02-13 03:33:00,39.7,36.2,30.08,WNW,300,0.0,11.0,87,0.00,,---,0.00,VWS V14.01,2013-02-13 09:33:00,
2013-02-13 03:34:00,39.8,36.2,30.08,WNW,300,1.0,11.0,87,0.00,,---,0.00,VWS V14.01,2013-02-13 09:34:00,
2013-02-13 03:36:00,39.8,36.2,30.08,WNW,295,3.0,9.0,87,0.00,,---,0.00,VWS V14.01,2013-02-13 09:36:00,
2013-02-13 03:37:00,39.8,36.2,30.08,WNW,293,0.0,6.0,87,0.00,,---,0.00,VWS V14.01,2013-02-13 09:37:00,
2013-02-13 03:38:00,39.8,36.2,30.08,NW,317,9.0,9.0,87,0.00,,---,0.00,VWS V14.01,2013-02-13 09:38:00,
2013-02-13 03:39:00,39.8,36.2,30.08,WNW,283,0.0,9.0,87,0.00,,---,0.00,VWS V14.01,2013-02-13 09:39:00,
2013-02-13 03:40:00,39.8,36.2,30.08,WNW,296,5.0,9.0,87,0.00,,---,0.00,VWS V14.01,2013-02-13 09:40:00,
2013-02-13 03:41:00,39.8,36.0,30.08,NNW,328,2.0,12.0,86,0.01,,---,0.01,VWS V14.01,2013-02-13 09:41:00,
2013-02-13 03:43:00,39.8,36.0,30.08,NNW,340,7.0,12.0,86,0.00,,---,0.00,VWS V14.01,2013-02-13 09:43:00,
2013-02-13 03:44:00,39.8,36.0,30.08,WNW,292,3.0,12.0,86,0.01,,---,0.01,VWS V14.01,2013-02-13 09:44:00,
2013-02-13 03:45:00,39.8,36.0,30.08,NW,304,5.0,12.0,86,0.01,,---,0.01,VWS V14.01,2013-02-13 09:45:00,
2013-02-13 03:46:00,39.7,35.9,30.08,NW,308,2.0,9.0,86,0.01,,---,0.01,VWS V14.01,2013-02-13 09:46:00,
2013-02-13 03:47:00,39.7,35.9,30.08,NW,316,1.0,10.0,86,0.01,,---,0.01,VWS V14.01,2013-02-13 09:47:00,
2013-02-13 03:48:00,39.7,35.9,30.08,NNW,327,3.0,10.0,86,0.01,,---,0.01,VWS V14.01,2013-02-13 09:48:00,
2013-02-13 03:49:00,39.7,35.9,30.08,NW,325,2.0,9.0,86,0.01,,---,0.01,VWS V14.01,2013-02-13 09:49:00,
2013-02-13 03:51:00,39.7,35.9,30.08,NNW,330,0.0,10.0,86,0.01,,---,0.01,VWS V14.01,2013-02-13 09:51:00,
2013-02-13 03:53:00,39.7,35.9,30.08,NW,305,0.0,10.0,86,0.01,,---,0.01,VWS V14.01,2013-02-13 09:53:00,
2013-02-13 03:54:00,39.7,35.9,30.08,North,9,6.0,10.0,86,0.01,,---,0.01,VWS V14.01,2013-02-13 09:54:00,
2013-02-13 03:55:00,39.7,35.9,30.08,NNW,329,2.0,10.0,86,0.01,,---,0.01,VWS V14.01,2013-02-13 09:55:00,
2013-02-13 03:56:00,39.7,35.9,30.08,NW,317,4.0,11.0,86,0.01,,---,0.01,VWS V14.01,2013-02-13 09:56:00,
2013-02-13 03:57:00,39.7,35.9,30.08,NW,323,6.0,11.0,86,0.01,,---,0.01,VWS V14.01,2013-02-13 09:57:00,
2013-02-13 03:58:00,39.7,35.9,30.08,WSW,249,2.0,11.0,86,0.01,,---,0.01,VWS V14.01,2013-02-13 09:58:00,
2013-02-13 03:59:00,39.7,35.9,30.08,NW,325,3.0,11.0,86,0.01,,---,0.01,VWS V14.01,2013-02-13 09:59:00,
2013-02-13 04:00:00,39.7,35.9,30.08,WNW,302,2.0,11.0,86,0.01,,---,0.01,VWS V14.01,2013-02-13 10:00:00,
2013-02-13 04:01:00,39.7,35.9,30.08,NNW,342,4.0,10.0,86,0.01,,---,0.01,VWS V14.01,2013-02-13 10:01:00,
2013-02-13 04:02:00,39.7,35.9,30.08,North,5,7.0,11.0,86,0.01,,---,0.01,VWS V14.01,2013-02-13 10:02:00,
2013-02-13 04:03:00,39.7,35.9,30.08,WNW,294,5.0,10.0,86,0.01,,---,0.01,VWS V14.01,2013-02-13 10:03:00,
2013-02-13 04:04:00,39.7,35.9,30.08,NW,313,3.0,10.0,86,0.01,,---,0.01,VWS V14.01,2013-02-13 10:04:00,
2013-02-13 04:06:00,39.6,36.1,30.08,NNW,338,0.0,6.0,87,0.01,,---,0.01,VWS V14.01,2013-02-13 10:06:00,
2013-02-13 04:07:00,39.7,35.9,30.08,NW,320,4.0,9.0,86,0.01,,---,0.01,VWS V14.01,2013-02-13 10:07:00,
2013-02-13 04:08:00,39.6,35.8,30.08,NW,314,0.0,9.0,86,0.01,,---,0.01,VWS V14.01,2013-02-13 10:08:00,
2013-02-13 04:09:00,39.7,35.9,30.08,NW,314,3.0,9.0,86,0.01,,---,0.01,VWS V14.01,2013-02-13 10:09:00,
2013-02-13 04:10:00,39.6,35.8,30.08,NNW,335,2.0,6.0,86,0.01,,---,0.01,VWS V14.01,2013-02-13 10:10:00,
2013-02-13 04:11:00,39.6,36.1,30.08,NW,322,1.0,7.0,87,0.01,,---,0.01,VWS V14.01,2013-02-13 10:11:00,
2013-02-13 04:12:00,39.6,36.1,30.08,NNW,327,3.0,7.0,87,0.01,,---,0.01,VWS V14.01,2013-02-13 10:12:00,
2013-02-13 04:13:00,39.6,36.1,30.08,NW,326,1.0,7.0,87,0.01,,---,0.01,VWS V14.01,2013-02-13 10:13:00,
2013-02-13 04:14:00,39.6,36.1,30.08,NW,326,4.0,7.0,87,0.01,,---,0.01,VWS V14.01,2013-02-13 10:14:00,
2013-02-13 04:15:00,39.6,36.1,30.08,NW,325,2.0,7.0,87,0.01,,---,0.01,VWS V14.01,2013-02-13 10:15:00,
2013-02-13 04:16:00,39.7,36.2,30.08,NW,305,4.0,6.0,87,0.01,,---,0.01,VWS V14.01,2013-02-13 10:16:00,
2013-02-13 04:17:00,39.6,36.1,30.08,WNW,292,0.0,6.0,87,0.01,,---,0.01,VWS V14.01,2013-02-13 10:17:00,
2013-02-13 04:18:00,39.7,36.2,30.08,WNW,292,0.0,6.0,87,0.01,,---,0.01,VWS V14.01,2013-02-13 10:18:00,
2013-02-13 04:19:00,39.7,36.2,30.08,WNW,292,1.0,6.0,87,0.01,,---,0.01,VWS V14.01,2013-02-13 10:19:00,
2013-02-13 04:20:00,39.6,36.1,30.08,NW,305,0.0,6.0,87,0.01,,---,0.01,VWS V14.01,2013-02-13 10:20:00,
2013-02-13 04:21:00,39.7,36.2,30.08,WNW,301,1.0,5.0,87,0.01,,---,0.01,VWS V14.01,2013-02-13 10:21:00,
2013-02-13 04:22:00,39.7,36.2,30.08,NW,305,0.0,5.0,87,0.01,,---,0.01,VWS V14.01,2013-02-13 10:22:00,
2013-02-13 04:23:00,39.7,36.2,30.08,NW,305,0.0,5.0,87,0.01,,---,0.01,VWS V14.01,2013-02-13 10:23:00,
2013-02-13 04:24:00,39.7,36.2,30.08,WNW,284,0.0,5.0,87,0.01,,---,0.01,VWS V14.01,2013-02-13 10:24:00,
2013-02-13 04:25:00,39.7,36.2,30.08,WNW,301,0.0,5.0,87,0.01,,---,0.01,VWS V14.01,2013-02-13 10:25:00,
2013-02-13 04:26:00,39.7,36.2,30.08,NW,306,5.0,6.0,87,0.01,,---,0.01,VWS V14.01,2013-02-13 10:26:00,
2013-02-13 04:27:00,39.7,36.2,30.08,NNW,327,4.0,6.0,87,0.01,,---,0.01,VWS V14.01,2013-02-13 10:27:00,
2013-02-13 04:28:00,39.7,36.2,30.08,NW,319,0.0,6.0,87,0.01,,---,0.01,VWS V14.01,2013-02-13 10:28:00,
2013-02-13 04:29:00,39.7,36.2,30.08,NW,319,2.0,6.0,87,0.01,,---,0.01,VWS V14.01,2013-02-13 10:29:00,
2013-02-13 04:30:00,39.7,36.2,30.08,NW,321,1.0,6.0,87,0.01,,---,0.01,VWS V14.01,2013-02-13 10:30:00,
2013-02-13 04:31:00,39.7,36.2,30.08,NW,306,0.0,5.0,87,0.01,,---,0.01,VWS V14.01,2013-02-13 10:31:00,
2013-02-13 04:32:00,39.7,36.2,30.08,WNW,290,0.0,5.0,87,0.01,,---,0.01,VWS V14.01,2013-02-13 10:32:00,
2013-02-13 04:36:00,39.7,36.2,30.08,NNW,329,0.0,8.0,87,0.01,,---,0.01,VWS V14.01,2013-02-13 10:36:00,
2013-02-13 04:37:00,39.8,36.2,30.08,NW,309,5.0,5.0,87,0.01,,---,0.01,VWS V14.01,2013-02-13 10:37:00,
2013-02-13 04:38:00,39.8,36.2,30.08,NW,309,2.0,5.0,87,0.01,,---,0.01,VWS V14.01,2013-02-13 10:38:00,
2013-02-13 04:40:00,39.7,36.2,30.08,North,349,3.0,8.0,87,0.01,,---,0.01,VWS V14.01,2013-02-13 10:40:00,
2013-02-13 04:41:00,39.7,35.9,30.08,North,355,2.0,6.0,86,0.00,,---,0.01,VWS V14.01,2013-02-13 10:41:00,
2013-02-13 04:42:00,39.7,35.9,30.08,NNW,330,2.0,8.0,86,0.01,,---,0.01,VWS V14.01,2013-02-13 10:42:00,
2013-02-13 04:43:00,39.7,35.9,30.08,NW,323,0.0,8.0,86,0.01,,---,0.01,VWS V14.01,2013-02-13 10:43:00,
2013-02-13 04:44:00,39.7,35.9,30.08,NNW,328,3.0,8.0,86,0.01,,---,0.01,VWS V14.01,2013-02-13 10:44:00,
2013-02-13 04:45:00,39.7,35.9,30.08,NNW,328,0.0,7.0,86,0.00,,---,0.01,VWS V14.01,2013-02-13 10:45:00,
2013-02-13 04:46:00,39.6,35.8,30.08,NNW,338,0.0,9.0,86,0.00,,---,0.01,VWS V14.01,2013-02-13 10:46:00,
2013-02-13 04:48:00,39.6,35.8,30.08,WNW,303,1.0,9.0,86,0.00,,---,0.01,VWS V14.01,2013-02-13 10:48:00,
2013-02-13 04:49:00,39.6,35.8,30.08,NNW,338,2.0,9.0,86,0.00,,---,0.01,VWS V14.01,2013-02-13 10:49:00,
2013-02-13 04:51:00,39.5,35.7,30.08,NNW,327,0.0,7.0,86,0.00,,---,0.01,VWS V14.01,2013-02-13 10:51:00,
2013-02-13 04:52:00,39.6,35.8,30.08,NNW,337,4.0,7.0,86,0.00,,---,0.01,VWS V14.01,2013-02-13 10:52:00,
2013-02-13 04:53:00,39.6,35.8,30.08,NNW,327,2.0,7.0,86,0.00,,---,0.01,VWS V14.01,2013-02-13 10:53:00,
2013-02-13 04:54:00,39.5,35.7,30.08,NNW,327,2.0,7.0,86,0.00,,---,0.01,VWS V14.01,2013-02-13 10:54:00,
2013-02-13 04:55:00,39.5,35.7,30.08,NNW,327,0.0,7.0,86,0.00,,---,0.01,VWS V14.01,2013-02-13 10:55:00,
2013-02-13 04:56:00,39.5,35.7,30.08,NW,324,2.0,6.0,86,0.00,,---,0.01,VWS V14.01,2013-02-13 10:56:00,
2013-02-13 04:57:00,39.5,35.7,30.08,NNW,342,3.0,6.0,86,0.00,,---,0.01,VWS V14.01,2013-02-13 10:57:00,
2013-02-13 04:58:00,39.5,35.7,30.08,NNW,340,6.0,6.0,86,0.00,,---,0.01,VWS V14.01,2013-02-13 10:58:00,
2013-02-13 04:59:00,39.5,35.7,30.08,NNW,329,0.0,6.0,86,0.00,,---,0.01,VWS V14.01,2013-02-13 10:59:00,
2013-02-13 05:00:00,39.5,35.7,30.08,NW,325,5.0,6.0,86,0.00,,---,0.01,VWS V14.01,2013-02-13 11:00:00,
2013-02-13 05:01:00,39.4,35.6,30.08,NW,323,1.0,7.0,86,0.00,,---,0.01,VWS V14.01,2013-02-13 11:01:00,
2013-02-13 05:02:00,39.5,35.7,30.08,NW,324,2.0,6.0,86,0.00,,---,0.01,VWS V14.01,2013-02-13 11:02:00,
2013-02-13 05:03:00,39.5,35.7,30.08,NW,323,0.0,7.0,86,0.00,,---,0.01,VWS V14.01,2013-02-13 11:03:00,
2013-02-13 05:04:00,39.4,35.6,30.08,NNW,329,0.0,7.0,86,0.00,,---,0.01,VWS V14.01,2013-02-13 11:04:00,
2013-02-13 05:06:00,39.4,35.6,30.09,NW,325,2.0,10.0,86,0.00,,---,0.01,VWS V14.01,2013-02-13 11:06:00,
2013-02-13 05:07:00,39.4,35.6,30.09,North,355,4.0,7.0,86,0.00,,---,0.01,VWS V14.01,2013-02-13 11:07:00,
2013-02-13 05:08:00,39.4,35.6,30.08,NNW,339,9.0,10.0,86,0.00,,---,0.01,VWS V14.01,2013-02-13 11:08:00,
2013-02-13 05:09:00,39.4,35.6,30.09,NW,323,2.0,10.0,86,0.00,,---,0.01,VWS V14.01,2013-02-13 11:09:00,
2013-02-13 05:10:00,39.4,35.6,30.09,NW,325,3.0,10.0,86,0.00,,---,0.01,VWS V14.01,2013-02-13 11:10:00,
2013-02-13 05:11:00,39.3,35.8,30.10,NW,322,3.0,6.0,87,0.00,,---,0.01,VWS V14.01,2013-02-13 11:11:00,
2013-02-13 05:12:00,39.4,35.6,30.09,NW,319,0.0,10.0,86,0.00,,---,0.01,VWS V14.01,2013-02-13 11:12:00,
2013-02-13 05:13:00,39.3,35.5,30.09,NW,326,1.0,9.0,86,0.00,,---,0.01,VWS V14.01,2013-02-13 11:13:00,
2013-02-13 05:15:00,39.4,35.9,30.10,NNW,334,1.0,6.0,87,0.00,,---,0.01,VWS V14.01,2013-02-13 11:15:00,
2013-02-13 05:16:00,39.3,35.8,30.10,NW,306,2.0,7.0,87,0.00,,---,0.01,VWS V14.01,2013-02-13 11:16:00,
2013-02-13 05:17:00,39.3,35.8,30.10,NW,315,0.0,7.0,87,0.00,,---,0.01,VWS V14.01,2013-02-13 11:17:00,
2013-02-13 05:18:00,39.3,35.8,30.10,NW,313,4.0,7.0,87,0.00,,---,0.01,VWS V14.01,2013-02-13 11:18:00,
2013-02-13 05:19:00,39.3,35.8,30.10,WNW,298,3.0,7.0,87,0.00,,---,0.01,VWS V14.01,2013-02-13 11:19:00,
2013-02-13 05:20:00,39.3,35.8,30.10,NW,306,2.0,7.0,87,0.00,,---,0.01,VWS V14.01,2013-02-13 11:20:00,
2013-02-13 05:21:00,39.3,35.5,30.10,NW,313,0.0,4.0,86,0.00,,---,0.01,VWS V14.01,2013-02-13 11:21:00,
2013-02-13 05:23:00,39.3,35.5,30.10,NW,306,0.0,5.0,86,0.00,,---,0.01,VWS V14.01,2013-02-13 11:23:00,
2013-02-13 05:24:00,39.3,35.8,30.10,NW,313,4.0,5.0,87,0.00,,---,0.01,VWS V14.01,2013-02-13 11:24:00,
2013-02-13 05:25:00,39.3,35.5,30.10,NW,313,0.0,4.0,86,0.00,,---,0.01,VWS V14.01,2013-02-13 11:25:00,
2013-02-13 05:26:00,39.3,35.8,30.10,NW,314,3.0,4.0,87,0.00,,---,0.01,VWS V14.01,2013-02-13 11:26:00,
2013-02-13 05:28:00,39.3,35.8,30.10,NW,313,2.0,4.0,87,0.00,,---,0.01,VWS V14.01,2013-02-13 11:28:00,
2013-02-13 05:29:00,39.3,35.8,30.10,NW,311,4.0,4.0,87,0.00,,---,0.01,VWS V14.01,2013-02-13 11:29:00,
2013-02-13 05:30:00,39.3,35.8,30.10,NW,314,3.0,4.0,87,0.00,,---,0.01,VWS V14.01,2013-02-13 11:30:00,
2013-02-13 05:31:00,39.3,35.8,30.10,WNW,298,0.0,7.0,87,0.00,,---,0.01,VWS V14.01,2013-02-13 11:31:00,
2013-02-13 05:32:00,39.3,35.8,30.10,NW,307,1.0,6.0,87,0.00,,---,0.01,VWS V14.01,2013-02-13 11:32:00,
2013-02-13 05:33:00,39.2,35.7,30.10,WNW,284,3.0,7.0,87,0.00,,---,0.01,VWS V14.01,2013-02-13 11:33:00,
2013-02-13 05:34:00,39.3,35.8,30.10,WNW,298,0.0,7.0,87,0.00,,---,0.01,VWS V14.01,2013-02-13 11:34:00,
2013-02-13 05:35:00,39.3,35.8,30.10,WNW,298,0.0,7.0,87,0.00,,---,0.01,VWS V14.01,2013-02-13 11:35:00,
2013-02-13 05:36:00,39.3,35.8,30.11,West,281,0.0,5.0,87,0.00,,---,0.01,VWS V14.01,2013-02-13 11:36:00,
2013-02-13 05:37:00,39.3,35.8,30.10,WNW,298,1.0,7.0,87,0.00,,---,0.01,VWS V14.01,2013-02-13 11:37:00,
2013-02-13 05:38:00,39.3,35.8,30.10,WNW,288,0.0,5.0,87,0.00,,---,0.01,VWS V14.01,2013-02-13 11:38:00,
2013-02-13 05:39:00,39.3,35.8,30.10,WNW,289,0.0,5.0,87,0.00,,---,0.01,VWS V14.01,2013-02-13 11:39:00,
2013-02-13 05:40:00,39.3,35.8,30.10,West,281,3.0,5.0,87,0.00,,---,0.01,VWS V14.01,2013-02-13 11:40:00,
2013-02-13 05:41:00,39.3,35.8,30.11,WNW,287,0.0,5.0,87,0.00,,---,0.01,VWS V14.01,2013-02-13 11:41:00,
2013-02-13 05:42:00,39.3,35.8,30.11,West,281,1.0,5.0,87,0.00,,---,0.01,VWS V14.01,2013-02-13 11:42:00,
2013-02-13 05:43:00,39.3,35.8,30.10,WNW,283,4.0,5.0,87,0.00,,---,0.01,VWS V14.01,2013-02-13 11:43:00,
2013-02-13 05:44:00,39.3,35.8,30.10,WNW,283,4.0,5.0,87,0.00,,---,0.01,VWS V14.01,2013-02-13 11:44:00,
2013-02-13 05:45:00,39.3,36.0,30.10,WNW,287,2.0,5.0,88,0.00,,---,0.01,VWS V14.01,2013-02-13 11:45:00,
2013-02-13 05:46:00,39.2,35.7,30.11,WNW,300,5.0,9.0,87,0.00,,---,0.01,VWS V14.01,2013-02-13 11:46:00,
2013-02-13 05:47:00,39.3,35.8,30.11,West,275,4.0,9.0,87,0.00,,---,0.01,VWS V14.01,2013-02-13 11:47:00,
2013-02-13 05:48:00,39.2,35.7,30.10,West,277,0.0,9.0,87,0.00,,---,0.01,VWS V14.01,2013-02-13 11:48:00,
2013-02-13 05:49:00,39.3,35.8,30.10,NW,317,7.0,9.0,87,0.00,,---,0.01,VWS V14.01,2013-02-13 11:49:00,
2013-02-13 05:50:00,39.2,35.7,30.11,WNW,290,1.0,9.0,87,0.00,,---,0.01,VWS V14.01,2013-02-13 11:50:00,
2013-02-13 05:51:00,39.2,35.7,30.11,NW,311,0.0,5.0,87,0.00,,---,0.01,VWS V14.01,2013-02-13 11:51:00,
2013-02-13 05:52:00,39.2,35.7,30.11,WNW,300,0.0,7.0,87,0.00,,---,0.01,VWS V14.01,2013-02-13 11:52:00,
2013-02-13 05:53:00,39.2,35.7,30.11,NW,311,0.0,7.0,87,0.00,,---,0.01,VWS V14.01,2013-02-13 11:53:00,
2013-02-13 05:54:00,39.2,35.7,30.11,NW,311,0.0,7.0,87,0.00,,---,0.01,VWS V14.01,2013-02-13 11:54:00,
2013-02-13 05:55:00,39.2,35.7,30.11,NW,311,0.0,5.0,87,0.00,,---,0.01,VWS V14.01,2013-02-13 11:55:00,
2013-02-13 05:56:00,39.2,36.0,30.11,NW,311,0.0,4.0,88,0.00,,---,0.01,VWS V14.01,2013-02-13 11:56:00,
2013-02-13 05:57:00,39.2,35.7,30.11,NW,310,0.0,5.0,87,0.00,,---,0.01,VWS V14.01,2013-02-13 11:57:00,
2013-02-13 05:58:00,39.2,35.7,30.11,NW,311,2.0,4.0,87,0.00,,---,0.01,VWS V14.01,2013-02-13 11:58:00,
2013-02-13 05:59:00,39.2,36.0,30.11,NW,311,0.0,4.0,88,0.00,,---,0.01,VWS V14.01,2013-02-13 11:59:00,
2013-02-13 06:00:00,39.2,36.0,30.11,NW,311,2.0,4.0,88,0.00,,---,0.01,VWS V14.01,2013-02-13 12:00:00,
2013-02-13 06:01:00,39.2,35.7,30.11,NW,311,0.0,6.0,87,0.00,,---,0.01,VWS V14.01,2013-02-13 12:01:00,
2013-02-13 06:02:00,39.2,35.7,30.10,NW,311,1.0,4.0,87,0.00,,---,0.01,VWS V14.01,2013-02-13 12:02:00,
2013-02-13 06:03:00,39.2,35.7,30.11,NW,311,1.0,6.0,87,0.00,,---,0.01,VWS V14.01,2013-02-13 12:03:00,
2013-02-13 06:04:00,39.2,35.7,30.11,NW,311,0.0,6.0,87,0.00,,---,0.01,VWS V14.01,2013-02-13 12:04:00,
2013-02-13 06:05:00,39.2,35.7,30.11,NW,311,2.0,6.0,87,0.00,,---,0.01,VWS V14.01,2013-02-13 12:05:00,
2013-02-13 06:06:00,39.2,35.7,30.11,NW,312,0.0,4.0,87,0.00,,---,0.01,VWS V14.01,2013-02-13 12:06:00,
2013-02-13 06:07:00,39.2,35.7,30.10,NW,312,4.0,6.0,87,0.00,,---,0.01,VWS V14.01,2013-02-13 12:07:00,
2013-02-13 06:08:00,39.2,35.7,30.11,NW,312,0.0,4.0,87,0.00,,---,0.01,VWS V14.01,2013-02-13 12:08:00,
2013-02-13 06:09:00,39.1,35.6,30.11,NW,312,0.0,4.0,87,0.00,,---,0.01,VWS V14.01,2013-02-13 12:09:00,
2013-02-13 06:10:00,39.2,35.7,30.11,NW,312,0.0,4.0,87,0.00,,---,0.01,VWS V14.01,2013-02-13 12:10:00,
2013-02-13 06:11:00,39.2,35.7,30.11,NW,312,0.0,2.0,87,0.00,,---,0.01,VWS V14.01,2013-02-13 12:11:00,
2013-02-13 06:12:00,39.2,35.7,30.11,NW,312,0.0,4.0,87,0.00,,---,0.01,VWS V14.01,2013-02-13 12:12:00,
2013-02-13 06:13:00,39.2,35.7,30.11,NW,312,0.0,2.0,87,0.00,,---,0.01,VWS V14.01,2013-02-13 12:13:00,
2013-02-13 06:14:00,39.1,35.6,30.11,NW,312,2.0,2.0,87,0.00,,---,0.01,VWS V14.01,2013-02-13 12:14:00,
2013-02-13 06:15:00,39.1,35.6,30.11,NW,312,1.0,2.0,87,0.00,,---,0.01,VWS V14.01,2013-02-13 12:15:00,
2013-02-13 06:16:00,39.2,35.7,30.11,NW,313,0.0,4.0,87,0.00,,---,0.01,VWS V14.01,2013-02-13 12:16:00,
2013-02-13 06:17:00,39.2,35.7,30.11,NW,313,0.0,3.0,87,0.00,,---,0.01,VWS V14.01,2013-02-13 12:17:00,
2013-02-13 06:18:00,39.2,35.7,30.11,NW,313,0.0,3.0,87,0.00,,---,0.01,VWS V14.01,2013-02-13 12:18:00,
2013-02-13 06:19:00,39.2,35.7,30.11,NW,313,2.0,3.0,87,0.00,,---,0.01,VWS V14.01,2013-02-13 12:19:00,
2013-02-13 06:20:00,39.2,35.7,30.11,NW,313,1.0,3.0,87,0.00,,---,0.01,VWS V14.01,2013-02-13 12:20:00,
2013-02-13 06:21:00,39.2,35.7,30.11,NW,313,0.0,3.0,87,0.00,,---,0.01,VWS V14.01,2013-02-13 12:21:00,
2013-02-13 06:22:00,39.2,35.7,30.11,NW,313,2.0,4.0,87,0.00,,---,0.01,VWS V14.01,2013-02-13 12:22:00,
2013-02-13 06:23:00,39.2,35.7,30.11,NW,313,0.0,4.0,87,0.00,,---,0.01,VWS V14.01,2013-02-13 12:23:00,
2013-02-13 06:24:00,39.2,35.7,30.11,NW,313,0.0,4.0,87,0.00,,---,0.01,VWS V14.01,2013-02-13 12:24:00,
2013-02-13 06:25:00,39.2,35.7,30.11,NW,313,0.0,4.0,87,0.00,,---,0.01,VWS V14.01,2013-02-13 12:25:00,
2013-02-13 06:26:00,39.2,35.7,30.11,NW,313,1.0,2.0,87,0.00,,---,0.01,VWS V14.01,2013-02-13 12:26:00,
2013-02-13 06:27:00,39.2,35.7,30.11,NW,313,0.0,3.0,87,0.00,,---,0.01,VWS V14.01,2013-02-13 12:27:00,
2013-02-13 06:28:00,39.2,35.7,30.11,NW,313,0.0,2.0,87,0.00,,---,0.01,VWS V14.01,2013-02-13 12:28:00,
2013-02-13 06:29:00,39.2,35.7,30.11,NW,313,1.0,2.0,87,0.00,,---,0.01,VWS V14.01,2013-02-13 12:29:00,
2013-02-13 06:30:00,39.2,35.7,30.11,NW,313,0.0,2.0,87,0.00,,---,0.01,VWS V14.01,2013-02-13 12:30:00,
2013-02-13 06:31:00,39.3,36.0,30.11,NW,313,0.0,1.0,88,0.00,,---,0.01,VWS V14.01,2013-02-13 12:31:00,
2013-02-13 06:32:00,39.3,35.8,30.11,NW,313,0.0,2.0,87,0.00,,---,0.01,VWS V14.01,2013-02-13 12:32:00,
2013-02-13 06:33:00,39.2,35.7,30.11,NW,313,0.0,2.0,87,0.00,,---,0.01,VWS V14.01,2013-02-13 12:33:00,
2013-02-13 06:34:00,39.2,35.7,30.11,NW,313,0.0,2.0,87,0.00,,---,0.01,VWS V14.01,2013-02-13 12:34:00,
2013-02-13 06:35:00,39.3,35.8,30.11,NW,313,0.0,2.0,87,0.00,,---,0.01,VWS V14.01,2013-02-13 12:35:00,
2013-02-13 06:36:00,39.3,36.0,30.11,NW,311,0.0,3.0,88,0.00,,---,0.01,VWS V14.01,2013-02-13 12:36:00,
2013-02-13 06:37:00,39.3,36.0,30.11,NW,313,0.0,2.0,88,0.00,,---,0.01,VWS V14.01,2013-02-13 12:37:00,
2013-02-13 06:38:00,39.3,36.0,30.10,NW,311,2.0,3.0,88,0.00,,---,0.01,VWS V14.01,2013-02-13 12:38:00,
2013-02-13 06:39:00,39.3,36.0,30.11,NW,311,0.0,3.0,88,0.00,,---,0.01,VWS V14.01,2013-02-13 12:39:00,
2013-02-13 06:40:00,39.3,36.0,30.11,NW,311,0.0,3.0,88,0.00,,---,0.01,VWS V14.01,2013-02-13 12:40:00,
2013-02-13 06:41:00,39.3,36.0,30.11,NW,311,0.0,5.0,88,0.00,,---,0.01,VWS V14.01,2013-02-13 12:41:00,
2013-02-13 06:42:00,39.3,36.0,30.11,NW,311,1.0,3.0,88,0.00,,---,0.01,VWS V14.01,2013-02-13 12:42:00,
2013-02-13 06:43:00,39.3,36.0,30.11,NW,311,0.0,4.0,88,0.00,,---,0.01,VWS V14.01,2013-02-13 12:43:00,
2013-02-13 06:44:00,39.3,36.0,30.11,NW,311,0.0,4.0,88,0.00,,---,0.01,VWS V14.01,2013-02-13 12:44:00,
2013-02-13 06:45:00,39.3,36.0,30.11,NW,311,1.0,4.0,88,0.00,,---,0.01,VWS V14.01,2013-02-13 12:45:00,
2013-02-13 06:46:00,39.3,35.8,30.11,West,279,3.0,6.0,87,0.00,,---,0.01,VWS V14.01,2013-02-13 12:46:00,
2013-02-13 06:47:00,39.3,35.8,30.11,NW,311,2.0,5.0,87,0.00,,---,0.01,VWS V14.01,2013-02-13 12:47:00,
2013-02-13 06:48:00,39.3,35.8,30.11,NW,311,2.0,5.0,87,0.00,,---,0.01,VWS V14.01,2013-02-13 12:48:00,
2013-02-13 06:49:00,39.3,35.8,30.11,NW,311,0.0,5.0,87,0.00,,---,0.01,VWS V14.01,2013-02-13 12:49:00,
2013-02-13 06:50:00,39.3,35.8,30.11,West,277,0.0,6.0,87,0.00,,---,0.01,VWS V14.01,2013-02-13 12:50:00,
2013-02-13 06:51:00,39.3,35.8,30.11,West,281,3.0,4.0,87,0.00,,---,0.01,VWS V14.01,2013-02-13 12:51:00,
2013-02-13 06:52:00,39.3,35.8,30.11,West,279,0.0,6.0,87,0.00,,---,0.01,VWS V14.01,2013-02-13 12:52:00,
2013-02-13 06:54:00,39.3,35.8,30.10,West,279,0.0,6.0,87,0.00,,---,0.01,VWS V14.01,2013-02-13 12:54:00,
2013-02-13 06:55:00,39.3,35.8,30.11,West,279,0.0,3.0,87,0.00,,---,0.01,VWS V14.01,2013-02-13 12:55:00,
2013-02-13 06:56:00,39.3,35.5,30.11,NW,313,0.0,6.0,86,0.00,,---,0.01,VWS V14.01,2013-02-13 12:56:00,
2013-02-13 06:57:00,39.3,35.8,30.11,WNW,287,3.0,4.0,87,0.00,,---,0.01,VWS V14.01,2013-02-13 12:57:00,
2013-02-13 06:58:00,39.3,35.8,30.11,NW,326,0.0,6.0,87,0.00,,---,0.01,VWS V14.01,2013-02-13 12:58:00,
2013-02-13 06:59:00,39.3,35.8,30.11,NW,315,3.0,6.0,87,0.00,,---,0.01,VWS V14.01,2013-02-13 12:59:00,
2013-02-13 07:00:00,39.3,35.8,30.11,NW,313,4.0,6.0,87,0.00,,---,0.01,VWS V14.01,2013-02-13 13:00:00,
2013-02-13 07:01:00,39.2,35.4,30.11,NW,309,3.0,6.0,86,0.00,,---,0.01,VWS V14.01,2013-02-13 13:01:00,
2013-02-13 07:02:00,39.2,35.4,30.11,NW,313,0.0,6.0,86,0.00,,---,0.01,VWS V14.01,2013-02-13 13:02:00,
2013-02-13 07:03:00,39.2,35.4,30.11,NW,315,3.0,6.0,86,0.00,,---,0.01,VWS V14.01,2013-02-13 13:03:00,
2013-02-13 07:04:00,39.3,35.5,30.11,NW,313,6.0,6.0,86,0.00,,---,0.01,VWS V14.01,2013-02-13 13:04:00,
2013-02-13 07:05:00,39.2,35.7,30.11,NW,319,0.0,6.0,87,0.00,,---,0.01,VWS V14.01,2013-02-13 13:05:00,
2013-02-13 07:06:00,39.2,35.4,30.12,NW,312,1.0,6.0,86,0.00,,---,0.01,VWS V14.01,2013-02-13 13:06:00,
2013-02-13 07:07:00,39.2,35.4,30.11,NW,313,2.0,6.0,86,0.00,,---,0.01,VWS V14.01,2013-02-13 13:07:00,
2013-02-13 07:08:00,39.2,35.4,30.11,NW,312,2.0,6.0,86,0.00,,---,0.01,VWS V14.01,2013-02-13 13:08:00,
2013-02-13 07:09:00,39.2,35.4,30.12,NW,312,0.0,6.0,86,0.00,,---,0.01,VWS V14.01,2013-02-13 13:09:00,
2013-02-13 07:10:00,39.2,35.4,30.11,NW,312,1.0,6.0,86,0.00,,---,0.01,VWS V14.01,2013-02-13 13:10:00,
2013-02-13 07:11:00,39.1,35.3,30.12,North,355,1.0,7.0,86,0.00,,---,0.01,VWS V14.01,2013-02-13 13:11:00,
2013-02-13 07:12:00,39.1,35.3,30.12,NW,312,0.0,5.0,86,0.00,,---,0.01,VWS V14.01,2013-02-13 13:12:00,
2013-02-13 07:13:00,39.1,35.3,30.12,NW,312,0.0,4.0,86,0.00,,---,0.01,VWS V14.01,2013-02-13 13:13:00,
2013-02-13 07:14:00,39.1,35.3,30.12,NW,313,5.0,5.0,86,0.00,,---,0.01,VWS V14.01,2013-02-13 13:14:00,
2013-02-13 07:15:00,39.1,35.3,30.12,North,351,5.0,5.0,86,0.00,,---,0.01,VWS V14.01,2013-02-13 13:15:00,
2013-02-13 07:16:00,39.1,35.3,30.12,NNW,335,0.0,6.0,86,0.00,,---,0.01,VWS V14.01,2013-02-13 13:16:00,
2013-02-13 07:17:00,39.1,35.3,30.12,NNW,342,3.0,7.0,86,0.00,,---,0.01,VWS V14.01,2013-02-13 13:17:00,
2013-02-13 07:18:00,39.1,35.3,30.12,NNW,340,0.0,7.0,86,0.00,,---,0.01,VWS V14.01,2013-02-13 13:18:00,
2013-02-13 07:19:00,39.1,35.3,30.12,NNW,335,0.0,7.0,86,0.00,,---,0.01,VWS V14.01,2013-02-13 13:19:00,
2013-02-13 07:20:00,39.1,35.3,30.12,NNW,335,1.0,7.0,86,0.00,,---,0.01,VWS V14.01,2013-02-13 13:20:00,
2013-02-13 07:21:00,39.1,35.3,30.12,NW,315,4.0,5.0,86,0.00,,---,0.01,VWS V14.01,2013-02-13 13:21:00,
2013-02-13 07:22:00,39.1,35.3,30.12,NW,323,2.0,6.0,86,0.00,,---,0.01,VWS V14.01,2013-02-13 13:22:00,
2013-02-13 07:23:00,39.1,35.3,30.12,NW,323,0.0,6.0,86,0.00,,---,0.01,VWS V14.01,2013-02-13 13:23:00,
2013-02-13 07:24:00,39.1,35.3,30.12,NW,315,2.0,5.0,86,0.00,,---,0.01,VWS V14.01,2013-02-13 13:24:00,
2013-02-13 07:25:00,39.1,35.3,30.12,NW,315,2.0,5.0,86,0.00,,---,0.01,VWS V14.01,2013-02-13 13:25:00,
2013-02-13 07:26:00,39.1,35.3,30.12,NW,322,2.0,7.0,86,0.00,,---,0.01,VWS V14.01,2013-02-13 13:26:00,
2013-02-13 07:27:00,39.1,35.3,30.12,NW,315,0.0,4.0,86,0.00,,---,0.01,VWS V14.01,2013-02-13 13:27:00,
2013-02-13 07:28:00,39.1,35.3,30.12,NW,315,0.0,4.0,86,0.00,,---,0.01,VWS V14.01,2013-02-13 13:28:00,
2013-02-13 07:29:00,39.1,35.3,30.12,NW,316,0.0,4.0,86,0.00,,---,0.01,VWS V14.01,2013-02-13 13:29:00,
2013-02-13 07:30:00,39.1,35.3,30.12,NW,317,4.0,4.0,86,0.00,,---,0.01,VWS V14.01,2013-02-13 13:30:00,
2013-02-13 07:31:00,39.1,35.3,30.12,NW,317,2.0,5.0,86,0.00,,---,0.01,VWS V14.01,2013-02-13 13:31:00,
2013-02-13 07:32:00,39.1,35.3,30.12,NW,325,3.0,7.0,86,0.00,,---,0.01,VWS V14.01,2013-02-13 13:32:00,
2013-02-13 07:33:00,39.1,35.3,30.12,NW,323,0.0,7.0,86,0.00,,---,0.01,VWS V14.01,2013-02-13 13:33:00,
2013-02-13 07:34:00,39.1,35.3,30.12,NW,323,2.0,7.0,86,0.00,,---,0.01,VWS V14.01,2013-02-13 13:34:00,
2013-02-13 07:35:00,39.1,35.3,30.12,NW,317,5.0,7.0,86,0.00,,---,0.01,VWS V14.01,2013-02-13 13:35:00,
2013-02-13 07:36:00,39.1,35.3,30.13,NW,313,0.0,9.0,86,0.00,,---,0.01,VWS V14.01,2013-02-13 13:36:00,
2013-02-13 07:37:00,39.1,35.3,30.12,NW,318,2.0,5.0,86,0.00,,---,0.01,VWS V14.01,2013-02-13 13:37:00,
2013-02-13 07:38:00,39.1,35.3,30.12,NW,317,2.0,5.0,86,0.00,,---,0.01,VWS V14.01,2013-02-13 13:38:00,
2013-02-13 07:39:00,39.1,35.3,30.13,NW,326,0.0,6.0,86,0.00,,---,0.01,VWS V14.01,2013-02-13 13:39:00,
2013-02-13 07:40:00,39.1,35.3,30.13,NW,326,2.0,6.0,86,0.00,,---,0.01,VWS V14.01,2013-02-13 13:40:00,
2013-02-13 07:41:00,39.2,35.4,30.13,NW,312,0.0,6.0,86,0.00,,---,0.01,VWS V14.01,2013-02-13 13:41:00,
2013-02-13 07:42:00,39.1,35.3,30.13,NW,311,0.0,9.0,86,0.00,,---,0.01,VWS V14.01,2013-02-13 13:42:00,
2013-02-13 07:43:00,39.1,35.3,30.13,NW,311,0.0,9.0,86,0.00,,---,0.01,VWS V14.01,2013-02-13 13:43:00,
2013-02-13 07:44:00,39.1,35.3,30.13,NW,311,0.0,9.0,86,0.00,,---,0.01,VWS V14.01,2013-02-13 13:44:00,
2013-02-13 07:45:00,39.1,35.3,30.13,NW,311,0.0,9.0,86,0.00,,---,0.01,VWS V14.01,2013-02-13 13:45:00,
2013-02-13 07:46:00,39.2,35.4,30.13,NW,320,0.0,5.0,86,0.00,,---,0.01,VWS V14.01,2013-02-13 13:46:00,
2013-02-13 07:47:00,39.2,35.4,30.13,NW,312,0.0,6.0,86,0.00,,---,0.01,VWS V14.01,2013-02-13 13:47:00,
2013-02-13 07:48:00,39.1,35.3,30.13,NW,312,0.0,6.0,86,0.00,,---,0.01,VWS V14.01,2013-02-13 13:48:00,
2013-02-13 07:49:00,39.2,35.4,30.13,NW,312,5.0,6.0,86,0.00,,---,0.01,VWS V14.01,2013-02-13 13:49:00,
2013-02-13 07:50:00,39.2,35.4,30.13,NW,320,0.0,5.0,86,0.00,,---,0.01,VWS V14.01,2013-02-13 13:50:00,
2013-02-13 07:51:00,39.3,35.5,30.13,NW,319,0.0,4.0,86,0.00,,---,0.01,VWS V14.01,2013-02-13 13:51:00,
2013-02-13 07:52:00,39.2,35.4,30.13,NW,319,0.0,5.0,86,0.00,,---,0.01,VWS V14.01,2013-02-13 13:52:00,
2013-02-13 07:53:00,39.2,35.4,30.13,NW,319,0.0,5.0,86,0.00,,---,0.01,VWS V14.01,2013-02-13 13:53:00,
2013-02-13 07:54:00,39.2,35.4,30.13,NW,319,0.0,5.0,86,0.00,,---,0.01,VWS V14.01,2013-02-13 13:54:00,
2013-02-13 07:55:00,39.2,35.4,30.13,NW,319,0.0,4.0,86,0.00,,---,0.01,VWS V14.01,2013-02-13 13:55:00,
2013-02-13 07:56:00,39.3,35.5,30.13,NW,319,0.0,2.0,86,0.00,,---,0.01,VWS V14.01,2013-02-13 13:56:00,
2013-02-13 07:57:00,39.3,35.5,30.13,NW,319,0.0,4.0,86,0.00,,---,0.01,VWS V14.01,2013-02-13 13:57:00,
2013-02-13 07:58:00,39.3,35.8,30.13,NW,319,0.0,4.0,87,0.00,,---,0.01,VWS V14.01,2013-02-13 13:58:00,
2013-02-13 07:59:00,39.3,35.5,30.13,NW,319,0.0,4.0,86,0.00,,---,0.01,VWS V14.01,2013-02-13 13:59:00,
2013-02-13 08:00:00,39.3,35.8,30.13,NW,319,0.0,4.0,87,0.00,,---,0.01,VWS V14.01,2013-02-13 14:00:00,
2013-02-13 08:01:00,39.4,35.9,30.13,NW,319,0.0,3.0,87,0.00,,---,0.01,VWS V14.01,2013-02-13 14:01:00,
2013-02-13 08:02:00,39.3,35.5,30.13,NW,319,1.0,2.0,86,0.00,,---,0.01,VWS V14.01,2013-02-13 14:02:00,
2013-02-13 08:03:00,39.4,35.6,30.13,NW,319,0.0,1.0,86,0.00,,---,0.01,VWS V14.01,2013-02-13 14:03:00,
2013-02-13 08:06:00,39.5,35.7,30.13,NW,319,0.0,0.0,86,0.00,,---,0.01,VWS V14.01,2013-02-13 14:06:00,
2013-02-13 08:07:00,39.5,36.0,30.13,NW,319,0.0,3.0,87,0.00,,---,0.01,VWS V14.01,2013-02-13 14:07:00,
2013-02-13 08:08:00,39.5,36.0,30.13,NW,319,0.0,3.0,87,0.00,,---,0.01,VWS V14.01,2013-02-13 14:08:00,
2013-02-13 08:09:00,39.5,36.0,30.13,NW,319,0.0,3.0,87,0.00,,---,0.01,VWS V14.01,2013-02-13 14:09:00,
2013-02-13 08:10:00,39.5,36.0,30.13,NW,319,0.0,0.0,87,0.00,,---,0.01,VWS V14.01,2013-02-13 14:10:00,
2013-02-13 08:11:00,39.6,35.8,30.13,NW,318,0.0,4.0,86,0.00,,---,0.01,VWS V14.01,2013-02-13 14:11:00,
2013-02-13 08:12:00,39.5,35.7,30.13,NW,318,0.0,4.0,86,0.00,,---,0.01,VWS V14.01,2013-02-13 14:12:00,
2013-02-13 08:13:00,39.6,35.8,30.13,NW,319,4.0,4.0,86,0.00,,---,0.01,VWS V14.01,2013-02-13 14:13:00,
2013-02-13 08:14:00,39.6,35.8,30.13,NW,318,2.0,4.0,86,0.00,,---,0.01,VWS V14.01,2013-02-13 14:14:00,
2013-02-13 08:15:00,39.6,35.8,30.13,NW,318,0.0,4.0,86,0.00,,---,0.01,VWS V14.01,2013-02-13 14:15:00,
2013-02-13 08:16:00,39.7,35.9,30.14,NW,317,0.0,4.0,86,0.00,,---,0.01,VWS V14.01,2013-02-13 14:16:00,
2013-02-13 08:17:00,39.6,35.8,30.14,NW,318,0.0,4.0,86,0.00,,---,0.01,VWS V14.01,2013-02-13 14:17:00,
2013-02-13 08:18:00,39.6,35.8,30.13,NW,318,0.0,4.0,86,0.00,,---,0.01,VWS V14.01,2013-02-13 14:18:00,
2013-02-13 08:19:00,39.7,35.9,30.13,NW,318,0.0,4.0,86,0.00,,---,0.01,VWS V14.01,2013-02-13 14:19:00,
2013-02-13 08:20:00,39.7,35.9,30.14,NW,318,1.0,1.0,86,0.00,,---,0.01,VWS V14.01,2013-02-13 14:20:00,
2013-02-13 08:21:00,39.8,36.0,30.14,NW,317,0.0,1.0,86,0.00,,---,0.01,VWS V14.01,2013-02-13 14:21:00,
2013-02-13 08:22:00,39.7,35.9,30.14,NW,317,0.0,4.0,86,0.00,,---,0.01,VWS V14.01,2013-02-13 14:22:00,
2013-02-13 08:23:00,39.7,35.9,30.14,NW,317,0.0,4.0,86,0.00,,---,0.01,VWS V14.01,2013-02-13 14:23:00,
2013-02-13 08:24:00,39.7,35.9,30.14,NW,317,0.0,4.0,86,0.00,,---,0.01,VWS V14.01,2013-02-13 14:24:00,
2013-02-13 08:25:00,39.7,35.9,30.14,NW,317,0.0,4.0,86,0.00,,---,0.01,VWS V14.01,2013-02-13 14:25:00,
2013-02-13 08:26:00,39.9,35.8,30.14,NW,317,0.0,3.0,85,0.00,,---,0.01,VWS V14.01,2013-02-13 14:26:00,
2013-02-13 08:27:00,39.8,36.0,30.14,NW,317,1.0,3.0,86,0.00,,---,0.01,VWS V14.01,2013-02-13 14:27:00,
2013-02-13 08:28:00,39.8,36.0,30.14,NW,317,0.0,3.0,86,0.00,,---,0.01,VWS V14.01,2013-02-13 14:28:00,
2013-02-13 08:29:00,39.8,36.0,30.14,NW,317,0.0,3.0,86,0.00,,---,0.01,VWS V14.01,2013-02-13 14:29:00,
2013-02-13 08:30:00,39.9,35.8,30.14,NW,317,0.0,3.0,85,0.00,,---,0.01,VWS V14.01,2013-02-13 14:30:00,
2013-02-13 08:31:00,40.0,35.9,30.14,NW,317,0.0,3.0,85,0.00,,---,0.01,VWS V14.01,2013-02-13 14:31:00,
2013-02-13 08:32:00,40.0,35.9,30.14,NW,317,0.0,3.0,85,0.00,,---,0.01,VWS V14.01,2013-02-13 14:32:00,
2013-02-13 08:33:00,40.0,35.9,30.14,NW,317,0.0,3.0,85,0.00,,---,0.01,VWS V14.01,2013-02-13 14:33:00,
2013-02-13 08:34:00,40.0,35.9,30.14,NW,317,0.0,3.0,85,0.00,,---,0.01,VWS V14.01,2013-02-13 14:34:00,
2013-02-13 08:35:00,40.0,35.9,30.14,NW,317,0.0,3.0,85,0.00,,---,0.01,VWS V14.01,2013-02-13 14:35:00,
2013-02-13 08:36:00,40.2,36.3,30.14,WNW,294,3.0,5.0,86,0.00,,---,0.01,VWS V14.01,2013-02-13 14:36:00,
2013-02-13 08:37:00,40.1,36.0,30.14,NW,317,0.0,4.0,85,0.00,,---,0.01,VWS V14.01,2013-02-13 14:37:00,
2013-02-13 08:39:00,40.1,36.3,30.14,WNW,296,1.0,5.0,86,0.00,,---,0.01,VWS V14.01,2013-02-13 14:39:00,
2013-02-13 08:41:00,40.3,36.2,30.15,WNW,295,0.0,3.0,85,0.00,,---,0.01,VWS V14.01,2013-02-13 14:41:00,
2013-02-13 08:43:00,40.2,36.1,30.15,WNW,295,0.0,5.0,85,0.00,,---,0.01,VWS V14.01,2013-02-13 14:43:00,
2013-02-13 08:44:00,40.3,36.2,30.15,WNW,295,0.0,4.0,85,0.00,,---,0.01,VWS V14.01,2013-02-13 14:44:00,
2013-02-13 08:45:00,40.3,36.2,30.15,WNW,295,0.0,3.0,85,0.00,,---,0.01,VWS V14.01,2013-02-13 14:45:00,
2013-02-13 08:46:00,40.3,35.9,30.15,WNW,295,3.0,3.0,84,0.00,,---,0.01,VWS V14.01,2013-02-13 14:46:00,
2013-02-13 08:47:00,40.3,36.2,30.14,WNW,295,0.0,3.0,85,0.00,,---,0.01,VWS V14.01,2013-02-13 14:47:00,
2013-02-13 08:48:00,40.3,36.2,30.15,WNW,295,0.0,3.0,85,0.00,,---,0.01,VWS V14.01,2013-02-13 14:48:00,
2013-02-13 08:49:00,40.3,36.2,30.14,WNW,295,0.0,3.0,85,0.00,,---,0.01,VWS V14.01,2013-02-13 14:49:00,
2013-02-13 08:50:00,40.3,35.9,30.15,WNW,295,1.0,3.0,84,0.00,,---,0.01,VWS V14.01,2013-02-13 14:50:00,
2013-02-13 08:51:00,40.4,36.0,30.15,WNW,295,0.0,4.0,84,0.00,,---,0.01,VWS V14.01,2013-02-13 14:51:00,
2013-02-13 08:52:00,40.4,36.3,30.15,WNW,295,2.0,4.0,85,0.00,,---,0.01,VWS V14.01,2013-02-13 14:52:00,
2013-02-13 08:53:00,40.4,36.3,30.15,WNW,295,0.0,4.0,85,0.00,,---,0.01,VWS V14.01,2013-02-13 14:53:00,
2013-02-13 08:54:00,40.4,36.0,30.15,WNW,295,0.0,4.0,84,0.00,,---,0.01,VWS V14.01,2013-02-13 14:54:00,
2013-02-13 08:55:00,40.4,36.3,30.15,WNW,295,0.0,4.0,85,0.00,,---,0.01,VWS V14.01,2013-02-13 14:55:00,
2013-02-13 08:56:00,40.6,36.2,30.15,WNW,295,0.0,4.0,84,0.00,,---,0.01,VWS V14.01,2013-02-13 14:56:00,
2013-02-13 08:57:00,40.4,36.0,30.15,WNW,295,1.0,3.0,84,0.00,,---,0.01,VWS V14.01,2013-02-13 14:57:00,
2013-02-13 08:58:00,40.5,36.3,30.15,WNW,295,3.0,4.0,85,0.00,,---,0.01,VWS V14.01,2013-02-13 14:58:00,
2013-02-13 08:59:00,40.5,36.3,30.15,WNW,295,0.0,4.0,85,0.00,,---,0.01,VWS V14.01,2013-02-13 14:59:00,
2013-02-13 09:00:00,40.5,36.1,30.15,WNW,295,0.0,4.0,84,0.00,,---,0.01,VWS V14.01,2013-02-13 15:00:00,
2013-02-13 09:01:00,40.7,36.2,30.16,WNW,291,1.0,4.0,84,0.00,,---,0.01,VWS V14.01,2013-02-13 15:01:00,
2013-02-13 09:02:00,40.6,36.5,30.15,WNW,295,0.0,4.0,85,0.00,,---,0.01,VWS V14.01,2013-02-13 15:02:00,
2013-02-13 09:03:00,40.6,36.2,30.15,WNW,295,3.0,4.0,84,0.00,,---,0.01,VWS V14.01,2013-02-13 15:03:00,
2013-02-13 09:04:00,40.7,36.2,30.15,WNW,295,2.0,4.0,84,0.00,,---,0.01,VWS V14.01,2013-02-13 15:04:00,
2013-02-13 09:05:00,40.7,36.2,30.16,WNW,295,2.0,4.0,84,0.00,,---,0.01,VWS V14.01,2013-02-13 15:05:00,
2013-02-13 09:06:00,40.7,36.2,30.16,WNW,291,2.0,4.0,84,0.00,,---,0.01,VWS V14.01,2013-02-13 15:06:00,
2013-02-13 09:07:00,40.9,36.5,30.16,West,263,4.0,5.0,84,0.00,,---,0.01,VWS V14.01,2013-02-13 15:07:00,
2013-02-13 09:08:00,40.7,36.2,30.16,WNW,288,4.0,4.0,84,0.00,,---,0.01,VWS V14.01,2013-02-13 15:08:00,
2013-02-13 09:09:00,40.8,36.3,30.16,WNW,288,0.0,4.0,84,0.00,,---,0.01,VWS V14.01,2013-02-13 15:09:00,
2013-02-13 09:10:00,40.8,36.3,30.16,WNW,288,4.0,4.0,84,0.00,,---,0.01,VWS V14.01,2013-02-13 15:10:00,
2013-02-13 09:11:00,40.9,36.5,30.16,West,263,2.0,5.0,84,0.00,,---,0.01,VWS V14.01,2013-02-13 15:11:00,
2013-02-13 09:12:00,41.0,36.2,30.15,West,265,0.0,5.0,83,0.00,,---,0.01,VWS V14.01,2013-02-13 15:12:00,
2013-02-13 09:13:00,40.9,36.1,30.16,West,265,1.0,5.0,83,0.00,,---,0.01,VWS V14.01,2013-02-13 15:13:00,
2013-02-13 09:14:00,40.9,36.1,30.16,West,265,2.0,5.0,83,0.00,,---,0.01,VWS V14.01,2013-02-13 15:14:00,
2013-02-13 09:15:00,40.9,36.1,30.15,West,265,0.0,5.0,83,0.00,,---,0.01,VWS V14.01,2013-02-13 15:15:00,
2013-02-13 09:16:00,41.0,36.2,30.15,West,265,0.0,5.0,83,0.00,,---,0.01,VWS V14.01,2013-02-13 15:16:00,
2013-02-13 09:17:00,41.0,36.2,30.16,West,265,2.0,3.0,83,0.00,,---,0.01,VWS V14.01,2013-02-13 15:17:00,
2013-02-13 09:18:00,41.0,36.2,30.15,West,265,0.0,5.0,83,0.00,,---,0.01,VWS V14.01,2013-02-13 15:18:00,
2013-02-13 09:19:00,41.0,36.2,30.16,West,265,0.0,5.0,83,0.00,,---,0.01,VWS V14.01,2013-02-13 15:19:00,
2013-02-13 09:20:00,41.0,37.7,30.16,West,265,0.0,5.0,88,0.00,,---,0.01,VWS V14.01,2013-02-13 15:20:00,
2013-02-13 09:21:00,41.0,36.2,30.16,West,265,3.0,3.0,83,0.00,,---,0.01,VWS V14.01,2013-02-13 15:21:00,
2013-02-13 09:22:00,41.3,36.8,30.16,West,265,0.0,3.0,84,0.00,,---,0.01,VWS V14.01,2013-02-13 15:22:00,
2013-02-13 09:23:00,41.1,36.6,30.16,West,265,1.0,3.0,84,0.00,,---,0.01,VWS V14.01,2013-02-13 15:23:00,
2013-02-13 09:24:00,41.2,36.7,30.16,West,265,1.0,3.0,84,0.00,,---,0.01,VWS V14.01,2013-02-13 15:24:00,
2013-02-13 09:25:00,41.3,36.8,30.16,West,265,0.0,3.0,84,0.00,,---,0.01,VWS V14.01,2013-02-13 15:25:00,
2013-02-13 09:26:00,41.3,36.8,30.16,West,265,2.0,3.0,84,0.00,,---,0.01,VWS V14.01,2013-02-13 15:26:00,
2013-02-13 09:27:00,42.1,37.6,30.16,West,269,0.0,3.0,84,0.00,,---,0.01,VWS V14.01,2013-02-13 15:27:00,
2013-02-13 09:28:00,41.6,37.4,30.16,West,269,0.0,3.0,85,0.00,,---,0.01,VWS V14.01,2013-02-13 15:28:00,
2013-02-13 09:29:00,41.8,37.3,30.16,West,269,0.0,3.0,84,0.00,,---,0.01,VWS V14.01,2013-02-13 15:29:00,
2013-02-13 09:31:00,42.1,37.6,30.16,West,269,0.0,3.0,84,0.00,,---,0.01,VWS V14.01,2013-02-13 15:31:00,
2013-02-13 09:32:00,42.9,38.1,30.16,West,272,0.0,4.0,83,0.00,,---,0.01,VWS V14.01,2013-02-13 15:32:00,
2013-02-13 09:33:00,42.4,37.6,30.16,West,269,0.0,2.0,83,0.00,,---,0.01,VWS V14.01,2013-02-13 15:33:00,
2013-02-13 09:35:00,42.7,37.9,30.16,West,272,0.0,4.0,83,0.00,,---,0.01,VWS V14.01,2013-02-13 15:35:00,
2013-02-13 09:36:00,42.9,38.1,30.16,West,272,0.0,4.0,83,0.00,,---,0.01,VWS V14.01,2013-02-13 15:36:00,
2013-02-13 09:37:00,44.0,38.2,30.16,WNW,299,0.0,6.0,80,0.00,,---,0.01,VWS V14.01,2013-02-13 15:37:00,
2013-02-13 09:38:00,43.3,39.1,30.16,West,272,1.0,4.0,85,0.00,,---,0.01,VWS V14.01,2013-02-13 15:38:00,
2013-02-13 09:39:00,43.6,39.1,30.16,West,272,0.0,4.0,84,0.00,,---,0.01,VWS V14.01,2013-02-13 15:39:00,
2013-02-13 09:40:00,43.8,38.7,30.16,WNW,290,2.0,6.0,82,0.00,,---,0.01,VWS V14.01,2013-02-13 15:40:00,
2013-02-13 09:41:00,44.0,38.2,30.16,WNW,299,3.0,6.0,80,0.00,,---,0.01,VWS V14.01,2013-02-13 15:41:00,
2013-02-13 09:42:00,45.0,38.6,30.16,North,355,2.0,6.0,78,0.00,,---,0.01,VWS V14.01,2013-02-13 15:42:00,
2013-02-13 09:43:00,44.4,38.3,30.16,WNW,300,0.0,6.0,79,0.00,,---,0.01,VWS V14.01,2013-02-13 15:43:00,
2013-02-13 09:44:00,44.6,38.8,30.16,WNW,300,0.0,6.0,80,0.00,,---,0.01,VWS V14.01,2013-02-13 15:44:00,
2013-02-13 09:45:00,44.8,38.4,30.16,WNW,300,1.0,5.0,78,0.00,,---,0.01,VWS V14.01,2013-02-13 15:45:00,
2013-02-13 09:46:00,44.9,38.5,30.16,North,349,4.0,5.0,78,0.00,,---,0.01,VWS V14.01,2013-02-13 15:46:00,
2013-02-13 09:47:00,45.7,38.6,30.16,NNW,346,0.0,4.0,76,0.00,,---,0.01,VWS V14.01,2013-02-13 15:47:00,
2013-02-13 09:48:00,45.3,38.5,30.16,North,355,0.0,6.0,77,0.00,,---,0.01,VWS V14.01,2013-02-13 15:48:00,
2013-02-13 09:49:00,45.5,38.4,30.16,North,355,0.0,6.0,76,0.00,,---,0.01,VWS V14.01,2013-02-13 15:49:00,
2013-02-13 09:50:00,45.6,38.2,30.16,North,351,0.0,6.0,75,0.00,,---,0.01,VWS V14.01,2013-02-13 15:50:00,
2013-02-13 09:51:00,45.7,38.2,30.16,NNW,346,1.0,6.0,75,0.00,,---,0.01,VWS V14.01,2013-02-13 15:51:00,
2013-02-13 09:52:00,46.2,39.1,30.17,WNW,300,3.0,7.0,76,0.00,,---,0.01,VWS V14.01,2013-02-13 15:52:00,
2013-02-13 09:53:00,45.9,39.1,30.16,NNW,345,1.0,3.0,77,0.00,,---,0.01,VWS V14.01,2013-02-13 15:53:00,
2013-02-13 09:54:00,46.0,38.9,30.16,NNW,344,0.0,4.0,76,0.00,,---,0.01,VWS V14.01,2013-02-13 15:54:00,
2013-02-13 09:55:00,46.0,38.9,30.16,WNW,299,3.0,7.0,76,0.00,,---,0.01,VWS V14.01,2013-02-13 15:55:00,
2013-02-13 09:56:00,46.2,39.4,30.17,WNW,300,4.0,7.0,77,0.00,,---,0.01,VWS V14.01,2013-02-13 15:56:00,
2013-02-13 09:57:00,46.9,40.4,30.17,NW,304,0.0,4.0,78,0.00,,---,0.01,VWS V14.01,2013-02-13 15:57:00,
2013-02-13 09:58:00,46.5,39.0,30.17,WNW,299,0.0,7.0,75,0.00,,---,0.01,VWS V14.01,2013-02-13 15:58:00,
2013-02-13 09:59:00,46.5,39.0,30.17,WNW,299,2.0,7.0,75,0.00,,---,0.01,VWS V14.01,2013-02-13 15:59:00,
2013-02-13 10:01:00,46.9,40.4,30.17,NW,304,2.0,4.0,78,0.00,,---,0.01,VWS V14.01,2013-02-13 16:01:00,
2013-02-13 10:02:00,47.2,38.3,30.17,NW,304,2.0,3.0,71,0.00,,---,0.01,VWS V14.01,2013-02-13 16:02:00,
2013-02-13 10:03:00,47.1,38.9,30.17,NW,304,0.0,4.0,73,0.00,,---,0.01,VWS V14.01,2013-02-13 16:03:00,
2013-02-13 10:04:00,47.2,38.7,30.17,NW,304,0.0,4.0,72,0.00,,---,0.01,VWS V14.01,2013-02-13 16:04:00,
2013-02-13 10:05:00,47.2,38.3,30.17,NW,304,1.0,4.0,71,0.00,,---,0.01,VWS V14.01,2013-02-13 16:05:00,
2013-02-13 10:06:00,47.2,38.3,30.17,NW,304,0.0,4.0,71,0.00,,---,0.01,VWS V14.01,2013-02-13 16:06:00,
2013-02-13 10:07:00,47.2,38.7,30.17,WNW,296,0.0,3.0,72,0.00,,---,0.01,VWS V14.01,2013-02-13 16:07:00,
2013-02-13 10:08:00,47.2,38.3,30.17,NW,304,0.0,3.0,71,0.00,,---,0.01,VWS V14.01,2013-02-13 16:08:00,
2013-02-13 10:09:00,47.1,38.2,30.17,WNW,296,0.0,3.0,71,0.00,,---,0.01,VWS V14.01,2013-02-13 16:09:00,
2013-02-13 10:10:00,47.1,38.5,30.17,WNW,296,3.0,3.0,72,0.00,,---,0.01,VWS V14.01,2013-02-13 16:10:00,
2013-02-13 10:11:00,47.1,38.5,30.17,WNW,296,0.0,3.0,72,0.00,,---,0.01,VWS V14.01,2013-02-13 16:11:00,
2013-02-13 10:12:00,47.0,37.7,30.17,WNW,296,0.0,5.0,70,0.00,,---,0.01,VWS V14.01,2013-02-13 16:12:00,
2013-02-13 10:13:00,47.2,39.0,30.17,WNW,296,0.0,3.0,73,0.00,,---,0.01,VWS V14.01,2013-02-13 16:13:00,
2013-02-13 10:14:00,47.2,38.7,30.17,WNW,296,0.0,3.0,72,0.00,,---,0.01,VWS V14.01,2013-02-13 16:14:00,
2013-02-13 10:15:00,47.2,38.3,30.17,WNW,296,0.0,3.0,71,0.00,,---,0.01,VWS V14.01,2013-02-13 16:15:00,
2013-02-13 10:16:00,47.1,37.8,30.17,WNW,296,0.0,5.0,70,0.00,,---,0.01,VWS V14.01,2013-02-13 16:16:00,
2013-02-13 10:17:00,46.9,38.0,30.17,WNW,296,0.0,3.0,71,0.00,,---,0.01,VWS V14.01,2013-02-13 16:17:00,
2013-02-13 10:18:00,46.9,38.0,30.17,WNW,296,1.0,5.0,71,0.00,,---,0.01,VWS V14.01,2013-02-13 16:18:00,
2013-02-13 10:19:00,46.9,38.4,30.17,WNW,296,0.0,5.0,72,0.00,,---,0.01,VWS V14.01,2013-02-13 16:19:00,
2013-02-13 10:20:00,46.9,38.4,30.17,WNW,296,0.0,5.0,72,0.00,,---,0.01,VWS V14.01,2013-02-13 16:20:00,
2013-02-13 10:21:00,47.0,38.1,30.17,WNW,296,3.0,3.0,71,0.00,,---,0.01,VWS V14.01,2013-02-13 16:21:00,
2013-02-13 10:22:00,47.5,40.0,30.17,WNW,296,0.0,3.0,75,0.00,,---,0.01,VWS V14.01,2013-02-13 16:22:00,
2013-02-13 10:23:00,47.0,39.2,30.17,WNW,296,0.0,3.0,74,0.00,,---,0.01,VWS V14.01,2013-02-13 16:23:00,
2013-02-13 10:24:00,47.2,39.7,30.17,WNW,296,0.0,3.0,75,0.00,,---,0.01,VWS V14.01,2013-02-13 16:24:00,
2013-02-13 10:25:00,47.3,39.8,30.17,WNW,296,0.0,3.0,75,0.00,,---,0.01,VWS V14.01,2013-02-13 16:25:00,
2013-02-13 10:26:00,47.5,39.6,30.17,WNW,296,0.0,3.0,74,0.00,,---,0.01,VWS V14.01,2013-02-13 16:26:00,
2013-02-13 10:27:00,48.4,40.5,30.17,WNW,296,0.0,1.0,74,0.00,,---,0.01,VWS V14.01,2013-02-13 16:27:00,
2013-02-13 10:28:00,47.8,39.9,30.17,WNW,296,0.0,3.0,74,0.00,,---,0.01,VWS V14.01,2013-02-13 16:28:00,
2013-02-13 10:29:00,48.0,39.8,30.17,WNW,296,0.0,3.0,73,0.00,,---,0.01,VWS V14.01,2013-02-13 16:29:00,
2013-02-13 10:30:00,48.2,40.0,30.17,WNW,296,0.0,3.0,73,0.00,,---,0.01,VWS V14.01,2013-02-13 16:30:00,
2013-02-13 10:31:00,48.4,40.5,30.17,WNW,296,0.0,1.0,74,0.00,,---,0.01,VWS V14.01,2013-02-13 16:31:00,
2013-02-13 10:32:00,49.1,40.8,30.17,WNW,296,0.0,0.0,73,0.00,,---,0.01,VWS V14.01,2013-02-13 16:32:00,
2013-02-13 10:33:00,48.6,39.3,30.17,WNW,296,0.0,0.0,70,0.00,,---,0.01,VWS V14.01,2013-02-13 16:33:00,
2013-02-13 10:34:00,48.7,39.4,30.17,WNW,296,0.0,0.0,70,0.00,,---,0.01,VWS V14.01,2013-02-13 16:34:00,
2013-02-13 10:35:00,48.8,40.2,30.17,WNW,296,0.0,0.0,72,0.00,,---,0.01,VWS V14.01,2013-02-13 16:35:00,
2013-02-13 10:36:00,49.0,40.7,30.17,WNW,296,0.0,0.0,73,0.00,,---,0.01,VWS V14.01,2013-02-13 16:36:00,
2013-02-13 10:37:00,49.7,39.2,30.17,WNW,294,0.0,3.0,67,0.00,,---,0.01,VWS V14.01,2013-02-13 16:37:00,
2013-02-13 10:38:00,49.4,40.8,30.17,WNW,296,0.0,2.0,72,0.00,,---,0.01,VWS V14.01,2013-02-13 16:38:00,
2013-02-13 10:39:00,49.6,39.9,30.17,WNW,296,0.0,2.0,69,0.00,,---,0.01,VWS V14.01,2013-02-13 16:39:00,
2013-02-13 10:40:00,49.7,39.6,30.17,WNW,294,2.0,2.0,68,0.00,,---,0.01,VWS V14.01,2013-02-13 16:40:00,
2013-02-13 10:41:00,49.7,39.2,30.17,WNW,294,0.0,3.0,67,0.00,,---,0.01,VWS V14.01,2013-02-13 16:41:00,
2013-02-13 10:42:00,50.1,40.7,30.17,WNW,294,0.0,2.0,70,0.00,,---,0.01,VWS V14.01,2013-02-13 16:42:00,
2013-02-13 10:43:00,49.9,41.2,30.17,WNW,294,0.0,3.0,72,0.00,,---,0.01,VWS V14.01,2013-02-13 16:43:00,
2013-02-13 10:44:00,50.0,40.2,30.17,WNW,294,0.0,3.0,69,0.00,,---,0.01,VWS V14.01,2013-02-13 16:44:00,
2013-02-13 10:45:00,50.0,40.2,30.17,WNW,294,0.0,3.0,69,0.00,,---,0.01,VWS V14.01,2013-02-13 16:45:00,
2013-02-13 10:46:00,50.1,40.7,30.17,WNW,294,0.0,2.0,70,0.00,,---,0.01,VWS V14.01,2013-02-13 16:46:00,
2013-02-13 10:47:00,50.6,40.8,30.16,West,269,1.0,3.0,69,0.00,,---,0.01,VWS V14.01,2013-02-13 16:47:00,
2013-02-13 10:48:00,50.3,41.3,30.17,WNW,294,1.0,1.0,71,0.00,,---,0.01,VWS V14.01,2013-02-13 16:48:00,
2013-02-13 10:49:00,50.4,41.4,30.17,West,269,3.0,3.0,71,0.00,,---,0.01,VWS V14.01,2013-02-13 16:49:00,
2013-02-13 10:50:00,50.5,41.1,30.17,West,269,0.0,3.0,70,0.00,,---,0.01,VWS V14.01,2013-02-13 16:50:00,
2013-02-13 10:51:00,50.6,40.8,30.17,West,269,2.0,3.0,69,0.00,,---,0.01,VWS V14.01,2013-02-13 16:51:00,
2013-02-13 10:52:00,51.3,41.5,30.16,West,269,0.0,3.0,69,0.00,,---,0.01,VWS V14.01,2013-02-13 16:52:00,
2013-02-13 10:53:00,50.8,41.8,30.17,West,268,0.0,3.0,71,0.00,,---,0.01,VWS V14.01,2013-02-13 16:53:00,
2013-02-13 10:55:00,51.1,41.3,30.17,West,268,0.0,2.0,69,0.00,,---,0.01,VWS V14.01,2013-02-13 16:55:00,
2013-02-13 10:56:00,51.3,41.5,30.16,West,269,0.0,3.0,69,0.00,,---,0.01,VWS V14.01,2013-02-13 16:56:00,
2013-02-13 10:57:00,51.7,41.5,30.16,West,269,0.0,1.0,68,0.00,,---,0.01,VWS V14.01,2013-02-13 16:57:00,
2013-02-13 10:58:00,51.5,40.9,30.17,West,269,0.0,3.0,67,0.00,,---,0.01,VWS V14.01,2013-02-13 16:58:00,
2013-02-13 10:59:00,51.6,40.6,30.16,West,269,0.0,3.0,66,0.00,,---,0.01,VWS V14.01,2013-02-13 16:59:00,
2013-02-13 11:00:00,51.6,39.8,30.16,West,269,0.0,3.0,64,0.00,,---,0.01,VWS V14.01,2013-02-13 17:00:00,
2013-02-13 11:01:00,51.7,40.7,30.16,West,269,0.0,1.0,66,0.00,,---,0.01,VWS V14.01,2013-02-13 17:01:00,
2013-02-13 11:02:00,51.6,39.8,30.16,West,269,2.0,4.0,64,0.00,,---,0.01,VWS V14.01,2013-02-13 17:02:00,
2013-02-13 11:03:00,51.7,40.3,30.16,West,269,0.0,1.0,65,0.00,,---,0.01,VWS V14.01,2013-02-13 17:03:00,
2013-02-13 11:04:00,51.7,39.9,30.16,West,269,0.0,1.0,64,0.00,,---,0.01,VWS V14.01,2013-02-13 17:04:00,
2013-02-13 11:05:00,51.7,40.3,30.16,West,269,3.0,4.0,65,0.00,,---,0.01,VWS V14.01,2013-02-13 17:05:00,
2013-02-13 11:06:00,51.7,39.9,30.16,West,269,2.0,4.0,64,0.00,,---,0.01,VWS V14.01,2013-02-13 17:06:00,
2013-02-13 11:07:00,50.9,38.4,30.16,West,270,0.0,4.0,62,0.00,,---,0.01,VWS V14.01,2013-02-13 17:07:00,
2013-02-13 11:08:00,51.4,39.2,30.16,West,271,0.0,4.0,63,0.00,,---,0.01,VWS V14.01,2013-02-13 17:08:00,
2013-02-13 11:09:00,51.3,39.2,30.16,West,271,0.0,4.0,63,0.00,,---,0.01,VWS V14.01,2013-02-13 17:09:00,
2013-02-13 11:10:00,51.1,38.1,30.16,West,271,0.0,4.0,61,0.00,,---,0.01,VWS V14.01,2013-02-13 17:10:00,
2013-02-13 11:11:00,50.9,38.4,30.16,West,271,0.0,4.0,62,0.00,,---,0.01,VWS V14.01,2013-02-13 17:11:00,
2013-02-13 11:12:00,50.9,41.1,30.15,West,270,0.0,1.0,69,0.00,,---,0.01,VWS V14.01,2013-02-13 17:12:00,
2013-02-13 11:13:00,50.7,39.0,30.15,West,270,1.0,1.0,64,0.00,,---,0.01,VWS V14.01,2013-02-13 17:13:00,
2013-02-13 11:14:00,50.7,40.5,30.16,West,270,0.0,1.0,68,0.00,,---,0.01,VWS V14.01,2013-02-13 17:14:00,
2013-02-13 11:15:00,50.7,40.9,30.15,West,270,0.0,1.0,69,0.00,,---,0.01,VWS V14.01,2013-02-13 17:15:00,
2013-02-13 11:16:00,50.9,41.1,30.15,West,270,0.0,1.0,69,0.00,,---,0.01,VWS V14.01,2013-02-13 17:16:00,
2013-02-13 11:17:00,51.7,40.3,30.16,West,271,0.0,2.0,65,0.00,,---,0.01,VWS V14.01,2013-02-13 17:17:00,
2013-02-13 11:18:00,51.3,40.7,30.15,West,271,1.0,1.0,67,0.00,,---,0.01,VWS V14.01,2013-02-13 17:18:00,
2013-02-13 11:19:00,51.4,40.0,30.15,West,271,2.0,2.0,65,0.00,,---,0.01,VWS V14.01,2013-02-13 17:19:00,
2013-02-13 11:20:00,51.5,40.1,30.15,West,271,0.0,2.0,65,0.00,,---,0.01,VWS V14.01,2013-02-13 17:20:00,
2013-02-13 11:21:00,51.7,40.3,30.16,West,271,0.0,2.0,65,0.00,,---,0.01,VWS V14.01,2013-02-13 17:21:00,
2013-02-13 11:22:00,52.4,40.2,30.16,West,269,0.0,2.0,63,0.00,,---,0.01,VWS V14.01,2013-02-13 17:22:00,
2013-02-13 11:23:00,52.0,41.0,30.16,West,271,0.0,2.0,66,0.00,,---,0.01,VWS V14.01,2013-02-13 17:23:00,
2013-02-13 11:24:00,52.2,40.8,30.16,West,271,0.0,2.0,65,0.00,,---,0.01,VWS V14.01,2013-02-13 17:24:00,
2013-02-13 11:25:00,52.3,40.9,30.16,West,271,0.0,0.0,65,0.00,,---,0.01,VWS V14.01,2013-02-13 17:25:00,
2013-02-13 11:26:00,52.4,40.2,30.16,West,269,0.0,2.0,63,0.00,,---,0.01,VWS V14.01,2013-02-13 17:26:00,
2013-02-13 11:27:00,52.5,39.0,30.15,West,269,0.0,1.0,60,0.00,,---,0.01,VWS V14.01,2013-02-13 17:27:00,
2013-02-13 11:28:00,52.5,39.5,30.16,West,269,0.0,2.0,61,0.00,,---,0.01,VWS V14.01,2013-02-13 17:28:00,
2013-02-13 11:29:00,52.5,39.5,30.16,West,269,0.0,2.0,61,0.00,,---,0.01,VWS V14.01,2013-02-13 17:29:00,
2013-02-13 11:30:00,52.5,39.5,30.15,West,269,0.0,2.0,61,0.00,,---,0.01,VWS V14.01,2013-02-13 17:30:00,
2013-02-13 11:31:00,52.5,39.0,30.15,West,269,0.0,1.0,60,0.00,,---,0.01,VWS V14.01,2013-02-13 17:31:00,
2013-02-13 11:32:00,51.7,38.3,30.15,South,181,1.0,3.0,60,0.00,,---,0.01,VWS V14.01,2013-02-13 17:32:00,
2013-02-13 11:33:00,52.2,38.8,30.16,West,269,0.0,1.0,60,0.00,,---,0.01,VWS V14.01,2013-02-13 17:33:00,
2013-02-13 11:34:00,52.1,38.7,30.15,West,269,0.0,1.0,60,0.00,,---,0.01,VWS V14.01,2013-02-13 17:34:00,
2013-02-13 11:35:00,51.9,38.5,30.16,West,269,1.0,1.0,60,0.00,,---,0.01,VWS V14.01,2013-02-13 17:35:00,
2013-02-13 11:36:00,51.8,38.4,30.15,West,269,0.0,2.0,60,0.00,,---,0.01,VWS V14.01,2013-02-13 17:36:00,
2013-02-13 11:37:00,51.0,39.7,30.15,South,181,0.0,3.0,65,0.00,,---,0.01,VWS V14.01,2013-02-13 17:37:00,
2013-02-13 11:38:00,51.4,38.0,30.15,South,181,0.0,3.0,60,0.00,,---,0.01,VWS V14.01,2013-02-13 17:38:00,
2013-02-13 11:39:00,51.2,37.8,30.15,South,181,0.0,3.0,60,0.00,,---,0.01,VWS V14.01,2013-02-13 17:39:00,
2013-02-13 11:40:00,51.1,38.5,30.15,South,181,0.0,3.0,62,0.00,,---,0.01,VWS V14.01,2013-02-13 17:40:00,
2013-02-13 11:41:00,51.0,38.9,30.15,South,181,0.0,3.0,63,0.00,,---,0.01,VWS V14.01,2013-02-13 17:41:00,
2013-02-13 11:42:00,51.2,38.6,30.15,South,181,0.0,0.0,62,0.00,,---,0.01,VWS V14.01,2013-02-13 17:42:00,
2013-02-13 11:43:00,51.0,39.3,30.15,South,181,0.0,1.0,64,0.00,,---,0.01,VWS V14.01,2013-02-13 17:43:00,
2013-02-13 11:44:00,51.1,39.0,30.15,South,181,0.0,1.0,63,0.00,,---,0.01,VWS V14.01,2013-02-13 17:44:00,
2013-02-13 11:45:00,51.2,39.5,30.15,South,181,0.0,1.0,64,0.00,,---,0.01,VWS V14.01,2013-02-13 17:45:00,
2013-02-13 11:46:00,51.2,38.6,30.15,South,181,0.0,0.0,62,0.00,,---,0.01,VWS V14.01,2013-02-13 17:46:00,
2013-02-13 11:47:00,51.7,39.1,30.14,South,181,0.0,1.0,62,0.00,,---,0.01,VWS V14.01,2013-02-13 17:47:00,
2013-02-13 11:48:00,51.3,39.5,30.15,South,181,0.0,0.0,64,0.00,,---,0.01,VWS V14.01,2013-02-13 17:48:00,
2013-02-13 11:49:00,51.4,39.7,30.15,South,181,0.0,0.0,64,0.00,,---,0.01,VWS V14.01,2013-02-13 17:49:00,
2013-02-13 11:50:00,51.5,39.3,30.15,South,181,0.0,0.0,63,0.00,,---,0.01,VWS V14.01,2013-02-13 17:50:00,
2013-02-13 11:51:00,51.7,39.1,30.15,South,181,0.0,1.0,62,0.00,,---,0.01,VWS V14.01,2013-02-13 17:51:00,
2013-02-13 11:52:00,52.6,40.4,30.14,South,183,0.0,3.0,63,0.00,,---,0.01,VWS V14.01,2013-02-13 17:52:00,
2013-02-13 11:53:00,51.9,39.3,30.15,South,182,0.0,1.0,62,0.00,,---,0.01,VWS V14.01,2013-02-13 17:53:00,
2013-02-13 11:54:00,52.1,39.9,30.15,South,183,0.0,3.0,63,0.00,,---,0.01,VWS V14.01,2013-02-13 17:54:00,
2013-02-13 11:55:00,52.3,40.5,30.15,South,183,0.0,3.0,64,0.00,,---,0.01,VWS V14.01,2013-02-13 17:55:00,
2013-02-13 11:56:00,52.4,40.2,30.14,South,183,0.0,3.0,63,0.00,,---,0.01,VWS V14.01,2013-02-13 17:56:00,
2013-02-13 11:57:00,53.5,41.2,30.14,South,186,0.0,4.0,63,0.00,,---,0.01,VWS V14.01,2013-02-13 17:57:00,
2013-02-13 11:58:00,52.8,40.6,30.14,South,183,0.0,3.0,63,0.00,,---,0.01,VWS V14.01,2013-02-13 17:58:00,
2013-02-13 11:59:00,53.0,41.2,30.14,South,184,2.0,4.0,64,0.00,,---,0.01,VWS V14.01,2013-02-13 17:59:00,
2013-02-13 12:00:00,53.2,41.0,30.14,South,184,0.0,4.0,63,0.00,,---,0.01,VWS V14.01,2013-02-13 18:00:00,
2013-02-13 12:01:00,53.4,41.1,30.14,South,186,1.0,4.0,63,0.00,,---,0.01,VWS V14.01,2013-02-13 18:01:00,
2013-02-13 12:02:00,54.5,40.9,30.14,South,190,1.0,4.0,60,0.00,,---,0.01,VWS V14.01,2013-02-13 18:02:00,
2013-02-13 12:03:00,53.8,41.5,30.14,South,190,0.0,4.0,63,0.00,,---,0.01,VWS V14.01,2013-02-13 18:03:00,
2013-02-13 12:04:00,54.0,41.7,30.14,South,190,3.0,4.0,63,0.00,,---,0.01,VWS V14.01,2013-02-13 18:04:00,
2013-02-13 12:05:00,54.2,41.5,30.14,South,190,0.0,4.0,62,0.00,,---,0.01,VWS V14.01,2013-02-13 18:05:00,
2013-02-13 12:06:00,54.4,40.8,30.14,South,190,1.0,4.0,60,0.00,,---,0.01,VWS V14.01,2013-02-13 18:06:00,
2013-02-13 12:07:00,54.8,40.3,30.14,South,186,1.0,2.0,58,0.00,,---,0.01,VWS V14.01,2013-02-13 18:07:00,
2013-02-13 12:08:00,54.6,39.7,30.14,South,185,0.0,4.0,57,0.00,,---,0.01,VWS V14.01,2013-02-13 18:08:00,
2013-02-13 12:09:00,54.7,39.8,30.14,South,185,0.0,3.0,57,0.00,,---,0.01,VWS V14.01,2013-02-13 18:09:00,
2013-02-13 12:10:00,54.7,39.3,30.14,South,185,0.0,3.0,56,0.00,,---,0.01,VWS V14.01,2013-02-13 18:10:00,
2013-02-13 12:12:00,55.3,40.3,30.13,SW,218,2.0,5.0,57,0.00,,---,0.01,VWS V14.01,2013-02-13 18:12:00,
2013-02-13 12:13:00,55.0,40.5,30.14,South,186,0.0,2.0,58,0.00,,---,0.01,VWS V14.01,2013-02-13 18:13:00,
2013-02-13 12:14:00,55.1,40.6,30.14,South,186,1.0,2.0,58,0.00,,---,0.01,VWS V14.01,2013-02-13 18:14:00,
2013-02-13 12:15:00,55.2,40.7,30.13,South,186,0.0,2.0,58,0.00,,---,0.01,VWS V14.01,2013-02-13 18:15:00,
2013-02-13 12:16:00,55.3,40.3,30.14,SSW,212,5.0,5.0,57,0.00,,---,0.01,VWS V14.01,2013-02-13 18:16:00,
2013-02-13 12:17:00,56.1,41.5,30.13,SW,222,2.0,3.0,58,0.00,,---,0.01,VWS V14.01,2013-02-13 18:17:00,
2013-02-13 12:18:00,55.5,41.0,30.13,SW,223,0.0,5.0,58,0.00,,---,0.01,VWS V14.01,2013-02-13 18:18:00,
2013-02-13 12:19:00,55.7,41.2,30.13,SW,223,0.0,5.0,58,0.00,,---,0.01,VWS V14.01,2013-02-13 18:19:00,
2013-02-13 12:20:00,55.9,40.5,30.13,SW,223,0.0,5.0,56,0.00,,---,0.01,VWS V14.01,2013-02-13 18:20:00,
2013-02-13 12:21:00,56.0,41.5,30.13,SW,222,0.0,5.0,58,0.00,,---,0.01,VWS V14.01,2013-02-13 18:21:00,
2013-02-13 12:22:00,56.7,40.3,30.13,SW,223,0.0,2.0,54,0.00,,---,0.01,VWS V14.01,2013-02-13 18:22:00,
2013-02-13 12:23:00,56.3,41.3,30.13,SW,222,0.0,3.0,57,0.00,,---,0.01,VWS V14.01,2013-02-13 18:23:00,
2013-02-13 12:24:00,56.5,40.1,30.13,SW,222,0.0,3.0,54,0.00,,---,0.01,VWS V14.01,2013-02-13 18:24:00,
2013-02-13 12:25:00,56.6,39.7,30.13,SW,222,0.0,3.0,53,0.00,,---,0.01,VWS V14.01,2013-02-13 18:25:00,
2013-02-13 12:26:00,56.7,40.3,30.13,SW,222,0.0,3.0,54,0.00,,---,0.01,VWS V14.01,2013-02-13 18:26:00,
2013-02-13 12:27:00,56.5,39.6,30.12,SE,145,0.0,1.0,53,0.00,,---,0.01,VWS V14.01,2013-02-13 18:27:00,
2013-02-13 12:28:00,56.7,40.3,30.13,SW,223,0.0,1.0,54,0.00,,---,0.01,VWS V14.01,2013-02-13 18:28:00,
2013-02-13 12:29:00,56.7,40.7,30.13,SW,221,0.0,1.0,55,0.00,,---,0.01,VWS V14.01,2013-02-13 18:29:00,
2013-02-13 12:30:00,56.7,39.8,30.13,SW,221,0.0,1.0,53,0.00,,---,0.01,VWS V14.01,2013-02-13 18:30:00,
2013-02-13 12:31:00,56.5,39.6,30.13,SSE,150,0.0,1.0,53,0.00,,---,0.01,VWS V14.01,2013-02-13 18:31:00,
2013-02-13 12:32:00,56.1,40.6,30.12,SE,144,0.0,1.0,56,0.00,,---,0.01,VWS V14.01,2013-02-13 18:32:00,
2013-02-13 12:33:00,56.2,39.8,30.12,SE,144,0.0,1.0,54,0.00,,---,0.01,VWS V14.01,2013-02-13 18:33:00,
2013-02-13 12:34:00,56.1,39.7,30.12,SE,144,0.0,1.0,54,0.00,,---,0.01,VWS V14.01,2013-02-13 18:34:00,
2013-02-13 12:35:00,56.1,40.2,30.12,SE,144,0.0,1.0,55,0.00,,---,0.01,VWS V14.01,2013-02-13 18:35:00,
2013-02-13 12:37:00,56.5,40.5,30.12,SSE,150,1.0,2.0,55,0.00,,---,0.01,VWS V14.01,2013-02-13 18:37:00,
2013-02-13 12:38:00,56.2,39.8,30.12,SE,144,0.0,1.0,54,0.00,,---,0.01,VWS V14.01,2013-02-13 18:38:00,
2013-02-13 12:39:00,56.3,40.4,30.12,SE,144,0.0,1.0,55,0.00,,---,0.01,VWS V14.01,2013-02-13 18:39:00,
2013-02-13 12:40:00,56.4,40.0,30.12,SSE,148,2.0,2.0,54,0.00,,---,0.01,VWS V14.01,2013-02-13 18:40:00,
2013-02-13 12:41:00,56.4,40.5,30.12,SSE,148,0.0,2.0,55,0.00,,---,0.01,VWS V14.01,2013-02-13 18:41:00,
2013-02-13 12:42:00,56.9,39.0,30.12,SSE,155,0.0,3.0,51,0.00,,---,0.01,VWS V14.01,2013-02-13 18:42:00,
2013-02-13 12:43:00,56.6,41.1,30.12,SSE,160,0.0,3.0,56,0.00,,---,0.01,VWS V14.01,2013-02-13 18:43:00,
2013-02-13 12:44:00,56.7,40.7,30.12,SSE,160,2.0,3.0,55,0.00,,---,0.01,VWS V14.01,2013-02-13 18:44:00,
2013-02-13 12:45:00,56.8,41.3,30.12,SSE,159,0.0,3.0,56,0.00,,---,0.01,VWS V14.01,2013-02-13 18:45:00,
2013-02-13 12:46:00,56.9,40.0,30.12,SSE,159,0.0,3.0,53,0.00,,---,0.01,VWS V14.01,2013-02-13 18:46:00,
2013-02-13 12:47:00,56.1,39.7,30.11,SE,129,0.0,1.0,54,0.00,,---,0.01,VWS V14.01,2013-02-13 18:47:00,
2013-02-13 12:48:00,56.7,38.8,30.12,SSE,154,0.0,3.0,51,0.00,,---,0.01,VWS V14.01,2013-02-13 18:48:00,
2013-02-13 12:49:00,56.6,38.7,30.11,SE,136,0.0,3.0,51,0.00,,---,0.01,VWS V14.01,2013-02-13 18:49:00,
2013-02-13 12:50:00,56.3,38.9,30.11,SE,129,0.0,1.0,52,0.00,,---,0.01,VWS V14.01,2013-02-13 18:50:00,
2013-02-13 12:51:00,56.2,39.3,30.11,SE,129,0.0,1.0,53,0.00,,---,0.01,VWS V14.01,2013-02-13 18:51:00,
2013-02-13 12:52:00,56.2,39.8,30.11,SE,129,0.0,1.0,54,0.00,,---,0.01,VWS V14.01,2013-02-13 18:52:00,
2013-02-13 12:53:00,56.1,39.7,30.11,SE,129,0.0,1.0,54,0.00,,---,0.01,VWS V14.01,2013-02-13 18:53:00,
2013-02-13 12:54:00,56.1,39.7,30.11,SE,129,0.0,1.0,54,0.00,,---,0.01,VWS V14.01,2013-02-13 18:54:00,
2013-02-13 12:55:00,56.1,39.7,30.11,SE,129,0.0,1.0,54,0.00,,---,0.01,VWS V14.01,2013-02-13 18:55:00,
2013-02-13 12:56:00,56.2,40.3,30.11,SE,129,0.0,1.0,55,0.00,,---,0.01,VWS V14.01,2013-02-13 18:56:00,
2013-02-13 12:57:00,56.5,40.1,30.11,SE,130,0.0,2.0,54,0.00,,---,0.01,VWS V14.01,2013-02-13 18:57:00,
2013-02-13 12:58:00,56.3,39.9,30.11,SE,129,0.0,1.0,54,0.00,,---,0.01,VWS V14.01,2013-02-13 18:58:00,
2013-02-13 12:59:00,56.4,40.0,30.11,SE,129,0.0,1.0,54,0.00,,---,0.01,VWS V14.01,2013-02-13 18:59:00,
2013-02-13 13:00:00,56.4,40.0,30.11,SE,129,0.0,1.0,54,0.00,,---,0.01,VWS V14.01,2013-02-13 19:00:00,
2013-02-13 13:01:00,56.5,40.1,30.11,SE,130,0.0,2.0,54,0.00,,---,0.01,VWS V14.01,2013-02-13 19:01:00,
2013-02-13 13:02:00,56.7,40.7,30.11,SE,141,0.0,3.0,55,0.00,,---,0.01,VWS V14.01,2013-02-13 19:02:00,
2013-02-13 13:03:00,56.6,39.2,30.11,SE,130,0.0,2.0,52,0.00,,---,0.01,VWS V14.01,2013-02-13 19:03:00,
2013-02-13 13:04:00,56.6,39.7,30.11,SE,130,1.0,2.0,53,0.00,,---,0.01,VWS V14.01,2013-02-13 19:04:00,
2013-02-13 13:05:00,56.7,40.7,30.11,SE,134,2.0,3.0,55,0.00,,---,0.01,VWS V14.01,2013-02-13 19:05:00,
2013-02-13 13:06:00,56.7,40.7,30.10,SE,141,0.0,3.0,55,0.00,,---,0.01,VWS V14.01,2013-02-13 19:06:00,
2013-02-13 13:07:00,57.3,41.8,30.10,SSE,155,1.0,4.0,56,0.00,,---,0.01,VWS V14.01,2013-02-13 19:07:00,
2013-02-13 13:08:00,56.8,39.9,30.10,SE,141,0.0,3.0,53,0.00,,---,0.01,VWS V14.01,2013-02-13 19:08:00,
2013-02-13 13:09:00,56.9,40.9,30.10,SSE,153,4.0,4.0,55,0.00,,---,0.01,VWS V14.01,2013-02-13 19:09:00,
2013-02-13 13:10:00,57.0,41.5,30.10,SSE,154,0.0,4.0,56,0.00,,---,0.01,VWS V14.01,2013-02-13 19:10:00,
2013-02-13 13:11:00,57.2,41.7,30.10,SSE,154,2.0,4.0,56,0.00,,---,0.01,VWS V14.01,2013-02-13 19:11:00,
2013-02-13 13:12:00,58.1,41.6,30.10,South,188,0.0,3.0,54,0.00,,---,0.01,VWS V14.01,2013-02-13 19:12:00,
2013-02-13 13:13:00,57.5,41.0,30.10,South,179,3.0,4.0,54,0.00,,---,0.01,VWS V14.01,2013-02-13 19:13:00,
2013-02-13 13:14:00,57.7,41.7,30.10,South,186,0.0,4.0,55,0.00,,---,0.01,VWS V14.01,2013-02-13 19:14:00,
2013-02-13 13:15:00,57.8,40.8,30.10,South,186,0.0,3.0,53,0.00,,---,0.01,VWS V14.01,2013-02-13 19:15:00,
2013-02-13 13:16:00,58.0,41.5,30.10,South,188,1.0,3.0,54,0.00,,---,0.01,VWS V14.01,2013-02-13 19:16:00,
2013-02-13 13:17:00,58.6,41.0,30.09,South,188,0.0,3.0,52,0.00,,---,0.01,VWS V14.01,2013-02-13 19:17:00,
2013-02-13 13:18:00,58.3,40.8,30.10,South,188,0.0,3.0,52,0.00,,---,0.01,VWS V14.01,2013-02-13 19:18:00,
2013-02-13 13:19:00,58.4,40.4,30.09,South,188,0.0,3.0,51,0.00,,---,0.01,VWS V14.01,2013-02-13 19:19:00,
2013-02-13 13:20:00,58.5,40.5,30.09,South,188,0.0,3.0,51,0.00,,---,0.01,VWS V14.01,2013-02-13 19:20:00,
2013-02-13 13:21:00,58.6,40.5,30.09,South,188,0.0,3.0,51,0.00,,---,0.01,VWS V14.01,2013-02-13 19:21:00,
2013-02-13 13:22:00,58.6,41.0,30.09,South,189,0.0,2.0,52,0.00,,---,0.01,VWS V14.01,2013-02-13 19:22:00,
2013-02-13 13:23:00,58.6,40.0,30.09,South,188,0.0,3.0,50,0.00,,---,0.01,VWS V14.01,2013-02-13 19:23:00,
2013-02-13 13:24:00,58.5,40.5,30.09,South,188,0.0,1.0,51,0.00,,---,0.01,VWS V14.01,2013-02-13 19:24:00,
2013-02-13 13:25:00,58.5,41.0,30.09,South,188,0.0,1.0,52,0.00,,---,0.01,VWS V14.01,2013-02-13 19:25:00,
2013-02-13 13:26:00,58.5,41.0,30.09,South,189,0.0,2.0,52,0.00,,---,0.01,VWS V14.01,2013-02-13 19:26:00,
2013-02-13 13:27:00,58.9,40.3,30.09,South,190,0.0,3.0,50,0.00,,---,0.01,VWS V14.01,2013-02-13 19:27:00,
2013-02-13 13:28:00,58.7,40.6,30.09,South,189,1.0,3.0,51,0.00,,---,0.01,VWS V14.01,2013-02-13 19:28:00,
2013-02-13 13:29:00,58.7,40.6,30.09,South,189,1.0,3.0,51,0.00,,---,0.01,VWS V14.01,2013-02-13 19:29:00,
2013-02-13 13:30:00,58.8,41.2,30.09,South,190,0.0,3.0,52,0.00,,---,0.01,VWS V14.01,2013-02-13 19:30:00,
2013-02-13 13:31:00,58.9,41.3,30.09,South,190,0.0,3.0,52,0.00,,---,0.01,VWS V14.01,2013-02-13 19:31:00,
2013-02-13 13:32:00,59.1,40.0,30.08,South,190,0.0,1.0,49,0.00,,---,0.01,VWS V14.01,2013-02-13 19:32:00,
2013-02-13 13:33:00,59.0,40.4,30.09,South,190,0.0,2.0,50,0.00,,---,0.01,VWS V14.01,2013-02-13 19:33:00,
2013-02-13 13:34:00,59.1,40.0,30.08,South,190,0.0,1.0,49,0.00,,---,0.01,VWS V14.01,2013-02-13 19:34:00,
2013-02-13 13:35:00,59.2,39.5,30.08,South,190,0.0,1.0,48,0.00,,---,0.01,VWS V14.01,2013-02-13 19:35:00,
2013-02-13 13:36:00,59.1,40.0,30.08,South,190,0.0,1.0,49,0.00,,---,0.01,VWS V14.01,2013-02-13 19:36:00,
2013-02-13 13:37:00,59.0,39.9,30.08,South,190,0.0,3.0,49,0.00,,---,0.01,VWS V14.01,2013-02-13 19:37:00,
2013-02-13 13:38:00,59.0,39.4,30.08,South,190,1.0,3.0,48,0.00,,---,0.01,VWS V14.01,2013-02-13 19:38:00,
2013-02-13 13:39:00,59.0,40.4,30.08,South,190,0.0,3.0,50,0.00,,---,0.01,VWS V14.01,2013-02-13 19:39:00,
2013-02-13 13:40:00,59.0,39.9,30.08,South,190,0.0,3.0,49,0.00,,---,0.01,VWS V14.01,2013-02-13 19:40:00,
2013-02-13 13:41:00,59.0,39.9,30.08,South,190,2.0,3.0,49,0.00,,---,0.01,VWS V14.01,2013-02-13 19:41:00,
2013-02-13 13:42:00,59.1,40.0,30.07,South,190,0.0,0.0,49,0.00,,---,0.01,VWS V14.01,2013-02-13 19:42:00,
2013-02-13 13:43:00,59.1,40.0,30.08,South,190,0.0,2.0,49,0.00,,---,0.01,VWS V14.01,2013-02-13 19:43:00,
2013-02-13 13:44:00,59.1,40.0,30.07,South,190,0.0,2.0,49,0.00,,---,0.01,VWS V14.01,2013-02-13 19:44:00,
2013-02-13 13:45:00,59.1,40.0,30.07,South,190,0.0,2.0,49,0.00,,---,0.01,VWS V14.01,2013-02-13 19:45:00,
2013-02-13 13:46:00,59.1,40.0,30.07,South,190,0.0,0.0,49,0.00,,---,0.01,VWS V14.01,2013-02-13 19:46:00,
2013-02-13 13:47:00,59.3,40.7,30.07,South,178,0.0,1.0,50,0.00,,---,0.01,VWS V14.01,2013-02-13 19:47:00,
2013-02-13 13:48:00,59.2,40.6,30.07,South,178,0.0,1.0,50,0.00,,---,0.01,VWS V14.01,2013-02-13 19:48:00,
2013-02-13 13:50:00,59.2,40.1,30.07,South,178,0.0,1.0,49,0.00,,---,0.01,VWS V14.01,2013-02-13 19:50:00,
2013-02-13 13:51:00,59.3,40.7,30.07,South,178,0.0,1.0,50,0.00,,---,0.01,VWS V14.01,2013-02-13 19:51:00,
2013-02-13 13:52:00,59.4,40.8,30.07,South,169,0.0,2.0,50,0.00,,---,0.01,VWS V14.01,2013-02-13 19:52:00,
2013-02-13 13:53:00,59.3,40.7,30.07,South,178,0.0,2.0,50,0.00,,---,0.01,VWS V14.01,2013-02-13 19:53:00,
2013-02-13 13:54:00,59.4,40.8,30.07,South,178,0.0,2.0,50,0.00,,---,0.01,VWS V14.01,2013-02-13 19:54:00,
2013-02-13 13:55:00,59.4,40.2,30.07,South,178,0.0,2.0,49,0.00,,---,0.01,VWS V14.01,2013-02-13 19:55:00,
2013-02-13 13:56:00,59.4,40.2,30.07,South,177,0.0,2.0,49,0.00,,---,0.01,VWS V14.01,2013-02-13 19:56:00,
2013-02-13 13:57:00,59.2,40.1,30.07,South,169,0.0,4.0,49,0.00,,---,0.01,VWS V14.01,2013-02-13 19:57:00,
2013-02-13 13:58:00,59.3,40.2,30.07,SSE,168,1.0,2.0,49,0.00,,---,0.01,VWS V14.01,2013-02-13 19:58:00,
2013-02-13 13:59:00,59.2,40.6,30.07,SSE,168,0.0,2.0,50,0.00,,---,0.01,VWS V14.01,2013-02-13 19:59:00,
2013-02-13 14:00:00,59.2,41.1,30.07,South,169,1.0,4.0,51,0.00,,---,0.01,VWS V14.01,2013-02-13 20:00:00,
2013-02-13 14:01:00,59.2,40.6,30.07,South,169,0.0,4.0,50,0.00,,---,0.01,VWS V14.01,2013-02-13 20:01:00,
2013-02-13 14:02:00,59.0,40.4,30.07,South,172,5.0,8.0,50,0.00,,---,0.01,VWS V14.01,2013-02-13 20:02:00,
2013-02-13 14:03:00,59.1,39.5,30.07,South,169,0.0,4.0,48,0.00,,---,0.01,VWS V14.01,2013-02-13 20:03:00,
2013-02-13 14:04:00,59.1,40.0,30.07,South,169,4.0,4.0,49,0.00,,---,0.01,VWS V14.01,2013-02-13 20:04:00,
2013-02-13 14:05:00,59.0,39.9,30.07,SSE,165,5.0,6.0,49,0.00,,---,0.01,VWS V14.01,2013-02-13 20:05:00,
2013-02-13 14:06:00,59.0,39.9,30.07,SSE,163,2.0,6.0,49,0.00,,---,0.01,VWS V14.01,2013-02-13 20:06:00,
2013-02-13 14:07:00,58.5,39.4,30.06,SSE,168,0.0,4.0,49,0.00,,---,0.01,VWS V14.01,2013-02-13 20:07:00,
2013-02-13 14:08:00,58.9,39.8,30.07,South,169,0.0,8.0,49,0.00,,---,0.01,VWS V14.01,2013-02-13 20:08:00,
2013-02-13 14:09:00,58.8,39.2,30.07,South,169,0.0,8.0,48,0.00,,---,0.01,VWS V14.01,2013-02-13 20:09:00,
2013-02-13 14:11:00,58.6,39.5,30.07,SSE,168,0.0,8.0,49,0.00,,---,0.01,VWS V14.01,2013-02-13 20:11:00,
2013-02-13 14:12:00,58.2,39.7,30.06,SSE,163,0.0,3.0,50,0.00,,---,0.01,VWS V14.01,2013-02-13 20:12:00,
2013-02-13 14:13:00,58.4,38.8,30.06,SSE,163,0.0,2.0,48,0.00,,---,0.01,VWS V14.01,2013-02-13 20:13:00,
2013-02-13 14:14:00,58.3,39.2,30.06,SSE,163,0.0,2.0,49,0.00,,---,0.01,VWS V14.01,2013-02-13 20:14:00,
2013-02-13 14:15:00,58.3,39.8,30.06,SSE,163,0.0,2.0,50,0.00,,---,0.01,VWS V14.01,2013-02-13 20:15:00,
2013-02-13 14:16:00,58.2,39.7,30.06,SSE,163,0.0,3.0,50,0.00,,---,0.01,VWS V14.01,2013-02-13 20:16:00,
2013-02-13 14:17:00,58.5,40.5,30.06,South,170,0.0,2.0,51,0.00,,---,0.01,VWS V14.01,2013-02-13 20:17:00,
2013-02-13 14:18:00,58.2,39.7,30.06,SSE,163,0.0,3.0,50,0.00,,---,0.01,VWS V14.01,2013-02-13 20:18:00,
2013-02-13 14:19:00,58.2,40.2,30.06,SSE,163,0.0,3.0,51,0.00,,---,0.01,VWS V14.01,2013-02-13 20:19:00,
2013-02-13 14:20:00,58.3,40.8,30.06,South,169,2.0,3.0,52,0.00,,---,0.01,VWS V14.01,2013-02-13 20:20:00,
2013-02-13 14:21:00,58.4,40.4,30.06,South,170,0.0,2.0,51,0.00,,---,0.01,VWS V14.01,2013-02-13 20:21:00,
2013-02-13 14:22:00,59.0,39.9,30.06,South,170,1.0,2.0,49,0.00,,---,0.01,VWS V14.01,2013-02-13 20:22:00,
2013-02-13 14:23:00,58.7,39.6,30.06,South,170,0.0,2.0,49,0.00,,---,0.01,VWS V14.01,2013-02-13 20:23:00,
2013-02-13 14:24:00,58.8,39.2,30.06,South,170,0.0,2.0,48,0.00,,---,0.01,VWS V14.01,2013-02-13 20:24:00,
2013-02-13 14:25:00,58.9,39.3,30.06,South,170,0.0,2.0,48,0.00,,---,0.01,VWS V14.01,2013-02-13 20:25:00,
2013-02-13 14:26:00,58.9,39.3,30.06,South,170,0.0,2.0,48,0.00,,---,0.01,VWS V14.01,2013-02-13 20:26:00,
2013-02-13 14:27:00,59.3,40.2,30.06,South,174,4.0,6.0,49,0.00,,---,0.01,VWS V14.01,2013-02-13 20:27:00,
2013-02-13 14:28:00,59.0,40.4,30.06,South,170,0.0,1.0,50,0.00,,---,0.01,VWS V14.01,2013-02-13 20:28:00,
2013-02-13 14:29:00,59.1,40.5,30.06,South,170,0.0,1.0,50,0.00,,---,0.01,VWS V14.01,2013-02-13 20:29:00,
2013-02-13 14:30:00,59.2,40.1,30.06,South,170,0.0,1.0,49,0.00,,---,0.01,VWS V14.01,2013-02-13 20:30:00,
2013-02-13 14:31:00,59.2,39.5,30.06,South,170,0.0,1.0,48,0.00,,---,0.01,VWS V14.01,2013-02-13 20:31:00,
2013-02-13 14:32:00,59.6,39.9,30.06,South,178,0.0,7.0,48,0.00,,---,0.01,VWS V14.01,2013-02-13 20:32:00,
2013-02-13 14:33:00,59.4,40.2,30.06,South,175,2.0,6.0,49,0.00,,---,0.01,VWS V14.01,2013-02-13 20:33:00,
2013-02-13 14:34:00,59.4,41.3,30.06,South,175,3.0,6.0,51,0.00,,---,0.01,VWS V14.01,2013-02-13 20:34:00,
2013-02-13 14:35:00,59.5,41.4,30.06,South,175,2.0,6.0,51,0.00,,---,0.01,VWS V14.01,2013-02-13 20:35:00,
2013-02-13 14:36:00,59.6,40.4,30.06,South,178,0.0,7.0,49,0.00,,---,0.01,VWS V14.01,2013-02-13 20:36:00,
2013-02-13 14:37:00,59.8,40.6,30.06,South,187,0.0,4.0,49,0.00,,---,0.01,VWS V14.01,2013-02-13 20:37:00,
2013-02-13 14:38:00,59.7,40.0,30.06,South,178,0.0,7.0,48,0.00,,---,0.01,VWS V14.01,2013-02-13 20:38:00,
2013-02-13 14:40:00,59.7,40.5,30.06,South,178,0.0,7.0,49,0.00,,---,0.01,VWS V14.01,2013-02-13 20:40:00,
2013-02-13 14:41:00,59.8,40.6,30.06,South,187,1.0,4.0,49,0.00,,---,0.01,VWS V14.01,2013-02-13 20:41:00,
2013-02-13 14:42:00,60.5,40.7,30.05,South,184,2.0,3.0,48,0.00,,---,0.01,VWS V14.01,2013-02-13 20:42:00,
2013-02-13 14:43:00,60.0,40.8,30.05,South,188,1.0,4.0,49,0.00,,---,0.01,VWS V14.01,2013-02-13 20:43:00,
2013-02-13 14:44:00,60.1,40.4,30.06,South,188,0.0,4.0,48,0.00,,---,0.01,VWS V14.01,2013-02-13 20:44:00,
2013-02-13 14:45:00,60.3,40.5,30.05,South,188,0.0,4.0,48,0.00,,---,0.01,VWS V14.01,2013-02-13 20:45:00,
2013-02-13 14:46:00,60.4,40.6,30.05,South,188,1.0,3.0,48,0.00,,---,0.01,VWS V14.01,2013-02-13 20:46:00,
2013-02-13 14:47:00,60.7,40.4,30.05,South,188,0.0,6.0,47,0.00,,---,0.01,VWS V14.01,2013-02-13 20:47:00,
2013-02-13 14:48:00,60.6,39.7,30.05,South,187,4.0,6.0,46,0.00,,---,0.01,VWS V14.01,2013-02-13 20:48:00,
2013-02-13 14:49:00,60.6,40.3,30.05,South,187,0.0,6.0,47,0.00,,---,0.01,VWS V14.01,2013-02-13 20:49:00,
2013-02-13 14:50:00,60.7,40.9,30.05,South,187,1.0,6.0,48,0.00,,---,0.01,VWS V14.01,2013-02-13 20:50:00,
2013-02-13 14:51:00,60.7,40.4,30.05,South,188,2.0,6.0,47,0.00,,---,0.01,VWS V14.01,2013-02-13 20:51:00,
2013-02-13 14:52:00,61.1,40.2,30.05,SSW,193,5.0,7.0,46,0.00,,---,0.01,VWS V14.01,2013-02-13 20:52:00,
2013-02-13 14:53:00,60.8,40.5,30.05,South,190,4.0,5.0,47,0.00,,---,0.01,VWS V14.01,2013-02-13 20:53:00,
2013-02-13 14:54:00,60.9,40.6,30.05,SSW,192,4.0,6.0,47,0.00,,---,0.01,VWS V14.01,2013-02-13 20:54:00,
2013-02-13 14:55:00,61.0,40.7,30.05,SSW,195,6.0,7.0,47,0.00,,---,0.01,VWS V14.01,2013-02-13 20:55:00,
2013-02-13 14:56:00,61.1,40.7,30.05,SSW,198,6.0,7.0,47,0.00,,---,0.01,VWS V14.01,2013-02-13 20:56:00,
2013-02-13 14:57:00,61.2,40.3,30.05,SSW,197,0.0,6.0,46,0.00,,---,0.01,VWS V14.01,2013-02-13 20:57:00,
2013-02-13 14:58:00,61.1,39.6,30.05,SSW,194,3.0,7.0,45,0.00,,---,0.01,VWS V14.01,2013-02-13 20:58:00,
2013-02-13 14:59:00,61.1,40.7,30.05,SSW,196,6.0,7.0,47,0.00,,---,0.01,VWS V14.01,2013-02-13 20:59:00,
2013-02-13 15:00:00,61.1,40.7,30.05,SSW,197,3.0,6.0,47,0.00,,---,0.01,VWS V14.01,2013-02-13 21:00:00,
2013-02-13 15:01:00,61.2,40.8,30.05,SSW,197,0.0,6.0,47,0.00,,---,0.01,VWS V14.01,2013-02-13 21:01:00,
2013-02-13 15:02:00,61.4,39.3,30.05,SSW,197,0.0,2.0,44,0.00,,---,0.01,VWS V14.01,2013-02-13 21:02:00,
2013-02-13 15:03:00,61.3,40.9,30.05,SSW,197,2.0,6.0,47,0.00,,---,0.01,VWS V14.01,2013-02-13 21:03:00,
2013-02-13 15:04:00,61.3,39.8,30.05,SSW,197,0.0,4.0,45,0.00,,---,0.01,VWS V14.01,2013-02-13 21:04:00,
2013-02-13 15:05:00,61.4,39.9,30.05,SSW,197,0.0,4.0,45,0.00,,---,0.01,VWS V14.01,2013-02-13 21:05:00,
2013-02-13 15:06:00,61.4,39.9,30.05,SSW,197,0.0,2.0,45,0.00,,---,0.01,VWS V14.01,2013-02-13 21:06:00,
2013-02-13 15:07:00,61.5,39.4,30.05,SSW,197,0.0,1.0,44,0.00,,---,0.01,VWS V14.01,2013-02-13 21:07:00,
2013-02-13 15:08:00,61.5,39.4,30.05,SSW,197,0.0,2.0,44,0.00,,---,0.01,VWS V14.01,2013-02-13 21:08:00,
2013-02-13 15:09:00,61.5,38.8,30.05,SSW,197,0.0,2.0,43,0.00,,---,0.01,VWS V14.01,2013-02-13 21:09:00,
2013-02-13 15:10:00,61.5,38.8,30.05,SSW,197,0.0,2.0,43,0.00,,---,0.01,VWS V14.01,2013-02-13 21:10:00,
2013-02-13 15:11:00,61.5,39.4,30.05,SSW,197,0.0,1.0,44,0.00,,---,0.01,VWS V14.01,2013-02-13 21:11:00,
2013-02-13 15:12:00,61.3,39.2,30.04,South,183,0.0,7.0,44,0.00,,---,0.01,VWS V14.01,2013-02-13 21:12:00,
2013-02-13 15:13:00,61.5,38.8,30.05,South,185,5.0,7.0,43,0.00,,---,0.01,VWS V14.01,2013-02-13 21:13:00,
2013-02-13 15:14:00,61.4,38.7,30.05,South,188,6.0,7.0,43,0.00,,---,0.01,VWS V14.01,2013-02-13 21:14:00,
2013-02-13 15:15:00,61.4,39.3,30.04,South,187,2.0,7.0,44,0.00,,---,0.01,VWS V14.01,2013-02-13 21:15:00,
2013-02-13 15:16:00,61.4,39.3,30.04,South,185,3.0,7.0,44,0.00,,---,0.01,VWS V14.01,2013-02-13 21:16:00,
2013-02-13 15:17:00,61.0,39.0,30.04,South,184,2.0,7.0,44,0.00,,---,0.01,VWS V14.01,2013-02-13 21:17:00,
2013-02-13 15:18:00,61.2,38.5,30.04,South,184,6.0,6.0,43,0.00,,---,0.01,VWS V14.01,2013-02-13 21:18:00,
2013-02-13 15:19:00,61.2,38.5,30.04,South,184,4.0,7.0,43,0.00,,---,0.01,VWS V14.01,2013-02-13 21:19:00,
2013-02-13 15:21:00,61.0,39.0,30.04,South,182,4.0,7.0,44,0.00,,---,0.01,VWS V14.01,2013-02-13 21:21:00,
2013-02-13 15:22:00,60.6,38.6,30.04,South,175,2.0,9.0,44,0.00,,---,0.01,VWS V14.01,2013-02-13 21:22:00,
2013-02-13 15:23:00,60.9,38.3,30.04,South,184,0.0,7.0,43,0.00,,---,0.01,VWS V14.01,2013-02-13 21:23:00,
2013-02-13 15:24:00,60.8,38.2,30.04,South,181,2.0,5.0,43,0.00,,---,0.01,VWS V14.01,2013-02-13 21:24:00,
2013-02-13 15:25:00,60.7,38.7,30.04,South,178,5.0,5.0,44,0.00,,---,0.01,VWS V14.01,2013-02-13 21:25:00,
2013-02-13 15:26:00,60.6,38.6,30.04,South,176,3.0,9.0,44,0.00,,---,0.01,VWS V14.01,2013-02-13 21:26:00,
2013-02-13 15:27:00,60.3,38.9,30.04,South,174,0.0,4.0,45,0.00,,---,0.01,VWS V14.01,2013-02-13 21:27:00,
2013-02-13 15:28:00,60.5,38.5,30.04,South,174,3.0,9.0,44,0.00,,---,0.01,VWS V14.01,2013-02-13 21:28:00,
2013-02-13 15:29:00,60.4,38.4,30.04,South,174,1.0,9.0,44,0.00,,---,0.01,VWS V14.01,2013-02-13 21:29:00,
2013-02-13 15:30:00,60.4,38.4,30.04,South,174,0.0,9.0,44,0.00,,---,0.01,VWS V14.01,2013-02-13 21:30:00,
2013-02-13 15:31:00,60.3,38.3,30.04,South,174,1.0,6.0,44,0.00,,---,0.01,VWS V14.01,2013-02-13 21:31:00,
2013-02-13 15:32:00,60.5,39.1,30.04,South,185,2.0,3.0,45,0.00,,---,0.01,VWS V14.01,2013-02-13 21:32:00,
2013-02-13 15:33:00,60.3,38.9,30.04,South,181,1.0,4.0,45,0.00,,---,0.01,VWS V14.01,2013-02-13 21:33:00,
2013-02-13 15:34:00,60.4,39.0,30.04,South,181,1.0,3.0,45,0.00,,---,0.01,VWS V14.01,2013-02-13 21:34:00,
2013-02-13 15:35:00,60.4,39.0,30.04,South,184,3.0,3.0,45,0.00,,---,0.01,VWS V14.01,2013-02-13 21:35:00,
2013-02-13 15:36:00,60.5,39.1,30.04,South,184,2.0,3.0,45,0.00,,---,0.01,VWS V14.01,2013-02-13 21:36:00,
2013-02-13 15:37:00,60.8,38.2,30.04,South,189,5.0,6.0,43,0.00,,---,0.01,VWS V14.01,2013-02-13 21:37:00,
2013-02-13 15:38:00,60.6,38.6,30.04,South,185,0.0,3.0,44,0.00,,---,0.01,VWS V14.01,2013-02-13 21:38:00,
2013-02-13 15:39:00,60.7,38.1,30.04,South,185,0.0,3.0,43,0.00,,---,0.01,VWS V14.01,2013-02-13 21:39:00,
2013-02-13 15:40:00,60.7,38.1,30.04,South,186,3.0,3.0,43,0.00,,---,0.01,VWS V14.01,2013-02-13 21:40:00,
2013-02-13 15:41:00,60.8,38.2,30.04,South,189,2.0,6.0,43,0.00,,---,0.01,VWS V14.01,2013-02-13 21:41:00,
2013-02-13 15:42:00,60.8,38.2,30.04,South,188,0.0,5.0,43,0.00,,---,0.01,VWS V14.01,2013-02-13 21:42:00,
2013-02-13 15:43:00,60.9,38.3,30.04,South,188,2.0,6.0,43,0.00,,---,0.01,VWS V14.01,2013-02-13 21:43:00,
2013-02-13 15:44:00,60.9,37.7,30.04,South,188,1.0,6.0,42,0.00,,---,0.01,VWS V14.01,2013-02-13 21:44:00,
2013-02-13 15:45:00,60.9,37.7,30.04,South,188,0.0,6.0,42,0.00,,---,0.01,VWS V14.01,2013-02-13 21:45:00,
2013-02-13 15:46:00,60.8,37.0,30.04,South,188,1.0,5.0,41,0.00,,---,0.01,VWS V14.01,2013-02-13 21:46:00,
2013-02-13 15:47:00,60.8,38.2,30.04,SSW,206,2.0,5.0,43,0.00,,---,0.01,VWS V14.01,2013-02-13 21:47:00,
2013-02-13 15:48:00,60.7,37.5,30.04,South,188,0.0,3.0,42,0.00,,---,0.01,VWS V14.01,2013-02-13 21:48:00,
2013-02-13 15:49:00,60.7,37.5,30.04,South,190,0.0,3.0,42,0.00,,---,0.01,VWS V14.01,2013-02-13 21:49:00,
2013-02-13 15:50:00,60.7,38.1,30.03,SSW,192,3.0,5.0,43,0.00,,---,0.01,VWS V14.01,2013-02-13 21:50:00,
2013-02-13 15:51:00,60.8,38.2,30.04,SSW,206,0.0,5.0,43,0.00,,---,0.01,VWS V14.01,2013-02-13 21:51:00,
2013-02-13 15:52:00,61.1,37.9,30.04,SSW,202,2.0,5.0,42,0.00,,---,0.01,VWS V14.01,2013-02-13 21:52:00,
2013-02-13 15:53:00,60.8,38.2,30.04,SSW,206,1.0,5.0,43,0.00,,---,0.01,VWS V14.01,2013-02-13 21:53:00,
2013-02-13 15:54:00,60.9,38.3,30.04,SSW,206,4.0,5.0,43,0.00,,---,0.01,VWS V14.01,2013-02-13 21:54:00,
2013-02-13 15:55:00,60.9,38.3,30.04,SSW,202,3.0,5.0,43,0.00,,---,0.01,VWS V14.01,2013-02-13 21:55:00,
2013-02-13 15:56:00,61.0,37.8,30.04,SSW,203,3.0,5.0,42,0.00,,---,0.01,VWS V14.01,2013-02-13 21:56:00,
2013-02-13 15:57:00,61.0,37.8,30.03,SSW,199,3.0,5.0,42,0.00,,---,0.01,VWS V14.01,2013-02-13 21:57:00,
2013-02-13 15:58:00,61.1,37.2,30.04,SSW,202,0.0,5.0,41,0.00,,---,0.01,VWS V14.01,2013-02-13 21:58:00,
2013-02-13 15:59:00,61.1,37.2,30.04,SSW,202,0.0,5.0,41,0.00,,---,0.01,VWS V14.01,2013-02-13 21:59:00,
2013-02-13 16:00:00,61.1,37.2,30.03,SSW,200,1.0,5.0,41,0.00,,---,0.01,VWS V14.01,2013-02-13 22:00:00,
2013-02-13 16:01:00,61.0,37.8,30.04,SSW,199,4.0,5.0,42,0.00,,---,0.01,VWS V14.01,2013-02-13 22:01:00,
2013-02-13 16:02:00,60.9,37.7,30.03,SSW,198,1.0,10.0,42,0.00,,---,0.01,VWS V14.01,2013-02-13 22:02:00,
2013-02-13 16:03:00,60.9,37.7,30.04,SSW,205,5.0,5.0,42,0.00,,---,0.01,VWS V14.01,2013-02-13 22:03:00,
2013-02-13 16:05:00,60.9,38.3,30.04,SSW,198,10.0,10.0,43,0.00,,---,0.01,VWS V14.01,2013-02-13 22:05:00,
2013-02-13 16:06:00,60.9,37.7,30.03,SSW,197,4.0,10.0,42,0.00,,---,0.01,VWS V14.01,2013-02-13 22:06:00,
2013-02-13 16:07:00,60.9,37.1,30.03,SSW,196,0.0,5.0,41,0.00,,---,0.01,VWS V14.01,2013-02-13 22:07:00,
2013-02-13 16:08:00,60.9,37.7,30.03,SSW,198,2.0,10.0,42,0.00,,---,0.01,VWS V14.01,2013-02-13 22:08:00,
2013-02-13 16:09:00,60.9,37.7,30.03,SSW,198,2.0,10.0,42,0.00,,---,0.01,VWS V14.01,2013-02-13 22:09:00,
2013-02-13 16:10:00,60.9,38.3,30.03,SSW,198,3.0,10.0,43,0.00,,---,0.01,VWS V14.01,2013-02-13 22:10:00,
2013-02-13 16:11:00,60.9,37.7,30.03,SSW,196,0.0,5.0,42,0.00,,---,0.01,VWS V14.01,2013-02-13 22:11:00,
2013-02-13 16:12:00,60.8,37.6,30.03,SSW,196,0.0,3.0,42,0.00,,---,0.01,VWS V14.01,2013-02-13 22:12:00,
2013-02-13 16:13:00,60.8,37.6,30.03,SSW,196,0.0,5.0,42,0.00,,---,0.01,VWS V14.01,2013-02-13 22:13:00,
2013-02-13 16:14:00,60.8,37.6,30.03,SSW,196,0.0,5.0,42,0.00,,---,0.01,VWS V14.01,2013-02-13 22:14:00,
2013-02-13 16:15:00,60.8,37.6,30.03,SSW,196,0.0,5.0,42,0.00,,---,0.01,VWS V14.01,2013-02-13 22:15:00,
2013-02-13 16:17:00,60.7,36.9,30.03,SSW,196,1.0,2.0,41,0.00,,---,0.01,VWS V14.01,2013-02-13 22:17:00,
2013-02-13 16:18:00,60.8,37.0,30.03,SSW,196,0.0,1.0,41,0.00,,---,0.01,VWS V14.01,2013-02-13 22:18:00,
2013-02-13 16:19:00,60.8,36.3,30.03,SSW,196,0.0,1.0,40,0.00,,---,0.01,VWS V14.01,2013-02-13 22:19:00,
2013-02-13 16:20:00,60.7,36.9,30.03,SSW,196,0.0,1.0,41,0.00,,---,0.01,VWS V14.01,2013-02-13 22:20:00,
2013-02-13 16:22:00,60.7,37.5,30.03,SSW,198,1.0,7.0,42,0.00,,---,0.01,VWS V14.01,2013-02-13 22:22:00,
2013-02-13 16:23:00,60.7,36.9,30.03,SSW,197,1.0,4.0,41,0.00,,---,0.01,VWS V14.01,2013-02-13 22:23:00,
2013-02-13 16:25:00,60.7,37.5,30.03,SSW,198,4.0,7.0,42,0.00,,---,0.01,VWS V14.01,2013-02-13 22:25:00,
2013-02-13 16:26:00,60.7,37.5,30.03,SSW,198,0.0,7.0,42,0.00,,---,0.01,VWS V14.01,2013-02-13 22:26:00,
2013-02-13 16:27:00,60.9,36.4,30.03,SSW,198,1.0,5.0,40,0.00,,---,0.01,VWS V14.01,2013-02-13 22:27:00,
2013-02-13 16:28:00,60.8,37.0,30.03,SSW,198,3.0,7.0,41,0.00,,---,0.01,VWS V14.01,2013-02-13 22:28:00,
2013-02-13 16:29:00,60.8,37.0,30.03,SSW,198,2.0,5.0,41,0.00,,---,0.01,VWS V14.01,2013-02-13 22:29:00,
2013-02-13 16:30:00,60.8,37.0,30.03,SSW,198,2.0,5.0,41,0.00,,---,0.01,VWS V14.01,2013-02-13 22:30:00,
2013-02-13 16:32:00,60.9,36.4,30.03,SSW,198,0.0,3.0,40,0.00,,---,0.01,VWS V14.01,2013-02-13 22:32:00,
2013-02-13 16:33:00,60.9,36.4,30.03,SSW,198,2.0,5.0,40,0.00,,---,0.01,VWS V14.01,2013-02-13 22:33:00,
2013-02-13 16:34:00,60.9,36.4,30.03,SSW,198,0.0,4.0,40,0.00,,---,0.01,VWS V14.01,2013-02-13 22:34:00,
2013-02-13 16:36:00,60.9,36.4,30.03,SSW,198,3.0,3.0,40,0.00,,---,0.01,VWS V14.01,2013-02-13 22:36:00,
2013-02-13 16:37:00,60.8,36.3,30.03,SSW,200,0.0,4.0,40,0.00,,---,0.01,VWS V14.01,2013-02-13 22:37:00,
2013-02-13 16:38:00,60.9,36.4,30.03,SSW,198,0.0,3.0,40,0.00,,---,0.01,VWS V14.01,2013-02-13 22:38:00,
2013-02-13 16:39:00,60.9,36.4,30.03,SSW,198,3.0,4.0,40,0.00,,---,0.01,VWS V14.01,2013-02-13 22:39:00,
2013-02-13 16:41:00,60.9,35.8,30.03,SSW,200,2.0,4.0,39,0.00,,---,0.01,VWS V14.01,2013-02-13 22:41:00,
2013-02-13 16:42:00,60.7,35.6,30.03,SSW,200,2.0,5.0,39,0.00,,---,0.01,VWS V14.01,2013-02-13 22:42:00,
2013-02-13 16:43:00,60.8,35.7,30.03,SSW,200,0.0,4.0,39,0.00,,---,0.01,VWS V14.01,2013-02-13 22:43:00,
2013-02-13 16:44:00,60.8,35.7,30.03,SSW,200,3.0,5.0,39,0.00,,---,0.01,VWS V14.01,2013-02-13 22:44:00,
2013-02-13 16:45:00,60.8,36.3,30.03,SSW,200,2.0,5.0,40,0.00,,---,0.01,VWS V14.01,2013-02-13 22:45:00,
2013-02-13 16:46:00,60.8,35.7,30.03,SSW,200,0.0,5.0,39,0.00,,---,0.01,VWS V14.01,2013-02-13 22:46:00,
2013-02-13 16:47:00,60.6,36.2,30.03,SSW,200,1.0,4.0,40,0.00,,---,0.01,VWS V14.01,2013-02-13 22:47:00,
2013-02-13 16:48:00,60.7,35.6,30.03,SSW,200,0.0,5.0,39,0.00,,---,0.01,VWS V14.01,2013-02-13 22:48:00,
2013-02-13 16:49:00,60.7,35.6,30.03,SSW,200,0.0,4.0,39,0.00,,---,0.01,VWS V14.01,2013-02-13 22:49:00,
2013-02-13 16:50:00,60.7,35.6,30.03,SSW,200,1.0,4.0,39,0.00,,---,0.01,VWS V14.01,2013-02-13 22:50:00,
2013-02-13 16:51:00,60.6,36.2,30.03,SSW,200,0.0,4.0,40,0.00,,---,0.01,VWS V14.01,2013-02-13 22:51:00,
2013-02-13 16:52:00,60.4,36.0,30.03,South,190,2.0,7.0,40,0.00,,---,0.01,VWS V14.01,2013-02-13 22:52:00,
2013-02-13 16:54:00,60.5,35.4,30.03,SSW,200,0.0,4.0,39,0.00,,---,0.01,VWS V14.01,2013-02-13 22:54:00,
2013-02-13 16:55:00,60.5,35.4,30.03,SSW,196,5.0,5.0,39,0.00,,---,0.01,VWS V14.01,2013-02-13 22:55:00,
2013-02-13 16:56:00,60.5,36.1,30.03,South,190,3.0,7.0,40,0.00,,---,0.01,VWS V14.01,2013-02-13 22:56:00,
2013-02-13 16:57:00,60.2,36.4,30.03,SSW,196,0.0,10.0,41,0.00,,---,0.01,VWS V14.01,2013-02-13 22:57:00,
2013-02-13 16:58:00,60.4,36.0,30.03,South,189,4.0,7.0,40,0.00,,---,0.01,VWS V14.01,2013-02-13 22:58:00,
2013-02-13 16:59:00,60.4,36.0,30.03,South,188,5.0,7.0,40,0.00,,---,0.01,VWS V14.01,2013-02-13 22:59:00,
2013-02-13 17:00:00,60.3,35.9,30.03,SSW,195,4.0,10.0,40,0.00,,---,0.01,VWS V14.01,2013-02-13 23:00:00,
2013-02-13 17:01:00,60.2,36.4,30.03,SSW,196,2.0,10.0,41,0.00,,---,0.01,VWS V14.01,2013-02-13 23:01:00,
2013-02-13 17:02:00,60.1,36.3,30.03,SSW,194,3.0,5.0,41,0.00,,---,0.01,VWS V14.01,2013-02-13 23:02:00,
2013-02-13 17:03:00,60.2,36.4,30.03,SSW,196,0.0,10.0,41,0.00,,---,0.01,VWS V14.01,2013-02-13 23:03:00,
2013-02-13 17:04:00,60.2,36.4,30.03,SSW,196,2.0,10.0,41,0.00,,---,0.01,VWS V14.01,2013-02-13 23:04:00,
2013-02-13 17:05:00,60.2,35.8,30.03,SSW,196,3.0,5.0,40,0.00,,---,0.01,VWS V14.01,2013-02-13 23:05:00,
2013-02-13 17:06:00,60.1,36.3,30.03,SSW,195,4.0,5.0,41,0.00,,---,0.01,VWS V14.01,2013-02-13 23:06:00,
2013-02-13 17:07:00,59.8,35.5,30.03,SSW,194,2.0,5.0,40,0.00,,---,0.01,VWS V14.01,2013-02-13 23:07:00,
2013-02-13 17:08:00,60.0,36.2,30.03,SSW,195,3.0,5.0,41,0.00,,---,0.01,VWS V14.01,2013-02-13 23:08:00,
2013-02-13 17:09:00,60.0,36.9,30.03,SSW,195,3.0,5.0,42,0.00,,---,0.01,VWS V14.01,2013-02-13 23:09:00,
2013-02-13 17:10:00,59.9,36.2,30.03,SSW,194,3.0,5.0,41,0.00,,---,0.01,VWS V14.01,2013-02-13 23:10:00,
2013-02-13 17:11:00,59.9,36.2,30.03,SSW,194,1.0,5.0,41,0.00,,---,0.01,VWS V14.01,2013-02-13 23:11:00,
2013-02-13 17:12:00,59.5,35.8,30.02,SSW,192,0.0,6.0,41,0.00,,---,0.01,VWS V14.01,2013-02-13 23:12:00,
2013-02-13 17:13:00,59.7,35.4,30.02,SSW,193,3.0,5.0,40,0.00,,---,0.01,VWS V14.01,2013-02-13 23:13:00,
2013-02-13 17:14:00,59.7,35.4,30.02,SSW,192,3.0,6.0,40,0.00,,---,0.01,VWS V14.01,2013-02-13 23:14:00,
2013-02-13 17:15:00,59.6,35.3,30.03,SSW,192,0.0,6.0,40,0.00,,---,0.01,VWS V14.01,2013-02-13 23:15:00,
2013-02-13 17:17:00,59.3,35.6,30.02,SSW,192,1.0,3.0,41,0.00,,---,0.01,VWS V14.01,2013-02-13 23:17:00,
2013-02-13 17:18:00,59.5,35.8,30.02,SSW,192,0.0,6.0,41,0.00,,---,0.01,VWS V14.01,2013-02-13 23:18:00,
2013-02-13 17:19:00,59.4,36.3,30.02,SSW,192,0.0,3.0,42,0.00,,---,0.01,VWS V14.01,2013-02-13 23:19:00,
2013-02-13 17:20:00,59.4,35.7,30.02,SSW,192,0.0,3.0,41,0.00,,---,0.01,VWS V14.01,2013-02-13 23:20:00,
2013-02-13 17:21:00,59.3,35.6,30.02,SSW,192,0.0,3.0,41,0.00,,---,0.01,VWS V14.01,2013-02-13 23:21:00,
2013-02-13 17:22:00,59.0,36.0,30.02,SSW,192,1.0,2.0,42,0.00,,---,0.01,VWS V14.01,2013-02-13 23:22:00,
2013-02-13 17:23:00,59.2,36.1,30.02,SSW,192,0.0,3.0,42,0.00,,---,0.01,VWS V14.01,2013-02-13 23:23:00,
2013-02-13 17:24:00,59.2,36.1,30.02,SSW,192,2.0,3.0,42,0.00,,---,0.01,VWS V14.01,2013-02-13 23:24:00,
2013-02-13 17:25:00,59.1,36.0,30.02,SSW,192,0.0,3.0,42,0.00,,---,0.01,VWS V14.01,2013-02-13 23:25:00,
2013-02-13 17:26:00,59.1,36.0,30.02,SSW,192,0.0,3.0,42,0.00,,---,0.01,VWS V14.01,2013-02-13 23:26:00,
2013-02-13 17:27:00,58.7,35.7,30.02,South,190,1.0,5.0,42,0.00,,---,0.01,VWS V14.01,2013-02-13 23:27:00,
2013-02-13 17:28:00,59.0,36.0,30.02,SSW,192,0.0,2.0,42,0.00,,---,0.01,VWS V14.01,2013-02-13 23:28:00,
2013-02-13 17:29:00,58.9,35.9,30.02,SSW,192,0.0,2.0,42,0.00,,---,0.01,VWS V14.01,2013-02-13 23:29:00,
2013-02-13 17:30:00,58.9,36.5,30.02,South,191,5.0,5.0,43,0.00,,---,0.01,VWS V14.01,2013-02-13 23:30:00,
2013-02-13 17:31:00,58.8,35.8,30.02,South,190,1.0,5.0,42,0.00,,---,0.01,VWS V14.01,2013-02-13 23:31:00,
2013-02-13 17:32:00,58.5,35.5,30.02,South,190,0.0,2.0,42,0.00,,---,0.01,VWS V14.01,2013-02-13 23:32:00,
2013-02-13 17:33:00,58.7,35.7,30.02,South,190,0.0,5.0,42,0.00,,---,0.01,VWS V14.01,2013-02-13 23:33:00,
2013-02-13 17:34:00,58.6,35.6,30.02,South,190,0.0,5.0,42,0.00,,---,0.01,VWS V14.01,2013-02-13 23:34:00,
2013-02-13 17:35:00,58.6,35.6,30.02,South,190,2.0,5.0,42,0.00,,---,0.01,VWS V14.01,2013-02-13 23:35:00,
2013-02-13 17:36:00,58.5,35.5,30.02,South,190,1.0,2.0,42,0.00,,---,0.01,VWS V14.01,2013-02-13 23:36:00,
2013-02-13 17:37:00,58.2,35.8,30.02,South,190,0.0,3.0,43,0.00,,---,0.01,VWS V14.01,2013-02-13 23:37:00,
2013-02-13 17:38:00,58.4,35.4,30.02,South,190,1.0,2.0,42,0.00,,---,0.01,VWS V14.01,2013-02-13 23:38:00,
2013-02-13 17:39:00,58.4,35.4,30.02,South,190,1.0,2.0,42,0.00,,---,0.01,VWS V14.01,2013-02-13 23:39:00,
2013-02-13 17:40:00,58.3,35.9,30.01,South,190,2.0,3.0,43,0.00,,---,0.01,VWS V14.01,2013-02-13 23:40:00,
2013-02-13 17:41:00,58.2,35.2,30.02,South,190,0.0,3.0,42,0.00,,---,0.01,VWS V14.01,2013-02-13 23:41:00,
2013-02-13 17:42:00,57.9,36.1,30.02,South,190,2.0,2.0,44,0.00,,---,0.01,VWS V14.01,2013-02-13 23:42:00,
2013-02-13 17:43:00,58.1,35.7,30.02,South,190,0.0,3.0,43,0.00,,---,0.01,VWS V14.01,2013-02-13 23:43:00,
2013-02-13 17:44:00,58.0,35.7,30.02,South,190,0.0,3.0,43,0.00,,---,0.01,VWS V14.01,2013-02-13 23:44:00,
2013-02-13 17:45:00,58.0,36.2,30.02,South,190,1.0,2.0,44,0.00,,---,0.01,VWS V14.01,2013-02-13 23:45:00,
2013-02-13 17:46:00,57.9,36.1,30.02,South,190,0.0,1.0,44,0.00,,---,0.01,VWS V14.01,2013-02-13 23:46:00,
2013-02-13 17:47:00,57.5,35.2,30.02,South,190,0.0,3.0,43,0.00,,---,0.01,VWS V14.01,2013-02-13 23:47:00,
2013-02-13 17:48:00,57.8,35.5,30.02,South,190,0.0,2.0,43,0.00,,---,0.01,VWS V14.01,2013-02-13 23:48:00,
2013-02-13 17:49:00,57.7,35.4,30.02,South,190,0.0,2.0,43,0.00,,---,0.01,VWS V14.01,2013-02-13 23:49:00,
2013-02-13 17:50:00,57.6,35.3,30.02,South,190,2.0,2.0,43,0.00,,---,0.01,VWS V14.01,2013-02-13 23:50:00,
2013-02-13 17:51:00,57.6,35.3,30.02,South,190,1.0,3.0,43,0.00,,---,0.01,VWS V14.01,2013-02-13 23:51:00,
2013-02-13 17:52:00,57.2,35.5,30.02,South,190,1.0,1.0,44,0.00,,---,0.01,VWS V14.01,2013-02-13 23:52:00,
2013-02-13 17:53:00,57.4,35.7,30.01,South,190,0.0,3.0,44,0.00,,---,0.01,VWS V14.01,2013-02-13 23:53:00,
2013-02-13 17:54:00,57.4,35.7,30.02,South,190,0.0,3.0,44,0.00,,---,0.01,VWS V14.01,2013-02-13 23:54:00,
2013-02-13 17:55:00,57.3,35.6,30.02,South,190,0.0,3.0,44,0.00,,---,0.01,VWS V14.01,2013-02-13 23:55:00,
2013-02-13 17:56:00,57.2,35.5,30.02,South,190,1.0,1.0,44,0.00,,---,0.01,VWS V14.01,2013-02-13 23:56:00,
2013-02-13 17:57:00,56.7,35.0,30.02,South,190,1.0,3.0,44,0.00,,---,0.01,VWS V14.01,2013-02-13 23:57:00,
2013-02-13 17:58:00,57.1,35.4,30.02,South,190,1.0,3.0,44,0.00,,---,0.01,VWS V14.01,2013-02-13 23:58:00,
2013-02-13 17:59:00,57.0,35.3,30.02,South,190,0.0,3.0,44,0.00,,---,0.01,VWS V14.01,2013-02-13 23:59:00,
2013-02-13 18:00:00,56.9,35.2,30.02,South,190,1.0,3.0,44,0.00,,---,0.01,VWS V14.01,2013-02-14 00:00:00,
2013-02-13 18:01:00,56.8,35.7,30.02,South,190,2.0,3.0,45,0.00,,---,0.01,VWS V14.01,2013-02-14 00:01:00,
2013-02-13 18:02:00,56.1,35.1,30.02,South,190,1.0,3.0,45,0.00,,---,0.01,VWS V14.01,2013-02-14 00:02:00,
2013-02-13 18:03:00,56.5,35.4,30.02,South,190,1.0,3.0,45,0.00,,---,0.01,VWS V14.01,2013-02-14 00:03:00,
2013-02-13 18:04:00,56.4,35.3,30.02,South,190,0.0,3.0,45,0.00,,---,0.01,VWS V14.01,2013-02-14 00:04:00,
2013-02-13 18:05:00,56.3,35.2,30.02,South,190,0.0,3.0,45,0.00,,---,0.01,VWS V14.01,2013-02-14 00:05:00,
2013-02-13 18:06:00,56.2,35.2,30.02,South,190,0.0,3.0,45,0.00,,---,0.01,VWS V14.01,2013-02-14 00:06:00,
2013-02-13 18:07:00,55.6,34.6,30.02,South,190,0.0,2.0,45,0.00,,---,0.01,VWS V14.01,2013-02-14 00:07:00,
2013-02-13 18:08:00,56.0,35.0,30.02,South,190,1.0,1.0,45,0.00,,---,0.01,VWS V14.01,2013-02-14 00:08:00,
2013-02-13 18:09:00,55.9,34.9,30.02,South,190,1.0,2.0,45,0.00,,---,0.01,VWS V14.01,2013-02-14 00:09:00,
2013-02-13 18:10:00,55.8,34.8,30.02,South,190,0.0,2.0,45,0.00,,---,0.01,VWS V14.01,2013-02-14 00:10:00,
2013-02-13 18:11:00,55.7,34.7,30.02,South,190,1.0,2.0,45,0.00,,---,0.01,VWS V14.01,2013-02-14 00:11:00,
2013-02-13 18:12:00,55.0,34.6,30.01,South,190,0.0,2.0,46,0.00,,---,0.01,VWS V14.01,2013-02-14 00:12:00,
2013-02-13 18:13:00,55.5,35.1,30.02,South,190,1.0,2.0,46,0.00,,---,0.01,VWS V14.01,2013-02-14 00:13:00,
2013-02-13 18:14:00,55.3,34.9,30.01,South,190,0.0,2.0,46,0.00,,---,0.01,VWS V14.01,2013-02-14 00:14:00,
2013-02-13 18:15:00,55.2,34.8,30.01,South,190,0.0,2.0,46,0.00,,---,0.01,VWS V14.01,2013-02-14 00:15:00,
2013-02-13 18:16:00,55.1,34.7,30.01,South,190,0.0,2.0,46,0.00,,---,0.01,VWS V14.01,2013-02-14 00:16:00,
2013-02-13 18:17:00,54.5,34.7,30.02,South,190,4.0,4.0,47,0.00,,---,0.01,VWS V14.01,2013-02-14 00:17:00,
2013-02-13 18:18:00,54.9,34.5,30.01,South,190,2.0,3.0,46,0.00,,---,0.01,VWS V14.01,2013-02-14 00:18:00,
2013-02-13 18:19:00,54.8,34.4,30.02,South,190,2.0,3.0,46,0.00,,---,0.01,VWS V14.01,2013-02-14 00:19:00,
2013-02-13 18:20:00,54.7,34.3,30.01,South,190,0.0,3.0,46,0.00,,---,0.01,VWS V14.01,2013-02-14 00:20:00,
2013-02-13 18:21:00,54.6,34.8,30.01,South,190,3.0,3.0,47,0.00,,---,0.01,VWS V14.01,2013-02-14 00:21:00,
2013-02-13 18:22:00,54.0,34.8,30.01,South,190,2.0,4.0,48,0.00,,---,0.01,VWS V14.01,2013-02-14 00:22:00,
2013-02-13 18:23:00,54.4,34.6,30.01,South,190,4.0,4.0,47,0.00,,---,0.01,VWS V14.01,2013-02-14 00:23:00,
2013-02-13 18:24:00,54.3,34.5,30.02,South,190,2.0,4.0,47,0.00,,---,0.01,VWS V14.01,2013-02-14 00:24:00,
2013-02-13 18:25:00,54.2,35.0,30.01,South,190,2.0,4.0,48,0.00,,---,0.01,VWS V14.01,2013-02-14 00:25:00,
2013-02-13 18:26:00,54.1,34.9,30.01,South,190,2.0,4.0,48,0.00,,---,0.01,VWS V14.01,2013-02-14 00:26:00,
2013-02-13 18:27:00,53.5,34.8,30.02,South,190,2.0,3.0,49,0.00,,---,0.01,VWS V14.01,2013-02-14 00:27:00,
2013-02-13 18:28:00,53.9,34.7,30.01,South,190,0.0,4.0,48,0.00,,---,0.01,VWS V14.01,2013-02-14 00:28:00,
2013-02-13 18:29:00,53.8,35.1,30.01,South,190,2.0,4.0,49,0.00,,---,0.01,VWS V14.01,2013-02-14 00:29:00,
2013-02-13 18:30:00,53.7,35.0,30.01,South,190,1.0,4.0,49,0.00,,---,0.01,VWS V14.01,2013-02-14 00:30:00,
2013-02-13 18:31:00,53.6,34.9,30.01,South,190,0.0,3.0,49,0.00,,---,0.01,VWS V14.01,2013-02-14 00:31:00,
2013-02-13 18:32:00,53.0,34.4,30.01,South,190,0.0,2.0,49,0.00,,---,0.01,VWS V14.01,2013-02-14 00:32:00,
2013-02-13 18:33:00,53.4,34.7,30.01,South,190,2.0,3.0,49,0.00,,---,0.01,VWS V14.01,2013-02-14 00:33:00,
2013-02-13 18:34:00,53.3,34.7,30.02,South,190,0.0,3.0,49,0.00,,---,0.01,VWS V14.01,2013-02-14 00:34:00,
2013-02-13 18:35:00,53.2,34.5,30.02,South,190,2.0,3.0,49,0.00,,---,0.01,VWS V14.01,2013-02-14 00:35:00,
2013-02-13 18:36:00,53.1,34.5,30.02,South,190,1.0,2.0,49,0.00,,---,0.01,VWS V14.01,2013-02-14 00:36:00,
2013-02-13 18:37:00,52.7,34.6,30.01,South,190,0.0,1.0,50,0.00,,---,0.01,VWS V14.01,2013-02-14 00:37:00,
2013-02-13 18:38:00,53.0,34.4,30.01,South,190,0.0,2.0,49,0.00,,---,0.01,VWS V14.01,2013-02-14 00:38:00,
2013-02-13 18:39:00,52.9,34.3,30.01,South,190,1.0,2.0,49,0.00,,---,0.01,VWS V14.01,2013-02-14 00:39:00,
2013-02-13 18:40:00,52.8,34.7,30.02,South,190,0.0,2.0,50,0.00,,---,0.01,VWS V14.01,2013-02-14 00:40:00,
2013-02-13 18:41:00,52.7,34.6,30.01,South,190,1.0,1.0,50,0.00,,---,0.01,VWS V14.01,2013-02-14 00:41:00,
2013-02-13 18:42:00,52.7,34.6,30.01,South,190,0.0,1.0,50,0.00,,---,0.01,VWS V14.01,2013-02-14 00:42:00,
2013-02-13 18:43:00,52.4,34.3,30.02,South,190,0.0,0.0,50,0.00,,---,0.01,VWS V14.01,2013-02-14 00:43:00,
2013-02-13 18:44:00,52.6,34.5,30.01,South,190,0.0,1.0,50,0.00,,---,0.01,VWS V14.01,2013-02-14 00:44:00,
2013-02-13 18:45:00,52.5,34.4,30.01,South,190,0.0,1.0,50,0.00,,---,0.01,VWS V14.01,2013-02-14 00:45:00,
2013-02-13 18:46:00,52.5,34.4,30.01,South,190,0.0,0.0,50,0.00,,---,0.01,VWS V14.01,2013-02-14 00:46:00,
2013-02-13 18:47:00,52.4,34.3,30.01,South,190,0.0,0.0,50,0.00,,---,0.01,VWS V14.01,2013-02-14 00:47:00,
2013-02-13 18:48:00,52.2,34.6,30.01,South,190,0.0,1.0,51,0.00,,---,0.01,VWS V14.01,2013-02-14 00:48:00,
2013-02-13 18:49:00,52.3,34.2,30.02,South,190,0.0,0.0,50,0.00,,---,0.01,VWS V14.01,2013-02-14 00:49:00,
2013-02-13 18:50:00,52.3,34.2,30.01,South,190,0.0,0.0,50,0.00,,---,0.01,VWS V14.01,2013-02-14 00:50:00,
2013-02-13 18:51:00,52.2,34.6,30.01,South,190,0.0,1.0,51,0.00,,---,0.01,VWS V14.01,2013-02-14 00:51:00,
2013-02-13 18:52:00,52.2,34.6,30.01,South,190,0.0,1.0,51,0.00,,---,0.01,VWS V14.01,2013-02-14 00:52:00,
2013-02-13 18:53:00,52.0,34.5,30.02,South,190,0.0,2.0,51,0.00,,---,0.01,VWS V14.01,2013-02-14 00:53:00,
2013-02-13 18:54:00,52.1,34.5,30.02,South,190,0.0,2.0,51,0.00,,---,0.01,VWS V14.01,2013-02-14 00:54:00,
2013-02-13 18:55:00,52.1,34.5,30.02,South,190,0.0,2.0,51,0.00,,---,0.01,VWS V14.01,2013-02-14 00:55:00,
2013-02-13 18:56:00,52.1,34.5,30.02,South,190,0.0,2.0,51,0.00,,---,0.01,VWS V14.01,2013-02-14 00:56:00,
2013-02-13 18:57:00,52.0,34.5,30.01,South,190,0.0,2.0,51,0.00,,---,0.01,VWS V14.01,2013-02-14 00:57:00,
2013-02-13 18:58:00,51.8,34.8,30.02,South,190,0.0,0.0,52,0.00,,---,0.01,VWS V14.01,2013-02-14 00:58:00,
2013-02-13 18:59:00,51.9,34.4,30.01,South,190,0.0,0.0,51,0.00,,---,0.01,VWS V14.01,2013-02-14 00:59:00,
2013-02-13 19:00:00,51.9,34.4,30.02,South,190,0.0,0.0,51,0.00,,---,0.01,VWS V14.01,2013-02-14 01:00:00,
2013-02-13 19:01:00,51.9,34.4,30.02,South,190,0.0,0.0,51,0.00,,---,0.01,VWS V14.01,2013-02-14 01:01:00,
2013-02-13 19:02:00,51.8,34.3,30.01,South,190,0.0,0.0,51,0.00,,---,0.01,VWS V14.01,2013-02-14 01:02:00,
2013-02-13 19:03:00,51.7,35.6,30.01,South,190,0.0,0.0,54,0.00,,---,0.01,VWS V14.01,2013-02-14 01:03:00,
2013-02-13 19:04:00,51.8,35.2,30.01,South,190,0.0,0.0,53,0.00,,---,0.01,VWS V14.01,2013-02-14 01:04:00,
2013-02-13 19:05:00,51.8,35.2,30.02,South,190,0.0,0.0,53,0.00,,---,0.01,VWS V14.01,2013-02-14 01:05:00,
2013-02-13 19:06:00,51.8,35.2,30.02,South,190,0.0,0.0,53,0.00,,---,0.01,VWS V14.01,2013-02-14 01:06:00,
2013-02-13 19:07:00,51.7,35.1,30.01,South,190,0.0,0.0,53,0.00,,---,0.01,VWS V14.01,2013-02-14 01:07:00,
2013-02-13 19:08:00,51.7,35.6,30.02,South,190,0.0,1.0,54,0.00,,---,0.01,VWS V14.01,2013-02-14 01:08:00,
2013-02-13 19:09:00,51.7,35.6,30.02,South,190,0.0,0.0,54,0.00,,---,0.01,VWS V14.01,2013-02-14 01:09:00,
2013-02-13 19:10:00,51.7,35.6,30.02,South,190,0.0,1.0,54,0.00,,---,0.01,VWS V14.01,2013-02-14 01:10:00,
2013-02-13 19:11:00,51.7,35.6,30.01,South,190,0.0,1.0,54,0.00,,---,0.01,VWS V14.01,2013-02-14 01:11:00,
2013-02-13 19:12:00,51.7,35.6,30.02,South,190,0.0,1.0,54,0.00,,---,0.01,VWS V14.01,2013-02-14 01:12:00,
2013-02-13 19:13:00,51.5,35.4,30.02,South,190,0.0,0.0,54,0.00,,---,0.01,VWS V14.01,2013-02-14 01:13:00,
2013-02-13 19:14:00,51.6,35.5,30.01,South,190,0.0,1.0,54,0.00,,---,0.01,VWS V14.01,2013-02-14 01:14:00,
2013-02-13 19:15:00,51.6,35.5,30.02,South,190,0.0,0.0,54,0.00,,---,0.01,VWS V14.01,2013-02-14 01:15:00,
2013-02-13 19:16:00,51.6,35.5,30.02,South,190,0.0,0.0,54,0.00,,---,0.01,VWS V14.01,2013-02-14 01:16:00,
2013-02-13 19:17:00,51.5,35.4,30.02,South,190,0.0,0.0,54,0.00,,---,0.01,VWS V14.01,2013-02-14 01:17:00,
2013-02-13 19:18:00,51.3,35.7,30.02,South,190,0.0,0.0,55,0.00,,---,0.01,VWS V14.01,2013-02-14 01:18:00,
2013-02-13 19:19:00,51.5,35.9,30.02,South,190,0.0,0.0,55,0.00,,---,0.01,VWS V14.01,2013-02-14 01:19:00,
2013-02-13 19:20:00,51.4,35.8,30.02,South,190,0.0,0.0,55,0.00,,---,0.01,VWS V14.01,2013-02-14 01:20:00,
2013-02-13 19:21:00,51.4,35.8,30.02,South,190,0.0,0.0,55,0.00,,---,0.01,VWS V14.01,2013-02-14 01:21:00,
2013-02-13 19:22:00,51.3,35.7,30.02,South,190,0.0,0.0,55,0.00,,---,0.01,VWS V14.01,2013-02-14 01:22:00,
2013-02-13 19:23:00,51.1,36.4,30.02,South,190,0.0,1.0,57,0.00,,---,0.01,VWS V14.01,2013-02-14 01:23:00,
2013-02-13 19:24:00,51.2,36.1,30.02,South,190,0.0,1.0,56,0.00,,---,0.01,VWS V14.01,2013-02-14 01:24:00,
2013-02-13 19:25:00,51.2,36.1,30.02,South,190,0.0,1.0,56,0.00,,---,0.01,VWS V14.01,2013-02-14 01:25:00,
2013-02-13 19:26:00,51.2,36.5,30.02,South,190,0.0,1.0,57,0.00,,---,0.01,VWS V14.01,2013-02-14 01:26:00,
2013-02-13 19:27:00,51.1,36.4,30.02,South,190,0.0,1.0,57,0.00,,---,0.01,VWS V14.01,2013-02-14 01:27:00,
2013-02-13 19:28:00,51.0,36.8,30.02,South,190,0.0,2.0,58,0.00,,---,0.01,VWS V14.01,2013-02-14 01:28:00,
2013-02-13 19:29:00,51.1,36.4,30.02,South,190,1.0,1.0,57,0.00,,---,0.01,VWS V14.01,2013-02-14 01:29:00,
2013-02-13 19:31:00,51.0,36.3,30.02,South,190,0.0,2.0,57,0.00,,---,0.01,VWS V14.01,2013-02-14 01:31:00,
2013-02-13 19:32:00,51.0,36.8,30.02,South,190,0.0,2.0,58,0.00,,---,0.01,VWS V14.01,2013-02-14 01:32:00,
2013-02-13 19:33:00,50.7,36.5,30.02,South,190,0.0,3.0,58,0.00,,---,0.01,VWS V14.01,2013-02-14 01:33:00,
2013-02-13 19:34:00,50.9,36.7,30.02,South,190,1.0,2.0,58,0.00,,---,0.01,VWS V14.01,2013-02-14 01:34:00,
2013-02-13 19:35:00,50.9,36.7,30.01,South,190,1.0,2.0,58,0.00,,---,0.01,VWS V14.01,2013-02-14 01:35:00,
2013-02-13 19:36:00,50.9,36.7,30.02,South,190,1.0,2.0,58,0.00,,---,0.01,VWS V14.01,2013-02-14 01:36:00,
2013-02-13 19:37:00,50.8,36.6,30.02,South,190,2.0,3.0,58,0.00,,---,0.01,VWS V14.01,2013-02-14 01:37:00,
2013-02-13 19:38:00,50.4,36.2,30.02,South,190,0.0,3.0,58,0.00,,---,0.01,VWS V14.01,2013-02-14 01:38:00,
2013-02-13 19:39:00,50.6,36.4,30.02,South,190,1.0,3.0,58,0.00,,---,0.01,VWS V14.01,2013-02-14 01:39:00,
2013-02-13 19:40:00,50.6,36.4,30.02,South,190,2.0,3.0,58,0.00,,---,0.01,VWS V14.01,2013-02-14 01:40:00,
2013-02-13 19:41:00,50.5,36.3,30.02,South,190,1.0,3.0,58,0.00,,---,0.01,VWS V14.01,2013-02-14 01:41:00,
2013-02-13 19:42:00,50.5,37.6,30.02,South,190,0.0,3.0,61,0.00,,---,0.01,VWS V14.01,2013-02-14 01:42:00,
2013-02-13 19:43:00,50.1,36.3,30.02,South,190,0.0,2.0,59,0.00,,---,0.01,VWS V14.01,2013-02-14 01:43:00,
2013-02-13 19:44:00,50.3,36.1,30.02,South,190,1.0,3.0,58,0.00,,---,0.01,VWS V14.01,2013-02-14 01:44:00,
2013-02-13 19:45:00,50.3,36.1,30.02,South,190,1.0,3.0,58,0.00,,---,0.01,VWS V14.01,2013-02-14 01:45:00,
2013-02-13 19:46:00,50.2,36.0,30.02,South,190,0.0,2.0,58,0.00,,---,0.01,VWS V14.01,2013-02-14 01:46:00,
2013-02-13 19:47:00,50.1,36.3,30.02,South,190,1.0,2.0,59,0.00,,---,0.01,VWS V14.01,2013-02-14 01:47:00,
2013-02-13 19:48:00,50.0,36.2,30.02,South,190,2.0,3.0,59,0.00,,---,0.01,VWS V14.01,2013-02-14 01:48:00,
2013-02-13 19:49:00,50.1,36.3,30.02,South,190,2.0,3.0,59,0.00,,---,0.01,VWS V14.01,2013-02-14 01:49:00,
2013-02-13 19:50:00,50.1,35.9,30.03,South,190,0.0,3.0,58,0.00,,---,0.01,VWS V14.01,2013-02-14 01:50:00,
2013-02-13 19:51:00,50.0,36.2,30.02,South,190,0.0,3.0,59,0.00,,---,0.01,VWS V14.01,2013-02-14 01:51:00,
2013-02-13 19:52:00,50.0,36.2,30.03,South,190,0.0,3.0,59,0.00,,---,0.01,VWS V14.01,2013-02-14 01:52:00,
2013-02-13 19:53:00,49.8,36.1,30.02,South,190,2.0,3.0,59,0.00,,---,0.01,VWS V14.01,2013-02-14 01:53:00,
2013-02-13 19:54:00,49.9,36.2,30.02,South,190,1.0,3.0,59,0.00,,---,0.01,VWS V14.01,2013-02-14 01:54:00,
2013-02-13 19:56:00,49.9,36.2,30.03,South,190,2.0,3.0,59,0.00,,---,0.01,VWS V14.01,2013-02-14 01:56:00,
2013-02-13 19:58:00,49.6,35.9,30.02,South,190,0.0,3.0,59,0.00,,---,0.01,VWS V14.01,2013-02-14 01:58:00,
2013-02-13 20:00:00,49.7,36.0,30.02,South,190,0.0,3.0,59,0.00,,---,0.01,VWS V14.01,2013-02-14 02:00:00,
2013-02-13 20:01:00,49.6,35.9,30.02,South,190,0.0,3.0,59,0.00,,---,0.01,VWS V14.01,2013-02-14 02:01:00,
2013-02-13 20:02:00,49.6,35.9,30.02,South,190,0.0,3.0,59,0.00,,---,0.01,VWS V14.01,2013-02-14 02:02:00,
2013-02-13 20:03:00,49.4,35.7,30.02,South,190,0.0,3.0,59,0.00,,---,0.01,VWS V14.01,2013-02-14 02:03:00,
2013-02-13 20:04:00,49.5,35.8,30.02,South,190,0.0,1.0,59,0.00,,---,0.01,VWS V14.01,2013-02-14 02:04:00,
2013-02-13 20:07:00,49.4,35.7,30.02,South,190,2.0,2.0,59,0.00,,---,0.01,VWS V14.01,2013-02-14 02:07:00,
2013-02-13 20:08:00,49.1,35.8,30.02,South,190,1.0,3.0,60,0.00,,---,0.01,VWS V14.01,2013-02-14 02:08:00,
2013-02-13 20:09:00,49.3,35.6,30.02,South,190,0.0,3.0,59,0.00,,---,0.01,VWS V14.01,2013-02-14 02:09:00,
2013-02-13 20:13:00,48.9,35.6,30.02,South,189,2.0,4.0,60,0.00,,---,0.01,VWS V14.01,2013-02-14 02:13:00,
2013-02-13 20:14:00,49.0,35.7,30.02,South,189,2.0,4.0,60,0.00,,---,0.01,VWS V14.01,2013-02-14 02:14:00,
2013-02-13 20:15:00,49.0,35.7,30.03,South,189,2.0,4.0,60,0.00,,---,0.01,VWS V14.01,2013-02-14 02:15:00,
2013-02-13 20:16:00,48.9,35.6,30.02,South,189,1.0,4.0,60,0.00,,---,0.01,VWS V14.01,2013-02-14 02:16:00,
2013-02-13 20:17:00,48.9,35.6,30.03,South,189,2.0,4.0,60,0.00,,---,0.01,VWS V14.01,2013-02-14 02:17:00,
2013-02-13 20:18:00,48.7,35.9,30.03,South,189,1.0,4.0,61,0.00,,---,0.01,VWS V14.01,2013-02-14 02:18:00,
2013-02-13 20:19:00,48.8,35.5,30.03,South,189,2.0,4.0,60,0.00,,---,0.01,VWS V14.01,2013-02-14 02:19:00,
2013-02-13 20:20:00,48.7,35.5,30.03,South,189,1.0,4.0,60,0.00,,---,0.01,VWS V14.01,2013-02-14 02:20:00,
2013-02-13 20:21:00,48.7,35.5,30.03,South,189,3.0,3.0,60,0.00,,---,0.01,VWS V14.01,2013-02-14 02:21:00,
2013-02-13 20:22:00,48.7,35.9,30.03,South,189,0.0,4.0,61,0.00,,---,0.01,VWS V14.01,2013-02-14 02:22:00,
2013-02-13 20:23:00,48.6,35.4,30.03,South,188,1.0,4.0,60,0.00,,---,0.01,VWS V14.01,2013-02-14 02:23:00,
2013-02-13 20:24:00,48.6,35.8,30.03,South,189,3.0,4.0,61,0.00,,---,0.01,VWS V14.01,2013-02-14 02:24:00,
2013-02-13 20:25:00,48.6,35.4,30.03,South,189,1.0,4.0,60,0.00,,---,0.01,VWS V14.01,2013-02-14 02:25:00,
2013-02-13 20:26:00,48.6,35.8,30.03,South,189,2.0,4.0,61,0.00,,---,0.01,VWS V14.01,2013-02-14 02:26:00,
2013-02-13 20:27:00,48.6,35.4,30.03,South,189,1.0,4.0,60,0.00,,---,0.01,VWS V14.01,2013-02-14 02:27:00,
2013-02-13 20:28:00,48.4,35.6,30.03,South,189,2.0,3.0,61,0.00,,---,0.01,VWS V14.01,2013-02-14 02:28:00,
2013-02-13 20:30:00,48.5,35.3,30.03,South,189,1.0,4.0,60,0.00,,---,0.01,VWS V14.01,2013-02-14 02:30:00,
2013-02-13 20:31:00,48.5,35.7,30.03,South,189,2.0,3.0,61,0.00,,---,0.01,VWS V14.01,2013-02-14 02:31:00,
2013-02-13 20:32:00,48.5,35.7,30.03,South,189,0.0,3.0,61,0.00,,---,0.01,VWS V14.01,2013-02-14 02:32:00,
2013-02-13 20:33:00,48.2,35.4,30.03,South,189,2.0,3.0,61,0.00,,---,0.01,VWS V14.01,2013-02-14 02:33:00,
2013-02-13 20:34:00,48.4,35.6,30.03,South,189,1.0,3.0,61,0.00,,---,0.01,VWS V14.01,2013-02-14 02:34:00,
2013-02-13 20:35:00,48.3,35.5,30.03,South,189,1.0,3.0,61,0.00,,---,0.01,VWS V14.01,2013-02-14 02:35:00,
2013-02-13 20:36:00,48.3,35.5,30.03,South,189,0.0,3.0,61,0.00,,---,0.01,VWS V14.01,2013-02-14 02:36:00,
2013-02-13 20:38:00,48.0,35.2,30.03,South,189,0.0,2.0,61,0.00,,---,0.01,VWS V14.01,2013-02-14 02:38:00,
2013-02-13 20:39:00,48.2,35.4,30.03,South,189,0.0,2.0,61,0.00,,---,0.01,VWS V14.01,2013-02-14 02:39:00,
2013-02-13 20:40:00,48.1,35.3,30.03,South,189,0.0,2.0,61,0.00,,---,0.01,VWS V14.01,2013-02-14 02:40:00,
2013-02-13 20:41:00,48.1,35.3,30.03,South,189,0.0,2.0,61,0.00,,---,0.01,VWS V14.01,2013-02-14 02:41:00,
2013-02-13 20:42:00,48.1,35.3,30.03,South,189,0.0,2.0,61,0.00,,---,0.01,VWS V14.01,2013-02-14 02:42:00,
2013-02-13 20:43:00,47.9,35.5,30.03,South,189,0.0,2.0,62,0.00,,---,0.01,VWS V14.01,2013-02-14 02:43:00,
2013-02-13 20:44:00,48.0,35.6,30.03,South,189,2.0,2.0,62,0.00,,---,0.01,VWS V14.01,2013-02-14 02:44:00,
2013-02-13 20:45:00,48.0,35.6,30.03,South,189,0.0,2.0,62,0.00,,---,0.01,VWS V14.01,2013-02-14 02:45:00,
2013-02-13 20:46:00,47.9,35.5,30.03,South,189,1.0,2.0,62,0.00,,---,0.01,VWS V14.01,2013-02-14 02:46:00,
2013-02-13 20:47:00,47.9,35.5,30.03,South,189,0.0,2.0,62,0.00,,---,0.01,VWS V14.01,2013-02-14 02:47:00,
2013-02-13 20:48:00,47.8,35.4,30.03,South,189,0.0,1.0,62,0.00,,---,0.01,VWS V14.01,2013-02-14 02:48:00,
2013-02-13 20:49:00,47.8,35.4,30.03,South,189,0.0,2.0,62,0.00,,---,0.01,VWS V14.01,2013-02-14 02:49:00,
2013-02-13 20:50:00,47.8,35.4,30.03,South,189,0.0,2.0,62,0.00,,---,0.01,VWS V14.01,2013-02-14 02:50:00,
2013-02-13 20:52:00,47.8,35.4,30.03,South,189,0.0,1.0,62,0.00,,---,0.01,VWS V14.01,2013-02-14 02:52:00,
2013-02-13 20:53:00,47.7,35.3,30.03,South,189,0.0,1.0,62,0.00,,---,0.01,VWS V14.01,2013-02-14 02:53:00,
2013-02-13 20:54:00,47.7,35.3,30.03,South,188,0.0,1.0,62,0.00,,---,0.01,VWS V14.01,2013-02-14 02:54:00,
2013-02-13 20:55:00,47.7,35.3,30.03,South,189,0.0,1.0,62,0.00,,---,0.01,VWS V14.01,2013-02-14 02:55:00,
2013-02-13 20:56:00,47.7,35.3,30.03,South,189,0.0,1.0,62,0.00,,---,0.01,VWS V14.01,2013-02-14 02:56:00,
2013-02-13 20:57:00,47.7,35.3,30.03,South,188,0.0,1.0,62,0.00,,---,0.01,VWS V14.01,2013-02-14 02:57:00,
2013-02-13 20:58:00,47.6,35.2,30.03,South,189,0.0,1.0,62,0.00,,---,0.01,VWS V14.01,2013-02-14 02:58:00,
2013-02-13 20:59:00,47.6,35.2,30.03,South,189,0.0,1.0,62,0.00,,---,0.01,VWS V14.01,2013-02-14 02:59:00,
2013-02-13 21:00:00,47.6,35.2,30.03,South,189,0.0,0.0,62,0.00,,---,0.01,VWS V14.01,2013-02-14 03:00:00,
2013-02-13 21:01:00,47.6,35.2,30.03,South,189,0.0,0.0,62,0.00,,---,0.01,VWS V14.01,2013-02-14 03:01:00,
2013-02-13 21:02:00,47.6,35.2,30.03,South,189,0.0,1.0,62,0.00,,---,0.01,VWS V14.01,2013-02-14 03:02:00,
2013-02-13 21:03:00,47.5,35.5,30.04,South,189,0.0,1.0,63,0.00,,---,0.01,VWS V14.01,2013-02-14 03:03:00,
2013-02-13 21:04:00,47.6,35.6,30.03,South,188,0.0,1.0,63,0.00,,---,0.01,VWS V14.01,2013-02-14 03:04:00,
2013-02-13 21:05:00,47.5,35.5,30.04,South,189,0.0,1.0,63,0.00,,---,0.01,VWS V14.01,2013-02-14 03:05:00,
2013-02-13 21:06:00,47.5,35.5,30.04,South,189,0.0,1.0,63,0.00,,---,0.01,VWS V14.01,2013-02-14 03:06:00,
2013-02-13 21:07:00,47.5,35.5,30.04,South,189,0.0,1.0,63,0.00,,---,0.01,VWS V14.01,2013-02-14 03:07:00,
2013-02-13 21:08:00,47.4,35.5,30.04,South,189,0.0,3.0,63,0.00,,---,0.01,VWS V14.01,2013-02-14 03:08:00,
2013-02-13 21:09:00,47.5,35.5,30.04,South,189,2.0,2.0,63,0.00,,---,0.01,VWS V14.01,2013-02-14 03:09:00,
2013-02-13 21:10:00,47.4,35.5,30.04,South,189,0.0,2.0,63,0.00,,---,0.01,VWS V14.01,2013-02-14 03:10:00,
2013-02-13 21:11:00,47.4,35.5,30.04,South,189,2.0,2.0,63,0.00,,---,0.01,VWS V14.01,2013-02-14 03:11:00,
2013-02-13 21:12:00,47.4,35.5,30.04,South,189,0.0,3.0,63,0.00,,---,0.01,VWS V14.01,2013-02-14 03:12:00,
2013-02-13 21:13:00,47.2,35.3,30.04,South,189,0.0,1.0,63,0.00,,---,0.01,VWS V14.01,2013-02-14 03:13:00,
2013-02-13 21:14:00,47.3,35.4,30.04,South,189,0.0,3.0,63,0.00,,---,0.01,VWS V14.01,2013-02-14 03:14:00,
2013-02-13 21:15:00,47.3,35.4,30.04,South,189,0.0,3.0,63,0.00,,---,0.01,VWS V14.01,2013-02-14 03:15:00,
2013-02-13 21:16:00,47.2,35.3,30.04,South,189,0.0,3.0,63,0.00,,---,0.01,VWS V14.01,2013-02-14 03:16:00,
2013-02-13 21:17:00,47.2,35.3,30.04,South,189,0.0,1.0,63,0.00,,---,0.01,VWS V14.01,2013-02-14 03:17:00,
2013-02-13 21:18:00,47.0,35.1,30.04,South,189,1.0,3.0,63,0.00,,---,0.01,VWS V14.01,2013-02-14 03:18:00,
2013-02-13 21:19:00,47.1,35.2,30.04,South,189,0.0,3.0,63,0.00,,---,0.01,VWS V14.01,2013-02-14 03:19:00,
2013-02-13 21:20:00,47.1,35.2,30.04,South,189,2.0,3.0,63,0.00,,---,0.01,VWS V14.01,2013-02-14 03:20:00,
2013-02-13 21:21:00,47.1,35.2,30.04,South,189,1.0,3.0,63,0.00,,---,0.01,VWS V14.01,2013-02-14 03:21:00,
2013-02-13 21:22:00,47.0,35.1,30.04,South,189,1.0,3.0,63,0.00,,---,0.01,VWS V14.01,2013-02-14 03:22:00,
2013-02-13 21:23:00,46.9,35.4,30.04,South,189,0.0,2.0,64,0.00,,---,0.01,VWS V14.01,2013-02-14 03:23:00,
2013-02-13 21:25:00,47.0,35.5,30.04,South,189,0.0,3.0,64,0.00,,---,0.01,VWS V14.01,2013-02-14 03:25:00,
2013-02-13 21:27:00,46.9,35.4,30.04,South,189,0.0,3.0,64,0.00,,---,0.01,VWS V14.01,2013-02-14 03:27:00,
2013-02-13 21:28:00,46.8,35.3,30.04,South,189,1.0,2.0,64,0.00,,---,0.01,VWS V14.01,2013-02-14 03:28:00,
2013-02-13 21:29:00,46.9,35.4,30.04,South,188,0.0,1.0,64,0.00,,---,0.01,VWS V14.01,2013-02-14 03:29:00,
2013-02-13 21:30:00,46.8,35.3,30.04,South,188,0.0,1.0,64,0.00,,---,0.01,VWS V14.01,2013-02-14 03:30:00,
2013-02-13 21:31:00,46.8,35.3,30.04,South,189,0.0,1.0,64,0.00,,---,0.01,VWS V14.01,2013-02-14 03:31:00,
2013-02-13 21:32:00,46.8,35.3,30.04,South,189,2.0,2.0,64,0.00,,---,0.01,VWS V14.01,2013-02-14 03:32:00,
2013-02-13 21:33:00,46.7,35.2,30.04,South,188,3.0,3.0,64,0.00,,---,0.01,VWS V14.01,2013-02-14 03:33:00,
2013-02-13 21:34:00,46.8,35.3,30.04,South,189,3.0,3.0,64,0.00,,---,0.01,VWS V14.01,2013-02-14 03:34:00,
2013-02-13 21:35:00,46.8,35.3,30.04,South,188,0.0,3.0,64,0.00,,---,0.01,VWS V14.01,2013-02-14 03:35:00,
2013-02-13 21:36:00,46.8,35.3,30.04,South,188,1.0,3.0,64,0.00,,---,0.01,VWS V14.01,2013-02-14 03:36:00,
2013-02-13 21:37:00,46.8,35.3,30.04,South,189,0.0,3.0,64,0.00,,---,0.01,VWS V14.01,2013-02-14 03:37:00,
2013-02-13 21:38:00,46.7,35.6,30.04,South,188,1.0,3.0,65,0.00,,---,0.01,VWS V14.01,2013-02-14 03:38:00,
2013-02-13 21:39:00,46.7,35.6,30.04,South,188,0.0,3.0,65,0.00,,---,0.01,VWS V14.01,2013-02-14 03:39:00,
2013-02-13 21:40:00,46.7,35.6,30.04,South,188,0.0,3.0,65,0.00,,---,0.01,VWS V14.01,2013-02-14 03:40:00,
2013-02-13 21:41:00,46.7,35.6,30.04,South,188,0.0,3.0,65,0.00,,---,0.01,VWS V14.01,2013-02-14 03:41:00,
2013-02-13 21:42:00,46.7,35.6,30.04,South,188,3.0,3.0,65,0.00,,---,0.01,VWS V14.01,2013-02-14 03:42:00,
2013-02-13 21:43:00,46.5,35.4,30.04,South,188,0.0,3.0,65,0.00,,---,0.01,VWS V14.01,2013-02-14 03:43:00,
2013-02-13 21:44:00,46.7,35.6,30.04,South,188,2.0,3.0,65,0.00,,---,0.01,VWS V14.01,2013-02-14 03:44:00,
2013-02-13 21:45:00,46.6,35.5,30.04,South,188,3.0,3.0,65,0.00,,---,0.01,VWS V14.01,2013-02-14 03:45:00,
2013-02-13 21:46:00,46.6,35.5,30.04,South,188,1.0,3.0,65,0.00,,---,0.01,VWS V14.01,2013-02-14 03:46:00,
2013-02-13 21:47:00,46.6,35.5,30.04,South,188,0.0,3.0,65,0.00,,---,0.01,VWS V14.01,2013-02-14 03:47:00,
2013-02-13 21:48:00,46.3,35.2,30.05,South,188,0.0,3.0,65,0.00,,---,0.01,VWS V14.01,2013-02-14 03:48:00,
2013-02-13 21:50:00,46.4,35.3,30.05,South,188,0.0,3.0,65,0.00,,---,0.01,VWS V14.01,2013-02-14 03:50:00,
2013-02-13 21:51:00,46.4,35.3,30.05,South,188,2.0,3.0,65,0.00,,---,0.01,VWS V14.01,2013-02-14 03:51:00,
2013-02-13 21:53:00,46.2,35.5,30.05,South,188,0.0,4.0,66,0.00,,---,0.01,VWS V14.01,2013-02-14 03:53:00,
2013-02-13 21:54:00,46.3,35.6,30.04,South,188,0.0,4.0,66,0.00,,---,0.01,VWS V14.01,2013-02-14 03:54:00,
2013-02-13 21:55:00,46.2,35.5,30.04,South,188,2.0,4.0,66,0.00,,---,0.01,VWS V14.01,2013-02-14 03:55:00,
2013-02-13 21:58:00,46.1,35.4,30.05,South,188,3.0,4.0,66,0.00,,---,0.01,VWS V14.01,2013-02-14 03:58:00,
2013-02-13 21:59:00,46.1,35.4,30.05,South,188,0.0,3.0,66,0.00,,---,0.01,VWS V14.01,2013-02-14 03:59:00,
2013-02-13 22:00:00,46.1,35.4,30.05,South,188,0.0,3.0,66,0.00,,---,0.01,VWS V14.01,2013-02-14 04:00:00,
2013-02-13 22:01:00,46.1,35.8,30.05,South,188,1.0,3.0,67,0.00,,---,0.01,VWS V14.01,2013-02-14 04:01:00,
2013-02-13 22:02:00,46.1,35.8,30.05,South,188,1.0,3.0,67,0.00,,---,0.01,VWS V14.01,2013-02-14 04:02:00,
2013-02-13 22:03:00,45.9,35.6,30.05,South,187,2.0,5.0,67,0.00,,---,0.01,VWS V14.01,2013-02-14 04:03:00,
2013-02-13 22:04:00,46.0,35.7,30.05,South,188,2.0,4.0,67,0.00,,---,0.01,VWS V14.01,2013-02-14 04:04:00,
2013-02-13 22:05:00,46.0,35.7,30.05,South,188,1.0,4.0,67,0.00,,---,0.01,VWS V14.01,2013-02-14 04:05:00,
2013-02-13 22:06:00,46.0,35.7,30.05,South,188,3.0,4.0,67,0.00,,---,0.01,VWS V14.01,2013-02-14 04:06:00,
2013-02-13 22:07:00,45.9,35.6,30.05,South,187,3.0,4.0,67,0.00,,---,0.01,VWS V14.01,2013-02-14 04:07:00,
2013-02-13 22:08:00,45.7,35.8,30.05,South,186,0.0,4.0,68,0.00,,---,0.01,VWS V14.01,2013-02-14 04:08:00,
2013-02-13 22:09:00,45.8,35.8,30.05,South,187,3.0,5.0,68,0.00,,---,0.01,VWS V14.01,2013-02-14 04:09:00,
2013-02-13 22:10:00,45.8,35.8,30.05,South,187,3.0,5.0,68,0.00,,---,0.01,VWS V14.01,2013-02-14 04:10:00,
2013-02-13 22:11:00,45.7,35.8,30.05,South,187,4.0,5.0,68,0.00,,---,0.01,VWS V14.01,2013-02-14 04:11:00,
2013-02-13 22:12:00,45.7,35.8,30.05,South,187,2.0,5.0,68,0.00,,---,0.01,VWS V14.01,2013-02-14 04:12:00,
2013-02-13 22:13:00,45.5,35.9,30.05,South,185,1.0,5.0,69,0.00,,---,0.01,VWS V14.01,2013-02-14 04:13:00,
2013-02-13 22:15:00,45.6,36.0,30.05,South,186,1.0,4.0,69,0.00,,---,0.01,VWS V14.01,2013-02-14 04:15:00,
2013-02-13 22:16:00,45.6,36.0,30.05,South,186,3.0,4.0,69,0.00,,---,0.01,VWS V14.01,2013-02-14 04:16:00,
2013-02-13 22:17:00,45.5,35.9,30.05,South,185,1.0,5.0,69,0.00,,---,0.01,VWS V14.01,2013-02-14 04:17:00,
2013-02-13 22:18:00,45.4,36.2,30.05,South,184,0.0,4.0,70,0.00,,---,0.01,VWS V14.01,2013-02-14 04:18:00,
2013-02-13 22:19:00,45.5,35.9,30.05,South,184,2.0,5.0,69,0.00,,---,0.01,VWS V14.01,2013-02-14 04:19:00,
2013-02-13 22:21:00,45.4,35.8,30.05,South,184,0.0,5.0,69,0.00,,---,0.01,VWS V14.01,2013-02-14 04:21:00,
2013-02-13 22:23:00,45.3,36.1,30.05,South,184,0.0,3.0,70,0.00,,---,0.01,VWS V14.01,2013-02-14 04:23:00,
2013-02-13 22:25:00,45.3,36.1,30.05,South,184,0.0,4.0,70,0.00,,---,0.01,VWS V14.01,2013-02-14 04:25:00,
2013-02-13 22:28:00,45.2,36.4,30.05,South,184,0.0,3.0,71,0.00,,---,0.01,VWS V14.01,2013-02-14 04:28:00,
2013-02-13 22:29:00,45.2,36.0,30.05,South,184,0.0,3.0,70,0.00,,---,0.01,VWS V14.01,2013-02-14 04:29:00,
2013-02-13 22:31:00,45.2,36.0,30.05,South,184,1.0,2.0,70,0.00,,---,0.01,VWS V14.01,2013-02-14 04:31:00,
2013-02-13 22:32:00,45.2,36.4,30.05,South,184,0.0,3.0,71,0.00,,---,0.01,VWS V14.01,2013-02-14 04:32:00,
2013-02-13 22:33:00,45.2,36.7,30.05,South,184,0.0,2.0,72,0.00,,---,0.01,VWS V14.01,2013-02-14 04:33:00,
2013-02-13 22:34:00,45.2,36.4,30.05,South,184,0.0,3.0,71,0.00,,---,0.01,VWS V14.01,2013-02-14 04:34:00,
2013-02-13 22:36:00,45.2,36.4,30.05,South,184,0.0,3.0,71,0.00,,---,0.01,VWS V14.01,2013-02-14 04:36:00,
2013-02-13 22:37:00,45.2,36.4,30.05,South,184,0.0,3.0,71,0.00,,---,0.01,VWS V14.01,2013-02-14 04:37:00,
2013-02-13 22:38:00,45.2,36.7,30.05,South,184,0.0,3.0,72,0.00,,---,0.01,VWS V14.01,2013-02-14 04:38:00,
2013-02-13 22:39:00,45.2,36.7,30.05,South,184,0.0,2.0,72,0.00,,---,0.01,VWS V14.01,2013-02-14 04:39:00,
2013-02-13 22:40:00,45.2,36.7,30.05,South,184,0.0,2.0,72,0.00,,---,0.01,VWS V14.01,2013-02-14 04:40:00,
2013-02-13 22:42:00,45.2,36.7,30.05,South,184,3.0,3.0,72,0.00,,---,0.01,VWS V14.01,2013-02-14 04:42:00,
2013-02-13 22:43:00,45.2,36.7,30.05,South,184,2.0,4.0,72,0.00,,---,0.01,VWS V14.01,2013-02-14 04:43:00,
2013-02-13 22:44:00,45.2,36.7,30.05,South,184,0.0,3.0,72,0.00,,---,0.01,VWS V14.01,2013-02-14 04:44:00,
2013-02-13 22:45:00,45.2,36.7,30.05,South,184,1.0,3.0,72,0.00,,---,0.01,VWS V14.01,2013-02-14 04:45:00,
2013-02-13 22:46:00,45.2,36.7,30.05,South,184,0.0,3.0,72,0.00,,---,0.01,VWS V14.01,2013-02-14 04:46:00,
2013-02-13 22:47:00,45.2,36.7,30.05,South,184,3.0,3.0,72,0.00,,---,0.01,VWS V14.01,2013-02-14 04:47:00,
2013-02-13 22:48:00,45.1,36.6,30.05,South,184,3.0,4.0,72,0.00,,---,0.01,VWS V14.01,2013-02-14 04:48:00,
2013-02-13 22:49:00,45.2,36.7,30.05,South,184,1.0,4.0,72,0.00,,---,0.01,VWS V14.01,2013-02-14 04:49:00,
2013-02-13 22:51:00,45.1,36.6,30.05,South,184,3.0,4.0,72,0.00,,---,0.01,VWS V14.01,2013-02-14 04:51:00,
2013-02-13 22:52:00,45.1,36.6,30.05,South,184,3.0,4.0,72,0.00,,---,0.01,VWS V14.01,2013-02-14 04:52:00,
2013-02-13 22:53:00,44.9,36.4,30.05,South,184,0.0,4.0,72,0.00,,---,0.01,VWS V14.01,2013-02-14 04:53:00,
2013-02-13 22:56:00,44.9,36.4,30.05,South,184,1.0,4.0,72,0.00,,---,0.01,VWS V14.01,2013-02-14 04:56:00,
2013-02-13 22:58:00,44.7,36.6,30.05,South,184,0.0,1.0,73,0.00,,---,0.01,VWS V14.01,2013-02-14 04:58:00,
2013-02-13 23:00:00,44.7,36.6,30.05,South,184,0.0,0.0,73,0.00,,---,0.01,VWS V14.01,2013-02-14 05:00:00,
2013-02-13 23:01:00,44.8,36.7,30.05,South,184,0.0,1.0,73,0.00,,---,0.01,VWS V14.01,2013-02-14 05:01:00,
2013-02-13 23:02:00,44.8,36.7,30.05,South,184,0.0,1.0,73,0.00,,---,0.01,VWS V14.01,2013-02-14 05:02:00,
2013-02-13 23:04:00,44.7,36.6,30.05,South,184,0.0,0.0,73,0.00,,---,0.01,VWS V14.01,2013-02-14 05:04:00,
2013-02-13 23:05:00,44.5,36.4,30.05,South,184,3.0,3.0,73,0.00,,---,0.01,VWS V14.01,2013-02-14 05:05:00,
2013-02-13 23:06:00,44.6,36.5,30.05,South,184,0.0,0.0,73,0.00,,---,0.01,VWS V14.01,2013-02-14 05:06:00,
2013-02-13 23:07:00,44.6,36.5,30.05,South,184,0.0,0.0,73,0.00,,---,0.01,VWS V14.01,2013-02-14 05:07:00,
2013-02-13 23:08:00,44.6,36.5,30.05,South,184,2.0,3.0,73,0.00,,---,0.01,VWS V14.01,2013-02-14 05:08:00,
2013-02-13 23:09:00,44.5,36.4,30.05,South,184,0.0,3.0,73,0.00,,---,0.01,VWS V14.01,2013-02-14 05:09:00,
2013-02-13 23:10:00,44.3,36.5,30.05,South,184,0.0,3.0,74,0.00,,---,0.01,VWS V14.01,2013-02-14 05:10:00,
2013-02-13 23:11:00,44.4,36.3,30.05,South,184,0.0,3.0,73,0.00,,---,0.01,VWS V14.01,2013-02-14 05:11:00,
2013-02-13 23:12:00,44.4,36.3,30.05,South,184,0.0,3.0,73,0.00,,---,0.01,VWS V14.01,2013-02-14 05:12:00,
2013-02-13 23:13:00,44.3,36.5,30.05,South,184,0.0,3.0,74,0.00,,---,0.01,VWS V14.01,2013-02-14 05:13:00,
2013-02-13 23:15:00,44.0,36.3,30.05,South,184,0.0,0.0,74,0.00,,---,0.01,VWS V14.01,2013-02-14 05:15:00,
2013-02-13 23:16:00,44.2,36.5,30.05,South,184,0.0,2.0,74,0.00,,---,0.01,VWS V14.01,2013-02-14 05:16:00,
2013-02-13 23:17:00,44.2,36.5,30.05,South,184,0.0,2.0,74,0.00,,---,0.01,VWS V14.01,2013-02-14 05:17:00,
2013-02-13 23:18:00,44.1,36.3,30.05,South,184,0.0,2.0,74,0.00,,---,0.01,VWS V14.01,2013-02-14 05:18:00,
2013-02-13 23:19:00,44.1,36.3,30.05,South,184,0.0,0.0,74,0.00,,---,0.01,VWS V14.01,2013-02-14 05:19:00,
2013-02-13 23:20:00,43.8,36.4,30.05,South,184,0.0,1.0,75,0.00,,---,0.01,VWS V14.01,2013-02-14 05:20:00,
2013-02-13 23:21:00,44.0,36.3,30.05,South,184,0.0,0.0,74,0.00,,---,0.01,VWS V14.01,2013-02-14 05:21:00,
2013-02-13 23:22:00,43.9,36.5,30.05,South,184,0.0,1.0,75,0.00,,---,0.01,VWS V14.01,2013-02-14 05:22:00,
2013-02-13 23:23:00,43.9,36.5,30.05,South,184,0.0,1.0,75,0.00,,---,0.01,VWS V14.01,2013-02-14 05:23:00,
2013-02-13 23:24:00,43.8,36.4,30.05,South,184,0.0,1.0,75,0.00,,---,0.01,VWS V14.01,2013-02-14 05:24:00,
2013-02-13 23:25:00,43.6,36.2,30.05,South,184,3.0,3.0,75,0.00,,---,0.01,VWS V14.01,2013-02-14 05:25:00,
2013-02-13 23:26:00,43.8,36.4,30.05,South,184,0.0,1.0,75,0.00,,---,0.01,VWS V14.01,2013-02-14 05:26:00,
2013-02-13 23:27:00,43.7,36.3,30.05,South,184,2.0,3.0,75,0.00,,---,0.01,VWS V14.01,2013-02-14 05:27:00,
2013-02-13 23:28:00,43.7,36.3,30.05,South,184,2.0,3.0,75,0.00,,---,0.01,VWS V14.01,2013-02-14 05:28:00,
2013-02-13 23:29:00,43.7,36.3,30.05,South,184,3.0,3.0,75,0.00,,---,0.01,VWS V14.01,2013-02-14 05:29:00,
2013-02-13 23:31:00,43.4,36.3,30.05,South,184,3.0,4.0,76,0.00,,---,0.01,VWS V14.01,2013-02-14 05:31:00,
2013-02-13 23:33:00,43.5,36.1,30.05,South,184,2.0,4.0,75,0.00,,---,0.01,VWS V14.01,2013-02-14 05:33:00,
2013-02-13 23:34:00,43.4,36.0,30.05,South,184,0.0,4.0,75,0.00,,---,0.01,VWS V14.01,2013-02-14 05:34:00,
2013-02-13 23:35:00,43.4,36.3,30.05,South,184,3.0,4.0,76,0.00,,---,0.01,VWS V14.01,2013-02-14 05:35:00,
2013-02-13 23:36:00,43.2,36.2,30.05,South,184,2.0,3.0,76,0.00,,---,0.01,VWS V14.01,2013-02-14 05:36:00,
2013-02-13 23:37:00,43.3,36.3,30.05,South,184,2.0,3.0,76,0.00,,---,0.01,VWS V14.01,2013-02-14 05:37:00,
2013-02-13 23:38:00,43.2,36.2,30.05,South,184,2.0,3.0,76,0.00,,---,0.01,VWS V14.01,2013-02-14 05:38:00,
2013-02-13 23:40:00,43.2,36.2,30.05,South,184,3.0,3.0,76,0.00,,---,0.01,VWS V14.01,2013-02-14 05:40:00,
2013-02-13 23:41:00,43.0,36.3,30.05,South,184,2.0,4.0,77,0.00,,---,0.01,VWS V14.01,2013-02-14 05:41:00,
2013-02-13 23:42:00,43.1,36.1,30.05,South,184,0.0,4.0,76,0.00,,---,0.01,VWS V14.01,2013-02-14 05:42:00,
2013-02-13 23:43:00,43.1,36.1,30.05,South,184,0.0,4.0,76,0.00,,---,0.01,VWS V14.01,2013-02-14 05:43:00,
2013-02-13 23:44:00,43.0,36.3,30.05,South,184,0.0,4.0,77,0.00,,---,0.01,VWS V14.01,2013-02-14 05:44:00,
2013-02-13 23:45:00,43.0,36.3,30.05,South,184,3.0,4.0,77,0.00,,---,0.01,VWS V14.01,2013-02-14 05:45:00,
2013-02-13 23:46:00,42.9,36.5,30.05,South,184,3.0,3.0,78,0.00,,---,0.01,VWS V14.01,2013-02-14 05:46:00,
2013-02-13 23:47:00,43.0,36.3,30.05,South,184,2.0,3.0,77,0.00,,---,0.01,VWS V14.01,2013-02-14 05:47:00,
2013-02-13 23:48:00,42.9,36.5,30.05,South,184,2.0,3.0,78,0.00,,---,0.01,VWS V14.01,2013-02-14 05:48:00,
2013-02-13 23:50:00,42.9,36.5,30.05,South,184,3.0,3.0,78,0.00,,---,0.01,VWS V14.01,2013-02-14 05:50:00,
2013-02-13 23:51:00,42.9,36.5,30.05,South,184,0.0,3.0,78,0.00,,---,0.01,VWS V14.01,2013-02-14 05:51:00,
2013-02-13 23:52:00,42.9,36.5,30.05,South,184,2.0,3.0,78,0.00,,---,0.01,VWS V14.01,2013-02-14 05:52:00,
2013-02-13 23:53:00,42.9,36.5,30.05,South,184,3.0,3.0,78,0.00,,---,0.01,VWS V14.01,2013-02-14 05:53:00,
2013-02-13 23:54:00,42.9,36.5,30.05,South,184,2.0,3.0,78,0.00,,---,0.01,VWS V14.01,2013-02-14 05:54:00,
2013-02-13 23:55:00,42.9,36.5,30.05,South,184,0.0,3.0,78,0.00,,---,0.01,VWS V14.01,2013-02-14 05:55:00,
2013-02-13 23:56:00,42.8,36.4,30.05,South,184,2.0,2.0,78,0.00,,---,0.00,VWS V14.01,2013-02-14 05:56:00,
2013-02-13 23:57:00,42.9,36.5,30.05,South,184,0.0,3.0,78,0.00,,---,0.01,VWS V14.01,2013-02-14 05:57:00,
2013-02-13 23:58:00,42.8,36.4,30.05,South,184,0.0,3.0,78,0.00,,---,0.01,VWS V14.01,2013-02-14 05:58:00,
2013-02-13 23:59:00,42.8,36.4,30.05,South,184,0.0,2.0,78,0.00,,---,0.01,VWS V14.01,2013-02-14 05:59:00,